[[{"header":{"parameterUnit":"m.s-1","parameterCategory":1,"la1":30.6,"la2":29.2853,"lo1":-89.7004,"lo2":-87.6739,"dy":0.0162,"dx":0.0183,"nx":112,"ny":82,"refTime":"2023-05-16T00:00:00:Z","depth":0,"parameterNumber":2,"parameterNumberName":"U-component_of_WINDS"},"data":[0.0,0.0,0.0,0.0,0.0,0.0,0.0,0.0,0.0,0.0,0.0,0.0,0.0,0.0,0.0,0.0,0.0,0.0,0.0,0.0,0.0,0.0,0.0,0.0,0.0,0.0,0.0,0.0,0.0,0.0,0.0,0.0,0.0,0.0,0.0,0.0,0.0,0.0,0.0,0.0,0.0,0.0,0.0,0.0,0.0,0.0,0.0,0.0,0.0,0.0,0.0,0.0,0.0,0.0,0.0,0.0,0.0,0.0,0.0,0.0,0.0,0.0,0.0,0.0,0.0,0.0,0.0,0.0,0.0,0.0,0.0,0.0,0.0,0.0,0.0,0.0,0.0,0.0,0.0,0.0,0.0,0.0,0.0,0.0,0.0,0.0,0.0,0.0,0.0,0.0,1.672,1.9394,2.3185,2.524,2.4566,2.4258,2.2453,1.8565,0.0,0.0,0.0,0.0,0.0,0.0,0.0,0.0,0.0,0.0,0.0,0.0,0.0,0.0,0.0,0.0,0.0,0.0,0.0,0.0,0.0,0.0,0.0,0.0,0.0,0.0,0.0,0.0,0.0,0.0,0.0,0.0,0.0,0.0,0.0,0.0,0.0,0.0,0.0,0.0,0.0,0.0,0.0,0.0,0.0,0.0,0.0,0.0,0.0,0.0,0.0,0.0,0.0,0.0,0.0,0.0,0.0,0.0,0.0,0.0,0.0,0.0,0.0,0.0,0.0,0.0,0.0,0.0,0.0,0.0,0.0,0.0,0.0,0.0,0.0,0.0,0.0,0.0,0.0,0.0,0.0,0.0,0.0,0.0,0.0,0.0,0.0,0.0,0.0,0.0,0.0,0.0,0.0,0.0,0.0,0.0,0.0,0.0,0.0,0.0,0.0,0.0,0.0,0.0,1.8672,2.1972,2.4269,2.5542,2.5406,2.4092,2.2403,2.0311,0.0,0.0,0.0,0.0,0.0,0.0,0.0,0.0,0.0,0.0,0.0,0.0,0.0,0.0,0.0,0.0,0.0,0.0,0.0,0.0,0.0,0.0,0.0,0.0,0.0,0.0,0.0,0.0,0.0,0.0,0.0,0.0,0.0,0.0,0.0,0.0,0.0,0.0,0.0,0.0,0.0,0.0,0.0,0.0,0.0,0.0,0.0,0.0,0.0,0.0,0.0,0.0,0.0,0.0,0.0,0.0,0.0,0.0,0.0,0.0,0.0,0.0,0.0,0.0,0.0,0.0,0.0,0.0,0.0,0.0,0.0,0.0,0.0,0.0,0.0,0.0,0.0,0.0,0.0,0.0,0.0,0.0,0.0,0.0,0.0,0.0,0.0,0.0,0.0,0.0,0.0,0.0,0.0,0.0,0.0,0.0,0.0,0.0,0.0,0.0,0.0,0.0,0.0,1.7926,2.0177,2.2688,2.4549,2.5422,2.4994,2.3384,2.1669,1.9996,1.8603,0.0,0.0,0.0,0.0,0.0,0.0,0.0,0.0,0.0,0.0,0.0,0.0,0.0,0.0,0.0,0.0,0.0,0.0,0.0,0.0,0.0,0.0,0.0,0.0,0.0,0.0,0.0,0.0,0.0,0.0,0.0,0.0,0.0,0.0,0.0,0.0,0.0,0.0,0.0,0.0,0.0,0.0,0.0,0.0,0.0,0.0,0.0,0.0,0.0,0.0,0.0,0.0,0.0,0.0,0.0,0.0,0.0,0.0,0.0,0.0,0.0,0.0,0.0,0.0,0.0,0.0,0.0,0.0,0.0,0.0,0.0,0.0,0.0,0.0,0.0,0.0,0.0,0.0,0.0,0.0,0.0,0.0,0.0,0.0,0.0,0.0,0.0,0.0,0.0,0.0,0.0,0.0,0.0,0.0,0.0,0.0,0.0,0.0,0.0,0.0,0.0,0.0,1.9302,2.087,2.2781,2.4208,2.4676,2.3851,2.2394,2.0788,1.9101,1.7558,0.0,0.0,0.0,0.0,0.0,0.0,0.0,0.0,0.0,0.0,0.0,0.0,0.0,0.0,0.0,0.0,0.0,0.0,0.0,0.0,0.0,0.0,0.0,0.0,0.0,0.0,0.0,0.0,0.0,0.0,0.0,0.0,0.0,0.0,0.0,0.0,0.0,0.0,0.0,0.0,0.0,0.0,0.0,0.0,0.0,0.0,0.0,0.0,0.0,0.0,0.0,0.0,0.0,0.0,0.0,0.0,0.0,0.0,0.0,0.0,0.0,0.0,0.0,0.0,0.0,0.0,0.0,0.0,0.0,0.0,0.0,0.0,0.0,0.0,0.0,0.0,0.0,0.0,0.0,0.0,0.0,0.0,0.0,0.0,0.0,0.0,0.0,0.0,0.0,0.0,0.0,0.0,0.0,0.0,0.0,0.0,0.0,0.0,0.0,0.0,0.0,0.0,1.9178,2.0234,2.2725,2.316,2.2927,2.2058,2.1177,1.9933,1.8203,1.7217,0.0,0.0,0.0,0.0,0.0,0.0,0.0,0.0,0.0,0.0,0.0,0.0,0.0,0.0,0.0,0.0,0.0,0.0,0.0,0.0,0.0,0.0,0.0,0.0,0.0,0.0,0.0,0.0,0.0,0.0,0.0,0.0,0.0,0.0,0.0,0.0,0.0,0.0,0.0,0.0,0.0,0.0,0.0,0.0,0.0,0.0,0.0,0.0,0.0,0.0,0.0,0.0,0.0,0.0,0.0,0.0,0.0,0.0,0.0,0.0,0.0,0.0,0.0,0.0,0.0,0.0,0.0,0.0,0.0,0.0,0.0,0.0,0.0,0.0,0.0,0.0,0.0,0.0,0.0,0.0,0.0,0.0,0.0,0.0,0.0,0.0,0.0,0.0,0.0,0.0,0.0,0.0,0.0,0.0,0.0,0.0,0.0,0.0,0.0,0.0,0.0,0.0,1.8848,1.9976,2.2024,2.2262,2.1933,2.1054,1.9745,1.8476,1.7266,0.0,0.0,0.0,0.0,0.0,0.0,0.0,0.0,0.0,0.0,0.0,0.0,0.0,0.0,0.0,0.0,0.0,0.0,0.0,0.0,0.0,0.0,0.0,0.0,0.0,0.0,0.0,0.0,0.0,0.0,0.0,0.0,0.0,0.0,0.0,0.0,0.0,0.0,0.0,0.0,0.0,0.0,0.0,0.0,0.0,0.0,0.0,0.0,0.0,0.0,0.0,0.0,0.0,0.0,0.0,0.0,0.0,0.0,0.0,0.0,0.0,0.0,0.0,0.0,0.0,0.0,0.0,0.0,0.0,0.0,0.0,0.0,0.0,0.0,0.0,0.0,0.0,0.0,0.0,0.0,0.0,0.0,0.0,0.0,0.0,0.0,0.0,0.0,0.0,0.0,0.0,0.0,0.0,0.0,0.0,0.0,0.0,0.0,0.0,0.0,0.0,0.0,1.7714,1.8663,1.966,2.0841,2.0967,2.0515,1.9367,1.8472,1.7497,1.6363,0.0,0.0,0.0,0.0,0.0,0.0,0.0,0.0,0.0,0.0,0.0,0.0,0.0,0.0,0.0,0.0,0.0,0.0,0.0,0.0,0.0,0.0,0.0,0.0,0.0,0.0,0.0,0.0,0.0,0.0,0.0,0.0,0.0,0.0,0.0,0.0,0.0,0.0,0.0,0.0,0.0,0.0,0.0,0.0,0.0,0.0,0.0,0.0,0.0,0.0,0.0,0.0,0.0,0.0,0.0,0.0,0.0,0.0,0.0,0.0,0.0,0.0,0.0,0.0,0.0,0.0,0.0,0.0,0.0,0.0,0.0,0.0,0.0,0.0,0.0,0.0,0.0,0.0,0.0,0.0,0.0,0.0,0.0,0.0,0.0,0.0,0.0,0.0,0.0,0.0,0.0,0.0,0.0,0.0,0.0,0.0,0.0,0.0,0.0,0.0,0.0,0.0,1.7799,1.8663,1.9197,1.9211,1.9211,1.8509,1.6765,1.7396,1.7189,0.0,0.0,0.0,0.0,0.0,0.0,0.0,0.0,0.0,0.0,0.0,0.0,0.0,0.0,0.0,0.0,0.0,0.0,0.0,0.0,0.0,0.0,0.0,0.0,0.0,0.0,0.0,0.0,0.0,0.0,0.0,0.0,0.0,0.0,0.0,0.0,0.0,0.0,0.0,0.0,0.0,0.0,0.0,0.0,0.0,0.0,0.0,0.0,0.0,0.0,0.0,0.0,0.0,0.0,0.0,0.0,0.0,0.0,0.0,0.0,0.0,0.0,0.0,0.0,0.0,0.0,0.0,0.0,0.0,0.0,0.0,0.0,0.0,0.0,0.0,0.0,0.0,0.0,0.0,0.0,0.0,0.0,0.0,0.0,0.0,0.0,0.0,0.0,0.0,0.0,0.0,0.0,0.0,0.0,0.0,0.0,0.0,0.0,0.0,0.0,0.0,0.0,0.0,1.7796,1.8671,1.9439,2.0041,1.9573,1.8741,1.7602,1.7742,1.717,1.5513,0.0,0.0,0.0,0.0,0.0,0.0,0.0,0.0,0.0,0.0,0.0,0.0,0.0,0.0,0.0,0.0,0.0,0.0,0.0,0.0,0.0,0.0,0.0,0.0,0.0,0.0,0.0,0.0,0.0,0.0,0.0,0.0,0.0,0.0,0.0,0.0,0.0,0.0,0.0,0.0,0.0,0.0,0.0,0.0,0.0,0.0,0.0,0.0,0.0,0.0,0.0,0.0,0.0,0.0,0.0,0.0,0.0,0.0,0.0,0.0,0.0,0.0,0.0,0.0,0.0,0.0,0.0,0.0,0.0,0.0,0.0,0.0,0.0,0.0,0.0,0.0,0.0,0.0,0.0,0.0,0.0,0.0,0.0,0.0,0.0,0.0,0.0,0.0,0.0,0.0,0.0,0.0,0.0,0.0,0.0,0.0,0.0,0.0,0.0,0.0,0.0,0.0,1.7835,1.8954,1.9793,1.9968,1.9502,1.8857,1.7965,1.8189,1.7801,1.6441,0.0,0.0,0.0,0.0,0.0,0.0,0.0,0.0,0.0,0.0,0.0,0.0,0.0,0.0,0.0,0.0,0.0,0.0,0.0,0.0,0.0,0.0,0.0,0.0,0.0,0.0,0.0,0.0,0.0,0.0,0.0,0.0,0.0,0.0,0.0,0.0,0.0,0.0,0.0,0.0,0.0,0.0,0.0,0.0,0.0,0.0,0.0,0.0,0.0,0.0,0.0,0.0,0.0,0.0,0.0,0.0,0.0,0.0,0.0,0.0,0.0,0.0,0.0,0.0,0.0,0.0,0.0,0.0,0.0,0.0,0.0,0.0,0.0,0.0,0.0,0.0,0.0,0.0,0.0,0.0,0.0,0.0,0.0,0.0,0.0,0.0,0.0,0.0,0.0,0.0,0.0,0.0,0.0,0.0,0.0,0.0,0.0,0.0,0.0,0.0,0.0,0.0,1.7893,1.9405,2.0187,1.94,1.9303,1.8964,1.8092,1.8741,1.8813,1.7868,0.0,0.0,0.0,0.0,0.0,0.0,0.0,0.0,0.0,0.0,0.0,0.0,0.0,0.0,0.0,0.0,0.0,0.0,0.0,0.0,0.0,0.0,0.0,0.0,0.0,0.0,0.0,0.0,0.0,0.0,0.0,0.0,0.0,0.0,0.0,0.0,0.0,0.0,0.0,0.0,0.0,0.0,0.0,0.0,0.0,0.0,0.0,0.0,0.0,0.0,0.0,0.0,0.0,0.0,0.0,0.0,0.0,0.0,0.0,0.0,1.804,1.7459,0.0,0.0,0.0,0.0,0.0,0.0,0.0,0.0,0.0,0.0,0.0,0.0,0.0,0.0,0.0,0.0,0.0,0.0,0.0,0.0,0.0,0.0,0.0,0.0,0.0,0.0,0.0,0.0,0.0,0.0,0.0,0.0,0.0,0.0,0.0,0.0,0.0,0.0,0.0,0.0,1.7898,1.9333,2.0283,2.0169,2.0131,1.9787,1.8925,1.9638,1.9453,1.7907,1.844,0.0,0.0,0.0,0.0,0.0,0.0,0.0,0.0,0.0,0.0,0.0,0.0,0.0,0.0,0.0,0.0,0.0,0.0,0.0,0.0,0.0,0.0,0.0,0.0,0.0,0.0,0.0,0.0,0.0,0.0,0.0,0.0,0.0,0.0,0.0,0.0,0.0,0.0,0.0,0.0,0.0,0.0,0.0,0.0,0.0,0.0,0.0,0.0,0.0,0.0,0.0,0.0,0.0,0.0,0.0,0.0,0.0,0.0,0.0,1.8798,1.8123,0.0,0.0,0.0,0.0,0.0,0.0,0.0,0.0,0.0,0.0,0.0,0.0,0.0,0.0,0.0,0.0,0.0,0.0,0.0,0.0,0.0,0.0,0.0,0.0,0.0,0.0,0.0,0.0,0.0,0.0,0.0,0.0,0.0,0.0,0.0,0.0,0.0,0.0,0.0,0.0,1.8472,1.9588,2.036,2.0404,2.0359,2.0153,1.9671,2.0044,1.9889,1.8927,1.8889,0.0,0.0,0.0,0.0,0.0,0.0,0.0,0.0,0.0,0.0,0.0,0.0,0.0,0.0,0.0,0.0,0.0,0.0,0.0,0.0,0.0,0.0,0.0,0.0,0.0,0.0,0.0,0.0,0.0,0.0,0.0,0.0,0.0,0.0,0.0,0.0,0.0,0.0,0.0,0.0,0.0,0.0,0.0,0.0,0.0,0.0,0.0,0.0,0.0,0.0,0.0,0.0,0.0,1.9759,2.0133,2.0861,2.157,2.1909,2.1798,1.9699,1.9079,1.945,1.8061,0.0,0.0,0.0,0.0,0.0,0.0,0.0,0.0,0.0,0.0,0.0,0.0,0.0,0.0,0.0,0.0,0.0,0.0,0.0,0.0,0.0,0.0,1.9847,1.9854,2.0966,2.1854,2.1299,0.0,0.0,0.0,0.0,0.0,0.0,0.0,0.0,0.0,0.0,0.0,1.9076,1.987,2.0354,2.0366,2.0328,2.0255,2.0196,2.02,2.0131,2.0012,1.9316,1.8848,0.0,0.0,0.0,0.0,0.0,0.0,0.0,0.0,0.0,0.0,0.0,0.0,0.0,0.0,0.0,0.0,0.0,0.0,0.0,0.0,0.0,0.0,0.0,0.0,0.0,0.0,0.0,0.0,0.0,0.0,0.0,0.0,1.9954,2.0773,0.0,0.0,0.0,0.0,0.0,0.0,0.0,0.0,0.0,0.0,0.0,0.0,0.0,2.032,2.1101,2.1854,2.2286,2.2404,2.2404,2.2462,2.2578,2.2681,2.274,2.2713,2.2384,0.0,2.134,2.112,0.0,0.0,0.0,0.0,0.0,0.0,0.0,0.0,0.0,0.0,0.0,0.0,0.0,0.0,0.0,0.0,0.0,0.0,0.0,0.0,0.0,0.0,2.2429,2.2488,2.2673,2.3014,2.3668,2.2146,2.0837,2.1362,2.0806,2.0175,0.0,0.0,0.0,0.0,0.0,0.0,1.9014,1.9692,2.0161,2.0227,2.0211,2.0203,2.0208,2.02,2.0131,2.0012,1.9839,1.9677,1.9551,1.9438,0.0,0.0,0.0,0.0,0.0,0.0,0.0,0.0,0.0,0.0,0.0,0.0,0.0,0.0,0.0,0.0,0.0,0.0,0.0,0.0,0.0,0.0,0.0,0.0,0.0,0.0,0.0,0.0,0.0,1.7982,1.9201,1.9639,1.8971,1.8078,0.0,0.0,0.0,0.0,0.0,0.0,0.0,0.0,0.0,2.0373,2.1255,2.1903,2.2332,2.3202,2.3628,2.3635,2.4138,2.435,2.435,2.4358,2.4365,2.4365,2.4365,2.3908,2.3089,2.2107,2.1196,2.0357,0.0,0.0,0.0,0.0,2.0482,2.1235,2.0886,2.0768,2.0745,2.0646,0.0,0.0,0.0,0.0,0.0,0.0,0.0,2.0488,2.1003,2.2041,2.3081,2.3614,2.4102,2.4423,2.4321,2.3426,2.2734,2.3047,2.1658,2.0405,2.0445,1.9312,0.0,0.0,0.0,1.9349,2.034,2.0273,2.0361,2.0875,2.0457,2.0124,2.0087,2.0088,2.0039,1.9904,1.9821,1.9895,2.0133,2.0119,2.0114,0.0,0.0,0.0,0.0,0.0,0.0,0.0,0.0,0.0,0.0,0.0,0.0,0.0,0.0,0.0,0.0,0.0,0.0,0.0,0.0,0.0,0.0,0.0,0.0,0.0,0.0,0.0,0.0,1.8447,1.9106,1.9198,1.9348,1.8758,0.0,0.0,0.0,0.0,0.0,0.0,1.9716,2.0393,2.1175,2.2081,2.278,2.3257,2.3516,2.4401,2.4834,2.4853,2.5519,2.582,2.5801,2.5592,2.5503,2.5495,2.5503,2.5168,2.451,2.2966,2.1836,2.0992,2.0351,2.0488,2.1074,2.1065,2.1891,2.2993,2.3007,2.3003,2.2927,2.2499,2.1776,2.0931,2.0286,0.0,0.0,0.0,0.0,2.1248,2.2119,2.2823,2.3533,2.443,2.5138,2.5425,2.4746,2.4457,2.4297,2.4266,2.2511,2.1058,2.1075,1.9796,0.0,1.9706,1.9716,2.0188,2.1685,2.1262,2.106,2.1712,2.1168,2.0709,2.0678,2.0622,2.0538,2.0427,2.0337,2.054,2.1088,2.1141,2.1366,2.1825,0.0,0.0,0.0,0.0,0.0,0.0,0.0,0.0,0.0,0.0,0.0,0.0,0.0,0.0,0.0,0.0,0.0,0.0,0.0,0.0,0.0,0.0,0.0,0.0,0.0,0.0,0.0,0.0,0.0,2.1157,2.1828,0.0,0.0,0.0,0.0,2.0661,2.1658,2.2258,2.2308,2.2486,2.294,2.3755,2.3957,2.4407,2.5167,2.6116,2.6566,2.6586,2.6676,2.6688,2.6605,2.5839,2.5498,2.5495,2.5505,2.5506,2.546,2.4471,2.3597,2.2866,2.2827,2.2825,2.2877,2.2861,2.2929,2.3007,2.2999,2.3007,2.3132,2.39,2.3584,2.2868,2.2809,2.2229,0.0,0.0,2.21,2.2977,2.3844,2.4103,2.4387,2.5317,2.5565,2.5576,2.5454,2.4832,2.4255,2.4138,2.3383,2.2765,2.2694,0.0,2.1415,2.148,2.1417,2.1677,2.2546,2.2546,2.2496,2.2534,2.2501,2.2467,2.2475,2.2281,2.2147,2.2079,2.1969,2.2152,2.274,2.2721,2.2702,2.2737,2.2737,0.0,0.0,0.0,0.0,0.0,0.0,0.0,0.0,0.0,0.0,0.0,0.0,0.0,0.0,0.0,0.0,0.0,0.0,0.0,0.0,0.0,0.0,0.0,0.0,0.0,0.0,0.0,0.0,2.0394,2.1506,0.0,1.99,2.1054,2.1676,2.1128,2.2521,2.3411,2.3403,2.3445,2.4128,2.5527,2.5617,2.603,2.6836,2.7734,2.7629,2.6582,2.7171,2.6843,2.5746,2.6114,2.6262,2.6304,2.6907,2.6896,2.6411,2.6036,2.5078,2.3844,2.3839,2.384,2.3844,2.3845,2.454,2.544,2.4869,2.5038,2.5382,2.4566,2.4094,2.3725,2.3162,2.3176,2.3378,2.3333,2.3928,2.4752,2.5592,2.5782,2.5962,2.6867,2.7075,2.6931,2.6386,2.6047,2.564,2.4996,2.3763,2.301,2.3543,2.2932,2.2376,2.2369,2.2321,2.2566,2.337,2.2965,2.28,2.3381,2.2917,2.2589,2.2547,2.2382,2.226,2.221,2.207,2.2181,2.2626,2.2736,2.295,2.325,2.3392,2.2384,0.0,0.0,0.0,0.0,0.0,0.0,0.0,0.0,0.0,0.0,0.0,0.0,0.0,0.0,0.0,0.0,0.0,0.0,0.0,0.0,0.0,0.0,0.0,0.0,0.0,2.0984,2.207,2.0989,2.2473,2.29,2.1172,2.2621,2.3354,2.2538,2.4124,2.5106,2.5111,2.5111,2.5645,2.6791,2.6866,2.7127,2.765,2.8549,2.844,2.7347,2.795,2.7624,2.6499,2.6921,2.6947,2.6697,2.7326,2.728,2.6772,2.6454,2.6013,2.5452,2.4949,2.4729,2.4735,2.4741,2.5659,2.6864,2.6553,2.6825,2.7077,2.564,2.5174,2.5018,2.4144,2.4494,2.5168,2.513,2.5718,2.6455,2.6973,2.7064,2.7181,2.7749,2.7913,2.7776,2.7217,2.7116,2.6942,2.6275,2.4782,2.373,2.4021,2.3592,2.3103,2.2821,2.2959,2.3294,2.3828,2.3632,2.3667,2.4236,2.3781,2.336,2.3214,2.2897,2.2731,2.2853,2.255,2.2518,2.2826,2.2805,2.289,2.3093,2.2389,2.1813,2.1387,0.0,0.0,0.0,0.0,0.0,0.0,0.0,0.0,0.0,0.0,0.0,0.0,0.0,0.0,0.0,0.0,0.0,0.0,0.0,0.0,0.0,0.0,0.0,2.1574,2.2374,2.3122,2.3192,2.4928,2.5495,2.3856,2.5263,2.5944,2.5129,2.6588,2.7532,2.7513,2.7494,2.7513,2.7551,2.7599,2.7641,2.766,2.8581,2.9021,2.8995,2.9056,2.9048,2.8929,2.8258,2.747,2.6689,2.6718,2.6708,2.6631,2.585,2.6458,2.775,2.6229,2.5653,2.5673,2.5673,2.6203,2.7039,2.7854,2.812,2.7964,2.7194,2.6941,2.6786,2.5925,2.6255,2.6909,2.6769,2.7346,2.7987,2.7981,2.7981,2.7981,2.8019,2.8058,2.8075,2.7961,2.7981,2.7971,2.7819,2.6496,2.51,2.4225,2.407,2.3793,2.2911,2.3437,0.0,2.3932,2.4622,2.5082,2.5063,2.4994,2.4855,2.4576,2.3911,2.3662,2.408,2.3492,2.3235,2.3486,2.3053,2.2672,2.2313,1.9856,1.9434,2.1199,0.0,0.0,0.0,0.0,0.0,0.0,0.0,0.0,0.0,0.0,0.0,0.0,0.0,0.0,0.0,0.0,0.0,0.0,0.0,0.0,0.0,2.2181,2.3206,2.3055,2.447,2.555,2.5629,2.6247,2.6486,2.6038,2.7093,2.7443,2.6653,2.7641,2.8029,2.7406,2.7449,2.7778,2.8351,2.8385,2.8666,2.9254,2.9578,2.9436,2.8846,2.893,2.8599,2.7994,2.8533,2.8606,2.8384,2.9049,2.9022,2.8463,2.8251,2.8048,2.7798,2.6745,2.6738,2.7338,2.7338,2.7523,2.7893,2.8748,2.8625,2.8061,2.7828,2.7743,2.7648,2.7416,2.7473,2.7623,2.7576,2.7711,2.8142,2.9378,2.9685,2.9802,3.0436,3.0614,3.0256,2.8919,2.8638,2.8478,2.7847,2.7362,2.678,2.5948,2.5814,2.5527,2.4654,2.47,2.4831,2.4774,2.496,2.4828,2.4157,2.4075,2.3944,2.369,2.3425,2.3466,2.3928,2.3662,2.3336,2.3076,2.3094,2.2982,2.2744,2.1388,2.0859,0.0,0.0,0.0,0.0,0.0,0.0,0.0,0.0,0.0,0.0,0.0,0.0,0.0,0.0,0.0,0.0,0.0,0.0,0.0,0.0,0.0,0.0,2.3942,2.5067,2.5743,2.6688,2.7492,2.789,2.7816,2.774,2.774,2.7993,2.7941,2.7494,2.8372,2.8707,2.8201,2.8324,2.8652,2.9158,2.9158,2.9401,2.9888,2.994,2.9709,2.9254,2.933,2.9112,2.8674,2.9243,2.9315,2.8989,2.9524,2.9521,2.9048,2.8703,2.8683,2.876,0.0,0.0,0.0,0.0,2.8528,2.8686,2.9528,2.9481,2.9016,2.8667,2.8517,2.8424,2.8076,2.8193,2.8434,2.8434,2.8653,2.9124,3.0141,3.0606,3.0893,3.1027,3.1309,3.1174,2.9754,2.9467,2.9346,2.8842,2.8746,0.0,2.7644,2.6929,2.6048,2.4851,2.4901,2.4936,2.4512,2.4693,2.4629,2.4086,2.3986,2.3861,2.3615,2.3266,0.0,0.0,0.0,2.295,2.2534,2.2538,0.0,0.0,0.0,2.1351,2.1329,2.0998,0.0,0.0,2.024,2.0158,0.0,0.0,0.0,0.0,0.0,0.0,0.0,0.0,0.0,0.0,0.0,0.0,0.0,0.0,0.0,0.0,2.6224,2.7656,2.8795,2.8805,2.8973,2.9773,2.941,2.9064,2.8991,2.8433,2.7966,2.7803,2.882,2.9444,2.9351,2.9699,0.0,0.0,0.0,2.9903,2.9971,2.9876,2.982,2.982,2.9983,3.0051,3.0022,3.0129,2.9722,2.897,2.8984,2.9017,2.896,2.8248,2.8821,3.0032,2.8695,2.8163,2.8259,2.9051,2.9331,2.9447,3.0151,0.0,0.0,2.9562,2.9321,2.9175,2.8413,2.8702,2.9319,2.9434,2.9965,3.0574,3.0766,3.1345,3.1668,3.0803,3.1149,3.1402,3.0398,3.0253,3.0266,3.0207,3.0207,2.9926,2.9044,2.7669,2.6116,2.4435,2.4778,2.4864,2.3869,2.4276,2.458,2.4348,2.4223,0.0,2.385,2.3234,2.2988,2.3259,2.2799,2.2384,2.2084,2.1819,2.1576,2.1334,2.1307,2.1357,2.1479,2.173,2.1624,2.1183,2.0627,2.0512,0.0,0.0,0.0,0.0,0.0,0.0,0.0,0.0,0.0,0.0,0.0,0.0,0.0,0.0,0.0,2.4829,2.6489,2.8133,2.9726,2.9884,2.9935,3.0176,3.0338,3.0197,2.96,2.958,2.904,2.7753,2.909,2.9692,2.9034,3.0319,3.1094,3.1162,3.059,3.0318,3.0383,2.9734,2.9418,2.9437,3.0149,0.0,2.9551,3.0265,3.0114,2.9326,2.959,2.9674,2.962,2.952,2.9671,2.995,2.9877,2.9848,2.986,3.0081,3.0171,3.019,3.0344,3.0402,3.0364,3.0229,3.0128,3.0059,2.9886,2.9921,0.0,3.0852,3.1158,3.1607,3.3025,3.3506,3.3415,3.2583,3.2513,3.2179,3.0538,3.0199,3.0232,3.0199,3.0199,2.9917,2.9055,2.863,2.7841,2.6173,2.6626,2.6529,2.4795,2.5246,2.5086,2.3467,2.3269,2.3144,2.2892,2.2727,2.2815,2.3116,2.2788,2.2565,2.2488,2.2346,2.2211,2.2184,2.1967,2.1848,2.1882,2.2408,2.2613,2.2518,2.1708,2.1601,0.0,0.0,0.0,0.0,0.0,0.0,0.0,0.0,0.0,0.0,0.0,2.1292,2.2517,0.0,2.5278,2.7128,2.8294,2.9337,3.0369,3.083,3.1086,3.118,3.1016,3.0843,3.0711,3.043,2.9909,2.9124,2.9906,3.0283,2.9864,3.0739,3.1304,3.1403,3.1035,3.0701,3.0354,3.0009,2.9662,2.9254,2.9725,2.9748,2.9358,2.9788,2.9771,2.9399,2.9607,2.968,2.9661,2.9734,2.9751,2.9769,3.0011,3.0161,3.026,3.0292,3.0304,3.0304,3.0304,3.0304,3.0304,3.0304,3.0279,3.0324,3.0764,3.0571,3.0466,3.1771,3.1862,3.1851,3.3205,3.3826,3.3799,3.2532,3.2497,3.2269,3.0534,3.0142,3.0147,3.0147,3.0471,3.0475,2.9641,2.9753,2.9232,2.7125,2.7119,2.6789,2.529,2.5355,2.4986,2.3544,2.3358,2.3277,2.3106,2.2954,2.2934,2.3084,2.2816,2.2632,2.2605,2.2542,2.246,2.2366,2.25,2.258,2.2491,2.3136,2.3486,2.3501,2.3041,2.2979,0.0,0.0,0.0,0.0,0.0,0.0,0.0,2.0193,2.0681,2.1474,2.2188,2.3351,2.5438,2.6102,2.7005,2.9158,2.9947,3.0342,3.0601,3.12,3.1662,3.1858,3.1446,3.1199,3.1469,3.0867,3.0371,3.007,3.0481,3.0689,3.0545,3.1034,3.1383,3.1519,3.1445,3.113,3.0558,3.0496,3.0157,2.9535,2.9603,2.9536,2.9394,2.9416,2.9344,2.9237,2.9358,2.9418,2.9456,2.9551,2.957,2.957,2.9751,3.0051,3.0308,3.0228,3.03,3.0433,3.0261,3.0204,3.0204,3.0204,3.0204,3.0319,3.1026,3.0758,3.0524,3.21,3.2089,3.1776,3.2699,3.3506,3.3686,3.2152,3.2335,3.2419,3.0914,3.0579,3.0525,3.0373,3.0868,3.1042,3.0174,3.0555,3.0167,2.7811,2.7467,2.7009,2.5777,2.5612,2.5187,2.4107,2.3952,2.3813,2.3603,2.3313,2.3119,2.3052,2.2825,2.2632,2.2525,2.248,2.2415,2.231,2.2765,2.3029,2.3106,2.3732,2.4099,2.4232,2.4447,2.448,1.5294,1.5481,1.6984,1.9502,2.0229,2.1151,0.0,2.4473,2.4191,2.5041,2.5756,2.6308,2.6545,2.7632,2.854,2.8867,2.9561,3.006,3.0087,3.0254,3.0551,3.1044,3.1422,3.1353,3.0716,3.056,2.9937,2.8541,2.9764,3.0266,2.9591,3.1233,3.2206,3.2287,3.1934,3.1768,3.1802,3.1099,3.0757,3.0704,3.0731,3.0377,2.9748,2.9799,2.9416,2.87,2.8948,2.9126,2.9251,2.9437,2.9456,2.9355,2.957,3.0077,3.0696,3.0331,3.0682,3.1236,3.0472,3.0204,3.0204,3.0204,3.0204,3.0223,3.0319,3.028,3.0395,3.1365,3.1575,3.169,3.2526,3.3318,3.3688,3.2718,3.3105,3.3418,3.2523,3.2317,3.2088,3.1309,3.1232,3.0975,2.992,3.0394,3.0337,2.8602,2.8783,2.846,2.6615,2.6976,2.6699,2.4877,2.4664,2.4354,2.357,2.336,2.3168,2.2944,2.2747,2.2473,2.2153,2.2113,2.2158,2.2377,2.2214,2.2567,2.3451,2.3936,2.4381,2.4771,2.5744,2.5882,1.7344,1.7963,1.9185,2.1146,2.3075,2.4802,2.5873,2.6626,2.7369,2.8183,2.8878,2.9447,2.9843,3.0011,3.0124,3.002,3.068,3.0904,3.006,3.0391,3.0516,2.9914,2.9699,3.0002,3.1089,3.1194,3.0936,3.0281,3.0833,3.1057,3.0764,3.153,3.1967,3.2003,3.183,3.1547,3.1124,3.0823,3.0501,3.0154,3.0154,3.0057,2.984,2.9378,2.9016,2.877,2.8434,2.8629,2.9148,2.943,2.9562,2.9672,3.0497,3.1038,3.1269,3.0242,3.0452,3.1159,3.0304,3.0094,3.0204,3.0204,3.0204,3.028,3.0796,3.093,3.1083,3.1913,3.2176,3.2271,3.2569,3.2893,3.3045,3.2689,3.2828,3.2947,3.2607,3.2514,3.2196,3.1202,3.1411,3.1261,2.964,3.0355,3.0713,2.9499,2.9632,2.9337,2.7845,2.7549,2.6952,2.5602,2.533,2.4867,2.3947,2.3649,2.3223,2.2544,2.2337,2.2198,2.2039,2.201,2.2027,2.2118,2.2809,2.3268,2.3503,2.4527,2.5075,2.5151,2.5628,2.5721,1.8253,1.9456,2.0825,2.267,2.5243,2.7327,2.72,2.8339,2.9536,2.9899,3.0461,3.0946,3.1286,3.1021,3.0725,3.0635,3.0981,3.0949,3.0048,3.0057,2.9835,2.8962,2.8298,2.8685,3.0649,3.0938,3.1117,3.1338,3.1338,3.1355,3.1376,3.1452,3.1528,3.1528,3.164,3.1401,3.0833,3.0887,3.0663,3.0213,2.9797,2.9777,3.0101,2.9266,2.8966,2.9057,2.8328,2.84,2.9012,2.9068,2.9179,2.9376,3.0289,3.0851,3.1001,2.9715,3.015,3.1259,3.0445,3.0246,3.0377,3.0377,3.0407,3.0609,3.147,3.1562,3.1535,3.2362,3.2454,3.2359,3.2559,3.2597,3.2575,3.258,3.2511,3.246,3.2371,3.2505,3.2241,3.0935,3.153,3.1558,2.9377,3.0442,3.1243,3.0285,3.0462,3.0225,2.8935,2.7857,2.6943,2.6218,2.5764,2.5182,2.4417,2.3919,2.3306,2.249,2.2157,2.2024,2.2152,2.2122,2.2192,2.2421,2.3405,2.3901,2.3844,2.485,2.5303,2.5253,2.5368,2.5313,1.6583,1.8369,2.0585,2.3659,2.5681,2.7344,2.902,3.0005,3.0332,2.9565,2.9862,3.0037,2.931,2.9608,2.9951,2.9935,2.9624,2.9534,2.993,2.8713,2.7987,2.8469,2.7885,2.7724,2.8506,2.9066,2.9683,3.0393,3.0443,3.0485,3.051,3.0861,3.1044,3.1123,3.149,3.1714,3.1642,3.1679,3.1699,3.1738,3.0283,3.0005,3.0751,2.9935,2.9588,2.9535,2.8868,2.8631,2.8658,2.8088,2.7904,2.7961,2.8007,2.8637,2.9485,2.8639,2.9908,3.1936,3.1072,3.079,3.0772,3.0772,3.0903,3.1218,3.2033,3.1819,3.148,3.2355,3.1993,3.1537,3.2374,3.2547,3.2495,3.2495,3.246,3.2334,3.2067,3.2643,3.2614,3.0695,3.1602,3.1832,2.9174,3.0698,3.1937,3.0916,3.1427,3.1355,2.9689,2.8013,2.697,2.6792,2.584,2.5147,2.4994,2.407,2.3379,2.31,2.2341,2.2096,2.2476,2.2411,2.2802,2.3737,2.3703,2.4064,2.4738,2.4734,2.4786,2.4942,2.5313,2.5098,1.7718,2.0088,2.2399,2.4993,2.7595,2.9727,3.0326,3.0865,3.1094,3.0444,2.9557,2.8545,2.7484,2.7652,2.7783,2.7415,2.8367,2.909,2.8919,2.8436,2.7953,2.7687,2.7047,2.6863,2.7578,2.8279,2.9134,3.0182,2.9941,2.9881,3.0274,3.0384,3.0468,3.0493,3.0699,3.0821,3.0821,3.0885,3.0965,3.1067,3.0142,2.9316,2.8535,2.8352,2.8557,2.8929,2.7708,2.7794,2.8715,2.8278,2.8126,2.832,2.907,2.9237,2.9147,2.949,2.9817,3.0064,2.9773,2.9768,2.9961,3.0484,3.0711,3.0919,3.1723,3.2177,3.2388,3.2084,3.2197,3.2349,3.2079,3.1986,3.2079,3.2577,3.2664,3.2769,3.3175,3.3462,3.3259,3.1829,3.2015,3.2055,3.089,3.1851,3.2829,3.2961,3.2348,3.1285,2.9679,2.8774,2.7994,2.7332,2.6649,2.5951,2.5205,2.4709,2.39,2.2719,2.2834,2.2785,2.2459,2.2897,2.3169,2.331,2.3794,2.404,2.3988,2.4411,2.4579,2.4492,2.4639,2.4574,1.9275,2.1849,2.4353,2.65,2.8748,3.0421,3.0421,3.0503,3.0274,2.9256,2.7947,2.6699,2.5497,2.5558,2.561,2.5136,2.6035,2.6943,2.7226,2.6779,2.6589,2.7233,2.6699,2.6563,2.7233,2.772,2.8478,2.9512,2.9287,2.9241,2.9633,2.9633,2.9633,2.9677,2.9766,2.981,2.981,2.9837,2.9794,2.9577,2.9466,2.8617,2.7212,2.7552,2.7876,2.8063,2.6862,2.6937,2.7805,2.7498,2.7555,2.793,2.8555,2.8728,2.8635,2.8956,2.882,2.8541,2.8967,2.9428,2.9945,3.0462,3.096,3.15,3.227,3.2706,3.2887,3.2576,3.2669,3.2841,3.2562,3.2265,3.2173,3.2662,3.2545,3.2404,3.2794,3.3091,3.2948,3.1818,3.2303,3.2679,3.1839,3.263,3.3555,3.4026,3.3123,3.1845,3.0279,2.9395,2.8588,2.7719,2.7043,2.6354,2.5544,2.5038,2.4288,2.3237,2.3349,2.3381,2.3068,2.3503,2.3751,2.3771,2.4254,2.4325,2.3975,2.4371,2.4508,2.4302,2.4302,2.4302,2.1017,2.3595,2.6148,2.8124,2.9095,2.9595,2.9537,2.9058,2.8028,2.6083,2.5179,2.4388,2.3172,2.334,2.3485,2.3061,2.2985,2.3531,2.5256,2.4149,2.4221,2.722,2.6996,2.6862,2.7509,2.7503,2.7755,2.8427,2.8493,2.8558,2.8732,2.8636,2.8667,2.8794,2.8794,2.8794,2.8794,2.8748,2.8373,2.761,2.8311,2.7967,2.6816,2.752,2.7576,2.7105,2.6427,2.6165,2.619,2.5945,2.6248,2.6864,2.6607,2.7111,2.7896,2.7214,2.7169,2.7635,2.8687,2.975,3.06,3.0718,3.1601,3.2768,3.3523,3.3316,3.2945,3.3652,3.3294,3.2907,3.367,3.3276,3.2723,3.2716,3.2065,3.1396,3.1147,3.1701,3.1913,3.082,3.2513,3.3636,3.2072,3.3105,3.4155,3.4155,3.3793,3.2915,3.1317,2.9828,2.8679,2.7947,2.701,2.6329,2.6026,2.5082,2.4531,2.4482,2.3916,2.3761,2.4191,2.4233,2.4477,2.495,2.4966,2.4846,2.4589,2.4589,2.4467,2.4302,2.4302,2.4302,2.2665,2.4582,2.621,2.8154,2.9106,2.9462,2.9016,2.8057,2.6721,2.4664,2.2605,2.0893,1.9819,2.0606,2.1496,2.1801,2.3511,2.5357,2.6923,2.6747,2.6977,2.8261,2.8247,2.8217,2.8378,2.8269,2.8199,2.8418,2.8442,2.8688,2.9123,2.9535,2.9797,2.9847,2.9898,2.9964,2.9964,2.957,2.8763,2.761,2.7782,2.7408,2.6567,2.6754,2.7063,2.7449,2.6729,2.6773,2.73,2.6735,2.6646,2.6888,2.6887,2.7283,2.7822,2.7717,2.7914,2.833,2.8623,2.8885,2.9308,3.0743,3.1444,3.1936,3.2955,3.3164,3.3067,3.3266,3.3146,3.3038,3.3266,3.3146,3.3002,3.2961,3.2769,3.2547,3.2445,3.2576,3.2634,3.2344,3.3472,3.4231,3.3554,3.421,3.4853,3.4853,3.4233,3.3164,3.132,3.0283,2.9172,2.775,2.7138,2.6545,2.5761,2.5475,2.5098,2.4515,2.4692,2.4628,2.4201,2.4582,2.4792,2.471,2.471,2.4589,2.4385,2.4385,2.4343,2.4302,2.4302,2.4276,2.3755,2.5405,2.6852,2.8249,2.8627,2.8528,2.764,2.6289,2.4555,2.2255,2.0364,1.8854,1.8206,1.903,1.9852,2.0105,2.2048,2.4128,2.5814,2.6234,2.7006,2.8884,2.8973,2.8915,2.9087,2.8669,2.825,2.7952,2.8177,2.8483,2.8791,2.9119,2.9297,2.9297,2.9421,2.9475,2.9544,2.9192,2.8538,2.7644,2.7595,2.7097,2.6257,2.6257,2.6364,2.6518,2.6092,2.6199,2.6658,2.6396,2.6547,2.6884,2.6823,2.7205,2.7801,2.7729,2.7898,2.824,2.8766,2.8925,2.9107,3.0473,3.1269,3.1755,3.2345,3.2535,3.2502,3.2486,3.2486,3.2486,3.2486,3.2486,3.2504,3.2437,3.2437,3.2403,3.2317,3.2529,3.288,3.3142,3.3711,3.4194,3.4341,3.4672,3.4964,3.4922,3.4379,3.3366,3.1688,3.0874,2.9732,2.7935,2.7273,2.6547,2.5664,2.5616,2.5438,2.5017,2.5185,2.5064,2.4551,2.4721,2.471,2.4467,2.4467,2.4426,2.4302,2.4302,2.4302,2.4302,2.4036,2.4009,2.4521,2.5952,2.7471,2.8103,2.7783,2.6979,2.5841,2.4124,2.209,1.9714,1.8455,1.7731,1.7637,1.8233,1.8727,1.8805,2.0114,2.1816,2.3945,2.4609,2.5988,2.9088,2.9197,2.918,2.9373,2.8745,2.8097,2.7469,2.7886,2.8106,2.8022,2.8209,2.8324,2.8454,2.8454,2.8469,2.8498,2.8297,2.7939,2.7489,2.7293,2.6716,2.5792,2.5908,2.5668,2.5243,2.5306,2.5355,2.5389,2.5777,2.6344,2.6892,2.6673,2.7086,2.7779,2.7549,2.7582,2.7888,2.8936,2.9346,2.9492,3.0197,3.1053,3.1878,3.1806,3.1789,3.1752,3.1714,3.1677,3.1677,3.1677,3.1677,3.1677,3.1677,3.164,3.1657,3.1634,3.2214,3.2872,3.3383,3.3588,3.3877,3.4517,3.4721,3.4746,3.466,3.437,3.3629,3.2176,3.1424,3.0289,2.8303,2.7385,2.6568,2.5681,2.5524,2.5524,2.5616,2.5371,2.5123,2.491,2.471,2.4467,2.4177,2.4219,2.4219,2.4177,2.4177,2.4135,2.4094,2.3595,2.3551,2.5345,2.5889,2.6358,2.7002,2.6453,2.5376,2.4193,2.2483,2.0606,1.8569,1.7337,1.6683,1.706,1.7813,1.8836,2.0202,2.1115,2.2648,2.5549,2.6071,2.6749,2.839,2.887,2.885,2.847,2.8072,2.7759,2.7653,2.7615,2.7466,2.7211,2.8284,2.9161,2.9783,2.9783,2.9525,2.8968,2.8454,2.7641,2.6538,2.6022,2.5439,2.4761,2.5287,2.5464,2.5366,2.5877,2.6155,2.6283,2.652,2.6762,2.7004,2.7075,2.7409,2.7862,2.7837,2.8124,2.8527,2.8745,2.9096,2.9567,3.0627,3.1082,3.13,3.164,3.1714,3.1714,3.1714,3.1677,3.1677,3.1551,3.1551,3.1514,3.1473,3.1435,3.1606,3.2149,3.2827,3.3284,3.3043,3.3493,3.3874,3.3677,3.4176,3.4572,3.4525,3.4493,3.3935,3.2504,3.1682,3.0389,2.8176,2.7809,2.7127,2.5729,2.5262,2.5169,2.5578,2.5052,2.4664,2.4527,2.4574,2.4245,2.3494,2.3754,2.3754,2.348,2.348,2.3348,2.3157,2.3024,2.2875,2.5538,2.5828,2.5963,2.6375,2.5409,2.391,2.236,2.0643,1.8767,1.6856,1.6134,1.602,1.6411,1.7242,1.8148,1.903,2.0205,2.1786,2.4035,2.4955,2.5986,2.7571,2.8025,2.8182,2.8117,2.7511,2.7178,2.7152,2.6718,2.6752,2.7249,2.7891,2.8376,2.8739,2.8739,2.8639,2.8387,2.7988,2.7414,2.6533,2.6143,2.5608,2.505,2.5042,2.5025,2.507,2.5172,2.5368,2.577,2.6315,2.6762,2.7116,2.7573,2.7886,2.8178,2.8412,2.871,2.9068,2.9319,2.9353,2.9312,2.9884,3.031,3.0658,3.0845,3.0925,3.0925,3.0925,3.1211,3.1496,3.1398,3.1666,3.1893,3.1884,3.1859,3.2017,3.2673,3.3079,3.321,3.306,3.3294,3.3463,3.3289,3.3535,3.3844,3.4052,3.3866,3.3278,3.209,3.113,2.9927,2.8239,2.7971,2.7269,2.5541,2.5211,2.5014,2.4942,2.4451,2.4131,2.409,2.3979,2.3739,2.3319,2.3451,2.3451,2.3319,2.3319,2.3172,2.2889,2.2572,2.2388,2.522,2.5591,2.5763,2.5778,2.4343,2.2498,2.0777,1.8945,1.7083,1.5372,1.5198,1.5424,1.5724,1.6438,1.7137,1.7429,1.8571,2.0092,2.1983,2.3191,2.4583,2.6532,2.7053,2.7338,2.7458,2.6799,2.6321,2.6296,2.5721,2.5943,2.7136,2.7136,2.7204,2.7404,2.7404,2.7445,2.7551,2.7327,2.6895,2.6337,2.6117,2.564,2.4989,2.4681,2.46,2.4574,2.4424,2.4596,2.5074,2.5819,2.634,2.6761,2.7384,2.7764,2.7982,2.8381,2.8718,2.9024,2.9469,2.9372,2.9073,2.9073,2.9437,2.9826,2.9988,3.0124,3.0304,3.0407,3.0969,3.1516,3.1516,3.188,3.2289,3.2226,3.2171,3.2256,3.2951,3.3113,3.311,3.2994,3.2994,3.2978,3.2862,3.2734,3.2761,3.3255,3.2876,3.2244,3.1451,3.0525,2.9439,2.8264,2.7919,2.7067,2.5433,2.5116,2.4826,2.4449,2.3943,2.3653,2.3653,2.348,2.326,2.3083,2.3127,2.3127,2.2994,2.2994,2.2799,2.2466,2.203,2.1827,2.4446,2.4951,2.525,2.4788,2.3107,2.1234,1.9752,1.7709,1.5868,1.5016,1.4776,1.4754,1.4949,1.5412,1.5993,1.6669,1.6886,1.7966,2.0927,2.1911,2.3022,2.4951,2.5975,2.6346,2.5873,2.5453,2.5253,2.5253,2.4992,2.5265,2.6183,2.6032,2.6283,2.695,2.695,2.695,2.695,2.6449,2.5838,2.5135,2.4587,2.4013,2.3459,2.3904,2.414,2.4193,2.4709,2.4963,2.5014,2.5316,2.5405,2.5506,2.5694,2.6065,2.6506,2.6553,2.712,2.7836,2.788,2.841,2.898,2.898,2.8813,2.8669,2.9275,2.9927,3.0603,3.115,3.1722,3.2174,3.2131,3.2134,3.2183,3.2043,3.1899,3.1887,3.2506,3.2997,3.3145,3.2725,3.2671,3.2493,3.2078,3.1488,3.1304,3.1952,3.1509,3.1028,3.0888,3.0296,2.9426,2.8121,2.733,2.6593,2.5727,2.4805,2.4402,2.4743,2.3791,2.3231,2.3172,2.3436,2.3157,2.2324,2.2618,2.248,2.1935,2.1935,2.165,2.118,2.1131,2.0983,2.4054,2.4903,2.5035,2.3881,2.2423,2.07,1.8577,1.6876,1.5516,1.4611,1.4523,1.4627,1.4708,1.4926,1.5165,1.5407,1.5522,0.0,1.853,1.9432,2.08,2.3195,2.4129,2.4695,2.5075,2.4992,2.4921,2.4921,2.4718,2.4778,2.5111,2.5182,2.5312,2.5652,2.5639,2.5499,2.5276,2.5071,2.4613,2.3976,2.3709,2.3404,2.3059,2.3026,2.2948,2.2994,2.3003,2.3297,2.3875,2.4523,2.512,2.5632,2.6138,2.6466,2.6661,2.6661,2.6933,2.7253,2.7611,2.7804,2.8047,2.8401,2.8368,2.8355,2.9282,2.9771,3.0088,3.0483,3.1045,3.151,3.1475,3.1753,3.2013,3.1961,3.1897,3.1881,3.2099,3.2331,3.2422,3.2226,3.2185,3.2114,3.1946,3.1353,3.1086,3.1543,3.0795,3.03,3.0499,2.9581,2.8526,2.7684,2.7229,2.6609,2.5614,2.4805,2.4283,2.4034,2.3192,2.2723,2.2678,2.2723,2.2495,2.1996,2.2077,2.1969,2.1568,2.1568,2.1375,2.0997,2.1342,2.1414,2.2764,2.399,2.4402,2.2831,2.1403,1.9735,1.75,1.6,1.492,1.4312,1.4337,1.4441,1.4477,1.4534,1.4545,0.0,0.0,1.5418,1.6786,1.7714,1.9064,2.1113,2.2069,2.2956,2.3921,2.4448,2.4646,2.449,2.4345,2.4189,2.4043,2.42,2.4345,2.4646,2.4502,2.4345,2.4055,2.3897,2.3604,2.3224,2.3224,2.315,2.299,2.2578,2.2426,2.2404,2.2188,2.2446,2.3116,2.3722,2.4355,2.504,2.5566,2.5832,2.597,2.597,2.6177,2.6451,2.6963,2.7104,2.7076,2.7642,2.7886,2.8088,2.8872,2.9422,2.9843,3.0217,3.0758,3.1271,3.1271,3.147,3.1664,3.189,3.1721,3.1549,3.1721,3.1664,3.1607,3.1435,3.1377,3.1246,3.1072,3.051,3.0188,3.0498,2.984,2.9371,2.9524,2.8533,2.7563,2.6979,2.6523,2.6,2.5342,2.4737,2.4188,2.3737,2.2853,2.2356,2.2356,2.2127,2.1985,2.1973,2.1746,2.165,2.1533,2.1358,2.1131,2.0911,2.1321,2.1445,2.0185,2.1963,2.3126,2.1606,1.9792,1.7982,1.6599,1.4985,1.3794,1.4125,1.4093,1.4067,1.4176,1.4104,1.4057,1.4176,1.4729,0.0,1.6042,1.7285,1.8279,1.868,1.9981,2.1198,2.202,2.3584,2.4273,2.3677,2.3593,2.3446,2.3001,2.3001,2.3372,2.4189,2.3824,2.3593,2.3604,2.3224,2.3001,2.3001,2.3001,2.3001,2.3001,2.299,2.299,2.299,2.299,2.299,2.299,2.299,2.299,2.3001,2.3075,2.3338,2.3806,2.3806,2.4434,2.525,2.5693,2.6027,2.6413,2.679,2.7298,2.7723,2.771,2.8795,3.0129,3.0778,3.142,3.1875,3.1875,3.142,3.1145,3.1777,3.1233,3.0732,3.1261,3.1175,3.0851,3.0433,3.0068,2.9685,2.9212,2.8602,2.8333,2.857,2.84,2.8083,2.7788,2.717,2.6608,2.6037,2.5025,2.4515,2.4989,2.4449,2.4109,2.4096,2.297,2.2291,2.2291,2.1735,2.1694,2.2278,2.1722,2.156,2.1898,2.1326,2.0898,2.0699,2.0562,2.0772,1.7522,1.8918,1.9688,1.8118,1.71,1.6225,1.5066,1.406,1.3459,1.3856,1.3962,1.3962,1.3952,1.3915,1.4058,1.4569,1.4654,1.5139,1.6417,1.7522,1.8561,1.9537,2.1197,2.2399,2.2711,2.3178,2.3372,2.3224,2.3224,2.315,2.3001,2.3001,2.315,2.3372,2.3224,2.3075,2.2777,2.2628,2.2478,2.2176,2.2025,2.1949,2.1959,2.1807,2.1807,2.1807,2.1807,2.1959,2.2176,2.2176,2.2402,2.2777,2.2777,2.299,2.3276,2.3276,2.3412,2.3756,2.423,2.4708,2.5051,2.5599,2.6015,2.6413,2.6642,2.7813,2.9122,2.9414,2.9628,2.9813,2.9813,2.9594,2.9435,2.9594,2.9435,2.9261,2.9421,2.9435,2.9324,2.9149,2.8725,2.8446,2.8679,2.7842,2.7379,2.79,2.7496,2.717,2.7139,2.6822,2.6298,2.5719,2.4623,2.4041,2.4481,2.3605,2.3059,2.3059,2.252,2.226,2.2366,2.2311,2.2364,2.2445,2.1784,2.1483,2.1511,2.0771,2.0836,2.1546,2.1905,2.2352,0.0,1.6591,1.7247,1.5928,1.5246,1.4731,1.3888,1.3248,1.297,1.3423,1.3621,1.3668,1.3668,1.3621,1.3751,1.4237,1.4584,1.5014,1.5739,1.7136,1.8484,1.9553,2.1083,2.2114,2.2444,2.2783,2.2927,2.2777,2.2703,2.2628,2.2478,2.2327,2.2327,2.2327,2.2553,2.2478,2.2176,2.2025,2.1807,2.1578,2.1436,2.1359,2.1359,2.1282,2.1205,2.1205,2.1205,2.1359,0.0,2.1578,2.1807,2.2101,2.2101,2.2176,2.2327,2.2327,2.2402,2.2467,2.2968,2.339,2.3734,2.4218,2.4625,2.5097,2.553,2.6735,2.8012,2.8051,2.8103,2.8103,2.8103,2.7999,2.7947,2.7947,2.7947,2.7947,2.7947,2.7947,2.7947,2.7947,2.7708,2.755,2.7911,2.7322,2.7006,2.7515,2.7006,2.6564,2.6514,2.6005,2.5411,2.4807,2.3659,2.3026,2.326,2.2629,2.2253,2.2371,2.1918,2.1663,2.1776,2.1686,2.1809,2.2206,2.1613,2.1447,2.1841,2.1168,2.1179,2.1869,2.2444,2.2847,0.0,1.4738,1.5532,1.4694,1.4,1.3422,1.3017,0.0,0.0,0.0,1.3074,1.3218,1.3324,1.3218,1.3228,1.3412,1.4397,1.4987,1.4459,1.638,1.8109,1.9051,1.9937,2.0732,2.1237,2.2288,2.2703,2.2252,2.2101,2.1883,2.1502,2.1282,2.1205,2.1205,2.1731,2.1949,2.1731,2.1359,2.1205,2.1205,2.1205,2.1205,2.1205,2.1128,2.1128,2.1128,2.1128,2.1128,2.1128,2.1128,2.1205,2.1205,2.1205,2.1205,2.1205,2.1205,2.1359,2.1502,2.1883,2.2176,2.2402,2.2777,2.3191,2.3734,2.4313,2.5554,2.6735,2.6735,2.6735,2.6735,2.6735,2.6735,2.6735,2.6735,2.6735,2.6735,2.6735,2.6735,2.6735,2.6735,2.6861,2.6921,2.6971,2.6924,2.6978,2.7175,2.6658,2.6095,2.5645,2.4807,2.4047,2.3548,2.2303,2.1544,2.1538,2.1502,2.1616,2.1916,2.1146,2.0694,2.0682,2.0228,2.05,2.1606,2.1095,2.1403,2.2534,2.2008,2.1711,2.1587,2.2141,2.2289,1.1652,0.0,1.2378,1.1724,1.1705,1.1872,0.0,0.0,0.0,0.0,0.0,0.0,0.0,1.2764,1.292,1.374,1.4255,1.4785,1.5468,1.7392,1.9183,2.0381,2.1123,2.0915,1.9558,2.0866,2.1482,2.0527,2.1021,2.1359,2.1282,2.1205,2.1138,2.0984,2.1138,2.1205,2.1359,2.1282,2.1205,2.1205,2.1051,2.0984,2.0984,2.0809,2.0722,2.0722,2.0722,2.0722,2.0722,2.0722,2.0809,2.0984,2.0984,2.1061,2.1205,2.1205,2.1205,2.1282,2.1359,2.1436,2.1502,2.1578,2.1949,2.2317,2.2596,2.3879,2.5216,2.5216,2.5216,2.5216,2.5216,2.5216,2.5216,2.5216,2.5216,2.5216,2.5216,2.5216,2.5216,2.5216,2.5156,2.5217,2.5622,2.5629,2.5475,2.5138,2.4968,2.452,2.3541,2.3205,2.2837,2.2185,2.1596,2.1028,2.0647,2.0501,2.042,2.0431,2.0437,2.0422,2.0411,2.0425,2.0603,2.1019,2.0461,2.007,1.9805,2.0332,2.0461,2.0208,2.0912,2.1156,1.1074,1.1006,1.0857,1.0606,1.0809,1.1054,0.0,0.0,0.0,0.0,0.0,0.0,0.0,0.0,1.2577,1.3314,1.3917,1.4707,1.5936,1.7286,1.8455,1.935,1.9945,1.9912,1.8815,1.961,2.0051,1.9894,2.0235,2.0644,2.1051,2.0964,2.0886,2.0741,2.0741,2.0809,2.0886,2.0886,2.0886,2.0886,2.0809,2.0741,2.0741,2.0644,2.0566,2.0566,2.0566,2.0566,2.0566,2.0566,2.0654,2.0741,2.0741,2.0809,2.0886,2.0886,2.0974,2.1061,2.1061,2.1128,2.1205,2.1205,2.1359,2.1578,2.1731,2.2446,2.3231,2.3756,2.3902,2.3902,2.3902,2.3902,2.3902,2.3902,2.3902,2.3902,2.3902,2.3902,2.3902,2.3902,2.41,2.4301,2.4591,2.4547,2.4476,2.4353,2.3894,2.3503,2.3048,2.2606,2.1996,2.1329,2.1005,2.0541,1.9869,1.9737,1.9617,1.955,1.9528,1.9518,1.9507,1.9573,1.9824,2.0257,2.0258,2.0115,1.966,2.0177,2.0313,2.0124,2.052,2.0643,1.1074,1.0672,1.0237,1.0479,1.062,1.0728,0.0,0.0,0.0,0.0,0.0,0.0,0.0,1.2082,0.0,1.2597,1.3497,1.4634,1.6224,1.6821,1.714,1.7494,1.8155,1.8458,1.8215,1.8373,1.885,1.958,1.9599,1.9932,2.0829,2.0654,2.0566,2.0566,2.0566,2.0566,2.0566,2.0566,2.0566,2.0566,2.0566,2.0566,2.0566,2.0566,2.0566,2.0566,2.0489,2.0489,2.0566,2.0489,2.0566,2.0566,2.0566,2.0566,2.0566,2.0566,2.0731,2.0829,2.0829,2.0974,2.1128,2.1128,2.1128,2.1128,2.1359,2.1282,2.1349,2.2402,2.2777,2.2777,2.2777,2.2852,2.2852,2.2852,2.2852,2.2852,2.2852,2.2852,2.2777,2.2777,2.3232,2.3557,2.348,2.3545,2.363,2.3636,2.2931,2.2453,2.2583,2.185,2.0971,2.0323,2.0166,1.9715,1.8881,1.8768,1.8755,1.864,1.8502,1.8414,1.8347,1.8347,1.8664,1.9299,1.9879,2.0204,2.0204,2.0204,2.0204,2.0204,2.0204,2.0139,1.1074,1.0423,0.9839,1.0501,1.0677,1.0728,0.0,0.0,0.0,0.0,0.0,0.0,0.0,1.1679,1.1722,1.2037,1.3185,1.4745,1.683,1.7151,1.724,1.7331,1.8104,1.7987,1.6329,1.7454,1.8301,1.831,1.8966,1.9696,2.0566,2.0644,2.0566,2.0566,2.0566,2.0566,2.0566,2.0566,2.0566,2.0566,2.0566,2.0566,2.0566,2.042,2.0342,2.0342,2.0098,2.0177,2.0342,2.0098,2.0255,2.0566,2.0411,2.0411,2.0566,2.0566,2.0644,2.0644,2.0644,2.0644,2.0722,2.0722,2.0722,2.0731,2.0896,2.0984,2.0984,2.1359,2.1578,2.1807,2.1959,2.1959,2.1959,2.1959,2.1959,2.1959,2.1959,2.1959,2.1949,2.1731,2.2102,2.2422,2.2186,2.2502,2.2393,2.1318,2.0992,2.048,1.9207,1.8966,1.8576,1.8021,1.8057,1.7883,1.7165,1.6983,1.675,1.6442,1.7483,1.794,1.7676,1.7794,1.791,1.7969,1.8259,1.8395,1.8395,1.8596,1.8596,1.8395,1.8596,1.8529,1.0972,1.0532,1.0159,1.0421,1.0217,0.9974,0.0,0.0,0.0,0.0,0.0,0.0,0.0,0.0,1.1711,1.2602,1.3523,1.4519,1.5462,1.5878,1.6037,1.5839,1.6395,1.6545,1.5606,1.6288,1.6862,1.7269,1.8078,1.8975,1.9854,2.0323,2.0566,2.042,2.042,2.0333,2.0255,2.0255,2.0255,2.042,2.0255,2.0255,2.0255,2.0098,2.0108,2.0108,1.9942,1.9942,2.0098,1.9942,2.002,2.0177,2.0098,2.0177,2.0255,2.0255,2.0333,2.042,2.042,2.0489,2.0566,2.0566,2.0566,2.0644,2.0829,2.0819,2.0809,2.1128,2.1282,2.1359,2.1425,2.1512,2.1512,2.1512,2.1512,2.1512,2.1512,2.1512,2.1425,2.1359,2.1521,2.1663,2.1517,2.1273,2.0915,2.0155,1.9629,1.9066,1.8399,1.8221,1.792,1.7271,1.7476,1.7371,1.6571,1.6579,1.6514,1.6269,1.6763,1.7235,1.747,1.7529,1.7588,1.7588,1.7666,1.7735,1.7735,1.7803,1.7803,1.7735,1.7803,1.7803,1.0769,1.0565,1.0302,1.027,0.0,0.0,0.0,0.0,0.0,0.0,0.0,0.0,0.0,1.1345,1.1844,1.2907,1.3777,1.4273,1.4335,1.4813,1.5023,1.4712,1.5151,1.534,1.5296,1.5347,1.5748,1.6542,1.7269,1.8078,1.8975,1.9515,1.974,1.9687,1.9593,1.9381,1.9224,1.9237,1.945,1.9942,1.9696,1.946,1.9292,1.9204,1.9362,1.9529,1.9292,1.9292,1.9529,1.9213,1.9213,1.9292,1.945,1.9529,1.9539,1.9371,1.945,1.9608,1.9687,1.9766,1.9923,2.0001,2.0001,2.0001,2.0177,2.0089,2.0079,2.0323,2.0479,2.0566,2.1051,2.1205,2.1205,2.1205,2.1041,2.0886,2.0886,2.0722,2.0557,2.0557,2.0557,2.0479,2.0479,1.9913,1.9344,1.8957,1.8381,1.7819,1.7577,1.7423,1.7107,1.6601,1.6846,1.6659,1.595,1.6004,1.6086,1.6143,1.5981,1.6167,1.6821,1.6899,1.6899,1.6899,1.7107,1.7245,1.7245,1.7401,1.747,1.747,1.747,1.747,1.047,1.0208,0.987,0.9987,1.0145,0.0,0.0,0.0,0.0,1.0887,0.0,0.0,0.0,1.147,1.1978,1.2415,1.3205,1.4108,1.495,1.5029,1.5133,1.5357,1.5357,1.5289,1.5166,1.5264,1.5673,1.6394,1.6624,1.718,1.8078,1.7655,1.7612,1.7891,1.7392,1.7128,1.7128,1.7152,1.7738,1.8718,1.8718,1.823,1.7504,1.7326,1.7649,1.8381,1.7342,1.7504,1.8301,1.7342,1.718,1.7577,1.8141,1.855,1.8638,1.7827,1.7504,1.7577,1.7819,1.79,1.79,1.8158,1.8158,1.8158,1.8238,1.8238,1.8158,1.8238,1.8238,1.8718,2.0644,2.1205,2.1205,2.1205,2.0557,1.9982,1.9982,1.9335,1.8762,1.8541,1.8541,1.8461,1.8238,1.8158,1.7836,1.7017,1.6854,1.6453,1.5492,1.5333,1.5249,1.5249,1.5068,1.4781,1.4505,1.4286,1.4351,1.4749,1.4738,1.4744,1.4816,1.4966,1.5117,1.5117,1.5956,1.6376,1.6376,1.7176,1.747,1.747,1.747,1.747,1.0368,1.0371,1.0254,0.9955,0.0,0.0,0.0,0.0,1.048,1.0544,1.0959,0.0,0.0,1.1537,1.2054,1.243,1.3272,1.4089,1.4594,1.4915,1.509,1.4999,1.509,1.509,1.4908,1.4908,1.5075,1.5311,1.5884,1.6445,1.6772,1.69,1.6996,1.6995,1.6855,1.6632,1.6561,1.654,1.6445,1.6285,1.7073,1.7261,1.6935,1.6854,1.7009,1.7261,1.6854,1.6935,1.7253,1.6862,1.678,1.6935,1.718,1.7342,1.7342,1.7017,1.7009,1.7172,1.7334,1.7577,1.7738,1.7908,1.7997,1.7997,1.7997,1.7997,1.7997,1.7997,1.7997,1.8158,1.9036,1.9195,1.9195,1.9195,1.8957,1.8709,1.8709,1.847,1.8221,1.8149,1.8149,1.8069,1.7997,1.7513,1.7098,1.678,1.6221,1.5741,1.5173,1.509,1.5006,1.4908,1.465,1.4441,1.4171,1.3905,1.3831,1.395,1.4114,1.4413,1.4854,1.4792,1.4681,1.4681,1.5029,1.5455,1.5965,1.6254,1.6691,1.7116,1.7116,1.7116,1.011,1.0279,1.028,0.0,0.0,0.0,0.0,0.0,1.0476,1.0641,1.092,1.1227,1.1339,1.1676,1.2114,1.2425,1.3376,1.409,1.4371,1.4657,1.4824,1.4734,1.4824,1.4915,1.465,1.4566,1.4511,1.4504,1.4981,1.5331,1.5331,1.5551,1.5717,1.5599,1.5498,1.5295,1.5232,1.526,1.4944,1.4216,1.5175,1.5619,1.5725,1.5725,1.5942,1.6288,1.5966,1.6049,1.6288,1.5966,1.6041,1.6288,1.5966,1.6049,1.6288,1.5966,1.5959,1.6116,1.6273,1.6519,1.6683,1.6854,1.6935,1.6935,1.6935,1.6935,1.6935,1.6935,1.6935,1.6935,1.6935,1.7513,1.7997,1.7997,1.7755,1.7594,1.7594,1.7359,1.7196,1.7196,1.7196,1.7196,1.7115,1.6624,1.6131,1.6041,1.5567,1.509,1.4915,1.4915,1.4824,1.465,1.4482,1.4314,1.4243,1.3895,1.3781,1.3781,1.3777,1.4004,1.4321,1.4169,1.4041,1.4041,1.4194,1.4558,1.5137,1.5353,1.5794,1.6473,1.6542,1.6551,0.974,0.9799,0.9695,0.0,0.0,0.0,0.0,0.0,1.1268,1.1376,1.1397,1.1473,1.1574,1.1963,1.2349,1.2505,1.34,1.4159,1.4398,1.4398,1.4482,1.465,1.4734,1.465,1.4391,1.4289,1.4198,1.4035,1.3919,1.3909,1.3909,1.3376,1.3194,1.3482,1.3054,1.2822,1.2822,1.3053,1.3053,1.2829,1.306,1.3353,1.3641,1.3641,1.4282,1.5304,1.4489,1.4573,1.5311,1.4412,1.458,1.5318,1.4412,1.4664,1.5311,1.4412,1.4088,1.4166,1.4321,1.4398,1.4398,1.465,1.4734,1.4734,1.4734,1.4734,1.4734,1.4734,1.4734,1.4734,1.4734,1.637,1.7997,1.7997,1.735,1.6698,1.6698,1.5982,1.5431,1.5431,1.5431,1.534,1.509,1.509,1.4999,1.4734,1.4734,1.465,1.4398,1.4398,1.4398,1.4398,1.4398,1.4398,1.4398,1.4243,1.4088,1.4088,1.3808,1.338,1.2856,1.2829,1.2829,1.2829,1.3362,1.3575,1.3629,1.4366,1.5008,1.5463,1.5692,1.5762,0.9423,0.9636,0.0,0.9594,0.0,0.0,0.0,1.0846,0.0,0.0,1.219,1.208,1.2182,1.2445,1.2675,1.2845,1.336,1.3848,1.4132,1.4321,1.4398,1.4328,1.4405,1.4316,1.387,1.3851,1.3716,1.3433,1.3412,1.3444,1.3444,1.3067,1.2939,1.3027,1.2869,1.2822,1.2822,1.2916,1.2916,1.2822,1.2625,1.2839,1.334,1.334,1.354,1.3877,1.3763,1.385,1.4111,1.4085,1.425,1.4496,1.4166,1.425,1.4412,1.4173,1.4088,1.4166,1.4321,1.4398,1.4398,1.465,1.4734,1.4734,1.4734,1.4734,1.4734,1.4734,1.4734,1.4734,1.4734,1.5228,1.5718,1.5718,1.547,1.5304,1.5304,1.5068,1.4908,1.4908,1.4908,1.4908,1.4824,1.4824,1.4824,1.4734,1.4734,1.465,1.4398,1.4237,1.4166,1.4166,1.4166,1.4166,1.4166,1.4166,1.4088,1.4088,1.3827,1.3609,1.3394,1.318,1.3073,1.3073,1.3229,1.3599,1.4106,1.4116,1.4477,1.5186,1.5008,1.4966,0.9256,0.9368,0.0,0.948,0.9717,1.01,1.0742,0.0,0.0,0.0,1.2772,1.2552,1.2882,1.297,1.301,1.3101,1.3333,1.3667,1.3728,1.381,1.3892,1.3741,1.381,1.3818,1.3487,1.336,1.3213,1.3039,1.2919,1.2852,1.2852,1.2672,1.2565,1.2565,1.2565,1.2565,1.2565,1.2565,1.2565,1.2565,1.2385,1.2492,1.2852,1.2973,1.3093,1.322,1.3394,1.3467,1.3487,1.3667,1.3741,1.3748,1.3868,1.3908,1.3928,1.4041,1.4088,1.4088,1.4243,1.4237,1.4321,1.4405,1.4496,1.4496,1.4496,1.4496,1.4496,1.4496,1.4496,1.4496,1.4496,1.4496,1.4489,1.465,1.4734,1.4734,1.4734,1.4734,1.4734,1.4734,1.4734,1.465,1.4566,1.4566,1.4608,1.4654,1.4583,1.4542,1.4341,1.4166,1.4088,1.4088,1.4195,1.4262,1.4262,1.4369,1.4389,1.4176,1.3992,1.3776,1.3496,1.3371,1.33,1.3387,1.33,1.3447,1.3898,1.3717,1.4021,1.4645,1.4515,1.4429,0.9169,0.0,0.0,0.926,0.9856,0.0,1.1236,1.1857,1.2573,1.3347,1.3133,1.2953,1.35,1.3387,1.3213,1.3213,1.3427,1.3514,1.3247,1.3213,1.3213,1.3213,1.3213,1.32,1.3173,1.2913,1.2808,1.2788,1.2452,1.2305,1.2305,1.2305,1.2305,1.2305,1.2305,1.2305,1.2305,1.2305,1.2305,1.2305,1.2305,1.2305,1.2311,1.2585,1.2872,1.3166,1.3166,1.3186,1.3213,1.3213,1.3213,1.324,1.3534,1.3559,1.3681,1.3975,1.4088,1.4082,1.4055,1.4062,1.4082,1.4055,1.4068,1.4088,1.4088,1.4088,1.4088,1.4088,1.4088,1.4088,1.4088,1.4088,1.4166,1.4573,1.4657,1.4657,1.4657,1.4657,1.4657,1.4657,1.4657,1.4573,1.4398,1.4419,1.445,1.4476,1.4522,1.4329,1.4037,1.4088,1.401,1.3861,1.4183,1.4355,1.4381,1.4714,1.4652,1.4274,1.4167,1.395,1.3489,1.3323,1.3434,1.3599,1.3434,1.3352,1.3352,1.3326,1.3568,1.3981,1.4116,1.4029,0.917,0.9271,0.0,0.0,1.0674,1.13,1.1601,1.2054,1.2439,1.273,1.2943,1.3225,1.3498,1.3326,1.3213,1.3213,1.3267,1.328,1.322,1.3213,1.3213,1.3213,1.3213,1.3113,1.2872,1.2862,1.2728,1.2418,1.2338,1.2305,1.2305,1.2305,1.2305,1.2305,1.2305,1.2305,1.2305,1.2305,1.2305,1.2305,1.2305,1.2305,1.2305,1.2365,1.2559,1.2923,1.2923,1.2986,1.3213,1.3213,1.3213,1.324,1.3534,1.3559,1.3681,1.3975,1.4088,1.4055,1.3821,1.3895,1.4048,1.3814,1.3901,1.4088,1.4088,1.4088,1.4088,1.4088,1.4088,1.4088,1.4088,1.4088,1.4088,1.4166,1.425,1.425,1.425,1.425,1.425,1.425,1.425,1.425,1.4166,1.4354,1.4442,1.4509,1.4522,1.4149,1.3168,1.3652,1.3566,1.2277,1.2879,1.3441,1.365,1.3718,1.3919,1.4449,1.4254,1.4037,1.3659,1.351,1.3393,1.3477,1.3562,1.3646,1.3646,1.3589,1.3607,1.3689,1.3539,1.3324,0.0,0.0,0.0,1.0481,0.0,1.1344,1.1729,1.1957,1.2186,1.2346,1.2845,1.3338,1.3553,1.3588,1.3389,1.3162,1.3064,1.3017,1.2792,1.2772,1.2772,1.2772,1.2772,1.2712,1.2552,1.2532,1.2472,1.2311,1.2305,1.2305,1.2305,1.2305,1.2305,1.2305,1.2305,1.2305,1.2305,1.2305,1.2305,1.2305,1.2305,1.2305,1.2305,1.2305,1.2385,1.2532,1.2532,1.2625,1.2772,1.2772,1.2772,1.2819,1.3267,1.344,1.3487,1.3928,1.4088,1.4068,1.3908,1.3955,1.4062,1.3908,1.3961,1.4088,1.4088,1.4088,1.4088,1.4088,1.4088,1.4088,1.4088,1.4088,1.4088,1.4088,1.4088,1.4088,1.4088,1.4088,1.4088,1.4088,1.4088,1.4088,1.4088,1.4449,1.4553,1.4091,1.411,1.374,1.2491,1.2727,1.2692,1.1828,1.2304,1.27,1.283,1.2949,1.3044,1.3123,1.3468,1.3385,1.2808,1.3052,1.3307,1.3398,1.3483,1.3568,1.3568,1.3503,1.3515,1.3509,1.3448,1.3303,0.0,0.0,1.0052,1.077,1.0995,0.0,1.1682,1.1808,1.1903,1.2226,1.2763,1.3271,1.353,1.3579,1.3418,1.2928,1.2845,1.2648,1.2184,1.2151,1.2151,1.2151,1.2198,1.2225,1.2225,1.2271,1.2305,1.2305,1.2305,1.2305,1.2305,1.2305,1.2305,1.2305,1.2305,1.2305,1.2305,1.2305,1.2305,1.2305,1.2305,1.2305,1.2305,1.2305,1.2305,1.2305,1.2305,1.2305,1.2305,1.2305,1.2331,1.2432,1.2993,1.324,1.3353,1.3888,1.4088,1.4082,1.4028,1.4041,1.4082,1.4028,1.4048,1.4088,1.4088,1.4088,1.4088,1.4088,1.4088,1.4088,1.4088,1.4088,1.4088,1.4088,1.4088,1.4088,1.4088,1.4088,1.4102,1.4155,1.4031,1.3985,1.4038,1.435,1.4204,1.3368,1.3361,1.3124,1.1784,1.1757,1.1773,1.1533,1.1796,1.2015,1.2057,1.2229,1.2156,1.1733,1.2362,1.2423,1.1494,1.2428,1.2924,1.3052,1.3222,1.3313,1.3313,1.3398,1.3398,1.3398,1.3561,1.3529,0.0,0.0,1.0444,0.0,1.0635,1.1109,0.0,0.0,1.1781,1.2342,1.2493,1.2571,1.2828,1.2692,1.2534,1.2356,1.2052,1.1798,1.155,1.1543,1.1543,1.1543,1.177,1.1924,1.1924,1.2151,1.2305,1.2305,1.2305,1.2305,1.2305,1.2305,1.2305,1.2305,1.2305,1.2305,1.2305,1.2305,1.2305,1.2305,1.2305,1.2305,1.2305,1.2305,1.2305,1.2305,1.2305,1.2305,1.2305,1.2305,1.2452,1.2719,1.3073,1.3367,1.3627,1.3961,1.4088,1.4048,1.3794,1.3874,1.4048,1.3788,1.3874,1.4088,1.4088,1.4088,1.4088,1.4088,1.4088,1.4088,1.4088,1.4088,1.4088,1.4088,1.4088,1.4088,1.4088,1.4088,1.4162,1.4409,1.3938,1.3537,1.3768,1.3217,1.2615,1.2427,1.2449,1.2109,1.0867,1.139,1.1374,0.9871,1.0469,1.0934,1.1016,1.1058,1.1158,1.1477,1.165,1.1359,1.0662,1.1529,1.1876,1.1585,1.2619,1.3143,1.3143,1.3313,1.3398,1.3398,1.3398,1.3288,0.9233,0.9724,1.0079,0.0,1.0581,1.0843,1.0863,1.1097,1.137,1.1655,1.184,1.2107,1.2528,1.2524,1.2386,1.211,1.193,1.1771,1.143,1.1423,1.1423,1.1423,1.169,1.187,1.187,1.2131,1.2305,1.2305,1.2305,1.2305,1.2305,1.2305,1.2305,1.2305,1.2305,1.2305,1.2305,1.2305,1.2305,1.2305,1.2305,1.2305,1.2305,1.2305,1.2305,1.2305,1.2305,1.2305,1.2305,1.2305,1.2378,1.2545,1.3019,1.3287,1.3454,1.3921,1.4088,1.4068,1.3941,1.3975,1.4068,1.3935,1.3981,1.4088,1.4088,1.4088,1.4088,1.4088,1.4088,1.3997,1.3483,1.3307,1.3222,1.2619,1.2534,1.2534,1.2534,1.2991,1.3442,1.3088,1.2773,1.2654,1.2896,1.2565,1.2141,1.1788,1.1712,1.1293,1.0162,1.0341,1.0377,0.9596,0.9892,1.0019,0.9903,0.9912,0.993,0.9923,1.0283,1.0341,0.9875,1.0656,1.1175,1.1444,1.2347,1.2881,1.2881,1.2966,1.3045,1.3045,1.3137,1.3137,0.0,0.0,0.9833,1.0236,1.0463,1.0587,0.0,1.0836,1.1099,1.118,1.1453,1.1706,1.2189,1.2343,1.226,1.1999,1.1861,1.1678,1.1337,1.127,1.127,1.127,1.153,1.1757,1.1757,1.2091,1.2305,1.2305,1.2305,1.2305,1.2305,1.2305,1.2305,1.2305,1.2305,1.2305,1.2305,1.2305,1.2305,1.2305,1.2305,1.2305,1.2305,1.2305,1.2305,1.2305,1.2305,1.2305,1.2311,1.2385,1.2412,1.2478,1.3086,1.332,1.3387,1.3895,1.4088,1.4088,1.4088,1.4088,1.4088,1.4088,1.4088,1.4088,1.4088,1.3913,1.3737,1.3737,1.3568,1.3222,1.2534,1.2357,1.2186,1.1494,1.137,1.1408,1.1408,1.2119,1.2635,1.2075,1.1889,1.1796,1.1962,1.1803,1.1384,1.0863,1.0788,1.0498,0.9723,0.9628,0.9628,0.9628,0.9529,0.943,0.9133,0.9034,0.8882,0.8466,0.903,0.9232,0.8957,0.9697,1.0296,1.0786,1.1614,1.218,1.2705,1.2705,1.2705,1.2705,1.2881,1.2966,0.0,0.9841,0.0,0.9731,1.0126,1.0587,1.0587,1.0836,1.1165,1.1534,1.1615,1.1637,1.1667,1.186,1.2,1.1804,1.1553,1.129,1.1108,1.0982,1.0848,1.0848,1.1169,1.145,1.145,1.1964,1.2305,1.2305,1.2305,1.2305,1.2305,1.2305,1.2305,1.2305,1.2305,1.2305,1.2305,1.2305,1.2305,1.2305,1.2305,1.2305,1.2305,1.2305,1.2305,1.2305,1.2305,1.2305,1.2325,1.2605,1.2802,1.2856,1.3387,1.3539,1.3661,1.3975,1.4088,1.4088,1.4088,1.4088,1.4088,1.4088,1.4088,1.4088,1.4088,1.3483,1.279,1.279,1.21,1.1408,1.1413,1.1413,1.1322,1.1327,1.1488,1.1561,1.1561,1.1833,1.207,1.2224,1.1677,1.1239,1.1253,1.0386,0.9715,0.9723,0.9723,0.9628,0.9628,0.9628,0.9628,0.9628,0.9331,0.9133,0.8825,0.863,0.8329,0.8028,0.8024,0.8055,0.7901,0.8687,0.907,0.8984,0.9675,1.0961,1.2705,1.2705,1.2705,1.2705,1.2705,1.2705,0.0,0.0,0.0,0.9494,0.9789,1.0118,1.0009,1.0375,1.0792,1.0909,1.1106,1.1311,1.1586,1.1655,1.1665,1.1538,1.1382,1.1178,1.0933,1.087,1.0812,1.0945,1.1182,1.1496,1.169,1.2071,1.2305,1.2305,1.2305,1.2305,1.2305,1.2305,1.2305,1.2305,1.2305,1.2211,1.2024,1.1837,1.1837,1.2024,1.183,1.1644,1.1552,1.1376,1.1095,1.0795,1.0795,1.1323,1.2238,1.1352,1.1341,1.1927,1.2387,1.265,1.2845,1.3807,1.3769,1.3367,1.3284,1.2899,1.2482,1.2324,1.2272,1.2272,1.2272,1.21,1.1843,1.1843,1.1585,1.1154,1.0549,1.0376,1.0289,0.9689,0.9664,0.9836,0.9971,1.0147,1.0346,1.055,1.0356,1.0207,1.0207,0.9821,0.9628,0.9628,0.9628,0.9628,0.9628,0.9628,0.9529,0.9331,0.9236,0.9034,0.863,0.8432,0.8333,0.8041,0.8038,0.797,0.7818,0.7953,0.8351,0.8804,0.889,0.9666,1.0875,1.0875,1.0875,1.088,1.1494,1.1843,0.8713,0.0,0.0,0.0,0.9649,0.989,0.9727,1.0144,1.053,1.053,1.0792,1.1083,1.1294,1.1399,1.1436,1.1413,1.1373,1.131,1.0996,1.0989,1.0939,1.0951,1.1169,1.1464,1.169,1.1984,1.2198,1.2291,1.2305,1.2258,1.2164,1.2158,1.2111,1.2011,1.2004,1.1917,1.1724,1.1523,1.1523,1.1717,1.1523,1.1256,1.0972,1.0797,1.0419,0.9895,0.9599,1.0271,1.1403,1.043,1.0362,1.0941,1.1455,1.1682,1.1887,1.2831,1.2813,1.2406,1.2244,1.1944,1.1438,1.137,1.1327,1.1327,1.1327,1.1063,1.0804,1.0804,1.0636,1.0294,0.9602,0.9428,0.9376,0.8893,0.8832,0.8978,0.9222,0.9315,0.9409,0.9592,0.9628,0.9628,0.9628,0.9628,0.9628,0.9628,0.9628,0.9529,0.943,0.943,0.9331,0.9133,0.9034,0.8832,0.8432,0.8333,0.8237,0.8038,0.8038,0.7994,0.7892,0.7746,0.79,0.8432,0.8272,0.8543,0.9161,0.9712,1.0031,1.0031,1.0649,1.0917,0.0,0.0,0.0,0.9413,0.9642,0.9878,0.9878,1.0122,1.0351,1.0351,1.0667,1.089,1.089,1.1003,1.1165,1.148,1.16,1.1483,1.1296,1.1303,1.1185,1.0814,1.1009,1.1235,1.1396,1.1697,1.1984,1.2271,1.2291,1.2171,1.1897,1.187,1.173,1.1436,1.1348,1.1341,1.141,1.1403,1.1403,1.141,1.1334,1.107,1.0635,1.0629,1.0323,0.9798,0.8988,0.9064,0.9825,1.0132,1.0105,0.9976,1.067,1.081,1.0594,1.1149,1.1241,1.1246,1.1241,1.1241,1.116,1.1241,1.1241,1.1241,1.1241,1.0549,0.9859,0.9859,0.9257,0.8568,0.8572,0.858,0.867,0.9015,0.91,0.9202,0.9547,0.9482,0.9413,0.9596,0.9628,0.9628,0.9628,0.9628,0.9628,0.9628,0.9628,0.9529,0.9236,0.9236,0.9133,0.8825,0.8528,0.8432,0.8432,0.8137,0.8038,0.8038,0.8038,0.8038,0.8031,0.7889,0.7811,0.7804,0.7672,0.76,0.76,0.9266,1.0164,1.0164,1.0164,1.0164,0.8983,0.0,0.0,0.0,0.0,0.0,0.939,0.9637,0.991,0.991,1.0165,1.0385,1.0385,1.0443,1.053,1.0674,1.0996,1.1148,1.0845,1.0981,1.108,1.0978,1.1008,1.1176,1.1396,1.1697,1.1904,1.1984,1.1546,1.1525,1.2178,1.1467,1.1224,1.1368,1.0744,1.0635,1.1109,1.0902,1.0909,1.1109,1.0365,0.9916,0.958,0.8847,0.8267,0.7825,0.7681,0.7742,0.7974,0.8165,0.8676,0.9257,0.9671,0.978,0.9736,1.0686,1.0634,0.9962,0.9809,0.942,0.8991,0.8857,0.8811,0.8811,0.8811,0.8636,0.8464,0.8464,0.8292,0.8151,0.8185,0.8303,0.8413,0.8505,0.8623,0.8741,0.8832,0.8905,0.9068,0.9517,0.9628,0.9628,0.9628,0.9628,0.9628,0.9628,0.9628,0.9529,0.9236,0.9236,0.9034,0.8531,0.8432,0.8333,0.8137,0.8038,0.8038,0.8038,0.8038,0.7991,0.7879,0.7834,0.7763,0.7658,0.7617,0.76,0.76,0.8113,0.8273,0.8362,0.9003,0.9736,0.8818,0.8899,0.9008,0.9008,0.0,0.0,0.9008,0.9252,0.943,0.943,0.9681,0.9896,0.9896,0.9953,1.0003,1.0115,1.0322,1.0487,1.038,1.0728,1.0871,1.0672,1.0799,1.0987,1.1216,1.1191,1.1127,1.1249,1.0609,1.0414,1.0889,1.0212,1.0071,1.059,1.0095,0.995,1.0347,1.0251,1.0053,0.995,0.9332,0.8887,0.8572,0.7966,0.7476,0.7036,0.7147,0.7224,0.724,0.7411,0.785,0.836,0.8635,0.8652,0.8703,0.9479,0.931,0.8779,0.8668,0.8351,0.7983,0.7886,0.7944,0.7944,0.7944,0.7944,0.7944,0.7944,0.7904,0.7968,0.7994,0.8169,0.8337,0.8337,0.8467,0.8609,0.8676,0.8762,0.8924,0.9225,0.9327,0.943,0.943,0.9529,0.9628,0.9628,0.9529,0.9331,0.9031,0.8931,0.8733,0.8233,0.8233,0.8137,0.8038,0.8038,0.8038,0.8038,0.8038,0.7997,0.7909,0.7906,0.7868,0.7784,0.7784,0.7784,0.7784,0.7719,0.7689,0.7689,0.8317,0.8878,0.8741,0.8848,0.8962,0.8804,0.8857,0.0,0.8804,0.885,0.8956,0.8956,0.9166,0.9412,0.9357,0.9467,0.9569,0.9515,0.9569,0.9674,0.998,1.0404,1.0555,1.0174,1.0471,1.0812,1.0915,1.0435,1.0147,1.0317,0.9736,0.9215,0.8746,0.8564,0.8705,0.939,0.9326,0.9326,0.939,0.939,0.9069,0.849,0.8425,0.8144,0.7672,0.7604,0.7362,0.6974,0.7086,0.7175,0.7134,0.7382,0.7464,0.7516,0.7615,0.7659,0.7623,0.7793,0.7826,0.783,0.7848,0.7852,0.7852,0.7834,0.7841,0.7848,0.7811,0.7826,0.7852,0.7852,0.7886,0.7978,0.7834,0.8018,0.825,0.8265,0.8387,0.8538,0.8693,0.8726,0.8726,0.8726,0.8931,0.9133,0.9133,0.9331,0.9525,0.9525,0.9331,0.9031,0.8825,0.8528,0.8336,0.8038,0.8038,0.8038,0.8038,0.8038,0.8038,0.8038,0.8038,0.8038,0.8038,0.8038,0.8038,0.8038,0.8038,0.8038,0.8038,0.7902,0.7834,0.7838,0.7977,0.7967,0.9106,0.896,0.8857,0.8811,0.8745,0.0,0.8533,0.848,0.8527,0.8679,0.8725,0.8771,0.8618,0.8611,0.8611,0.8511,0.8665,0.8978,0.9438,0.9859,1.0082,1.0087,1.0167,1.0383,1.0678,1.0725,1.0612,1.0123,0.9639,0.8938,0.7861,0.7898,0.822,0.8689,0.8166,0.8166,0.8683,0.8683,0.8619,0.849,0.7972,0.7611,0.7518,0.6928,0.6622,0.653,0.6708,0.68,0.6733,0.69,0.7127,0.7277,0.7398,0.7239,0.7046,0.7282,0.7314,0.7073,0.719,0.7231,0.721,0.7097,0.7135,0.7186,0.7031,0.7125,0.7231,0.7231,0.7434,0.7549,0.7517,0.7646,0.7719,0.7835,0.7887,0.7952,0.8103,0.8137,0.8137,0.8137,0.8531,0.8928,0.8928,0.8924,0.8924,0.8924,0.8924,0.8829,0.8531,0.8432,0.8336,0.8038,0.8038,0.8038,0.8038,0.8038,0.8038,0.8038,0.8038,0.8038,0.8038,0.8038,0.8038,0.8038,0.8038,0.8038,0.8038,0.8011,0.7994,0.7994,0.8024,0.8024,0.9011,0.891,0.8752,0.8639,0.858,0.0,0.0,0.8374,0.8421,0.8474,0.8527,0.8474,0.8421,0.8262,0.815,0.8215,0.8321,0.8419,0.845,0.9154,0.9738,0.9866,1.0027,1.0234,1.0598,1.0361,0.9854,0.8799,0.8575,0.8009,0.7012,0.7096,0.7432,0.7977,0.7652,0.7652,0.7972,0.7972,0.7842,0.7456,0.7134,0.6937,0.6937,0.6548,0.642,0.6428,0.6535,0.6525,0.6483,0.6577,0.667,0.6771,0.7017,0.6958,0.683,0.6978,0.6898,0.6824,0.6895,0.6919,0.6909,0.6837,0.6861,0.6895,0.6746,0.6858,0.7034,0.7034,0.7197,0.7353,0.7275,0.7428,0.7597,0.7594,0.7702,0.7831,0.7909,0.7984,0.8038,0.8038,0.8237,0.8432,0.8531,0.8726,0.8825,0.8825,0.8726,0.8528,0.8432,0.8233,0.8137,0.8041,0.8038,0.8038,0.8038,0.8038,0.8038,0.8038,0.8038,0.8038,0.8038,0.8038,0.8038,0.8038,0.8038,0.8038,0.8038,0.8038,0.8038,0.8038,0.8038,0.8038,0.8811,0.8752,0.8699,0.8427,0.8421,0.8474,0.0,0.0,0.0,0.8374,0.8315,0.8262,0.8215,0.799,0.7771,0.7889,0.7949,0.7842,0.7461,0.8342,0.9092,0.9266,0.9682,1.0,1.023,0.9618,0.877,0.7772,0.7418,0.7028,0.6416,0.642,0.6679,0.726,0.7265,0.7265,0.7265,0.7265,0.7003,0.642,0.642,0.642,0.642,0.642,0.642,0.6428,0.6364,0.6378,0.6352,0.6276,0.6299,0.6271,0.6606,0.6727,0.6697,0.6685,0.6658,0.6661,0.6692,0.6702,0.6695,0.6664,0.6637,0.663,0.6719,0.681,0.6898,0.6953,0.7143,0.7299,0.7173,0.7322,0.7485,0.7394,0.7553,0.7743,0.7797,0.7909,0.8004,0.8035,0.8038,0.8038,0.8333,0.8528,0.8627,0.8627,0.8432,0.8333,0.8333,0.8137,0.8038,0.8038,0.8038,0.8038,0.8038,0.8038,0.8038,0.8038,0.8038,0.8038,0.8038,0.8038,0.8038,0.8038,0.8038,0.8038,0.8038,0.8038,0.8038,0.8038,0.8038,0.8038,0.873,0.8626,0.858,0.8268,0.8221,0.8168,0.8008,0.0,0.8008,0.8168,0.0,0.7729,0.7622,0.0,0.0,0.6918,0.7079,0.7192,0.7139,0.7484,0.7706,0.7728,0.8695,0.9219,0.9023,0.8391,0.8088,0.8393,0.709,0.6374,0.6412,0.642,0.6416,0.6548,0.6548,0.6548,0.6548,0.6548,0.6482,0.642,0.642,0.642,0.642,0.642,0.642,0.642,0.63,0.6198,0.6142,0.5946,0.5915,0.603,0.6286,0.6388,0.6379,0.6447,0.6498,0.6519,0.6654,0.6702,0.6678,0.6542,0.6413,0.6386,0.6783,0.682,0.678,0.7044,0.7139,0.7163,0.7146,0.7166,0.7224,0.7343,0.7397,0.7492,0.7753,0.7824,0.7879,0.8014,0.8038,0.8038,0.8038,0.8038,0.8137,0.8137,0.8038,0.8038,0.8038,0.8041,0.8038,0.8038,0.8038,0.8038,0.8038,0.8038,0.8038,0.8038,0.8038,0.8038,0.8038,0.8038,0.8038,0.8038,0.8038,0.8038,0.8038,0.8038,0.8038,0.8038,0.8038,0.8038,0.8691,0.8704,0.8747,0.8312,0.834,0.836,0.7991,0.7901,0.7901,0.7788,0.0,0.0,0.0,0.0,0.0,0.0,0.6815,0.6761,0.6603,0.6982,0.7334,0.7566,0.8167,0.8614,0.8878,0.8604,0.8272,0.812,0.7307,0.6615,0.6318,0.6363,0.642,0.642,0.642,0.642,0.642,0.642,0.642,0.642,0.642,0.642,0.642,0.642,0.635,0.628,0.6083,0.5926,0.5787,0.5656,0.5648,0.5783,0.5933,0.6119,0.6345,0.6329,0.6349,0.6359,0.6424,0.6444,0.6434,0.6369,0.6312,0.6312,0.6583,0.6681,0.6746,0.6956,0.7078,0.7139,0.7139,0.7139,0.7156,0.7221,0.7305,0.7404,0.7529,0.7689,0.7831,0.7892,0.7977,0.8038,0.8038,0.8038,0.8038,0.8038,0.8038,0.8038,0.8038,0.8038,0.8038,0.8038,0.8038,0.8038,0.8038,0.8038,0.8038,0.8038,0.8038,0.8038,0.8038,0.8038,0.8038,0.8038,0.8038,0.8038,0.8038,0.8038,0.8038,0.8038,0.8038,0.8038,0.8783,0.8802,0.8805,0.8329,0.8312,0.83,0.7997,0.7901,0.7848,0.7574,0.7461,0.0,0.0,0.0,0.6598,0.6657,0.0,0.6381,0.6119,0.644,0.6877,0.7144,0.7394,0.783,0.8543,0.8259,0.7982,0.7822,0.7094,0.6652,0.6455,0.6398,0.6367,0.6416,0.642,0.642,0.642,0.642,0.642,0.642,0.642,0.635,0.635,0.635,0.6284,0.6083,0.5954,0.5752,0.5617,0.5425,0.5474,0.5657,0.5762,0.5989,0.6338,0.6338,0.6338,0.6338,0.6338,0.6338,0.6338,0.6338,0.6338,0.6295,0.6478,0.6614,0.6742,0.6932,0.7061,0.7139,0.7139,0.7139,0.7139,0.7139,0.7224,0.7329,0.7414,0.76,0.7777,0.7858,0.7963,0.8038,0.8038,0.8038,0.8038,0.8038,0.8038,0.8038,0.8038,0.8038,0.8038,0.8038,0.8038,0.8038,0.8038,0.8038,0.8038,0.8038,0.8038,0.8038,0.8038,0.8038,0.8038,0.8038,0.8038,0.8038,0.8038,0.8038,0.8038,0.8038,0.8038,0.8038,0.9082,0.882,0.8571,0.8335,0.8093,0.7913,0.7907,0.7901,0.7848,0.7574,0.73,0.7031,0.6756,0.644,0.6173,0.6055,0.6,0.0,0.0,0.585,0.5854,0.5859,0.6232,0.6748,0.7475,0.6683,0.657,0.7742,0.6366,0.5905,0.6938,0.6463,0.6237,0.6412,0.642,0.642,0.642,0.642,0.642,0.642,0.642,0.635,0.6214,0.635,0.6222,0.5892,0.5892,0.5752,0.5617,0.5425,0.5532,0.5793,0.58,0.5989,0.6338,0.6338,0.6338,0.6338,0.6338,0.6338,0.6338,0.6338,0.6338,0.6315,0.6607,0.6698,0.6759,0.7051,0.7136,0.7139,0.7139,0.7139,0.7139,0.7139,0.7143,0.7227,0.7526,0.76,0.7692,0.7977,0.8035,0.8038,0.8038,0.8038,0.8038,0.8038,0.8038,0.8038,0.8038,0.8038,0.8038,0.8038,0.8038,0.8038,0.8038,0.8038,0.8038,0.8038,0.8038,0.8038,0.8038,0.8038,0.8038,0.8038,0.8038,0.8038,0.8038,0.8038,0.8038,0.8038,0.8038,0.8038,0.9057,0.9042,0.8971,0.8438,0.8357,0.8327,0.7979,0.7901,0.7895,0.7787,0.7411,0.7079,0.6966,0.6483,0.6059,0.6,0.5841,0.5732,0.0,0.5795,0.574,0.5521,0.5946,0.6405,0.6759,0.6747,0.6877,0.7305,0.6601,0.6299,0.6796,0.6448,0.6229,0.6412,0.6284,0.628,0.628,0.628,0.6218,0.609,0.6218,0.6148,0.602,0.602,0.5954,0.5686,0.5686,0.562,0.5498,0.5538,0.5572,0.5681,0.5878,0.6017,0.6122,0.6224,0.6338,0.6338,0.6338,0.6338,0.6338,0.6338,0.6338,0.6315,0.661,0.6702,0.6763,0.7058,0.7139,0.7139,0.7139,0.7139,0.7139,0.7139,0.7217,0.7292,0.7295,0.7529,0.7709,0.7614,0.7838,0.8007,0.7906,0.7974,0.8038,0.8038,0.8038,0.8038,0.8038,0.8038,0.8038,0.8038,0.8038,0.8038,0.8038,0.8038,0.8038,0.8038,0.8038,0.8038,0.8038,0.8038,0.8038,0.8038,0.8038,0.8038,0.8038,0.8038,0.8038,0.8038,0.8038,0.8038,0.9088,0.9118,0.9022,0.8456,0.8417,0.8453,0.8117,0.8111,0.8169,0.8046,0.7656,0.7345,0.7365,0.6641,0.6082,0.6211,0.5885,0.5622,0.0,0.5631,0.5521,0.5352,0.5727,0.605,0.6218,0.6327,0.6647,0.7241,0.6673,0.6539,0.6987,0.6594,0.6413,0.6412,0.628,0.621,0.621,0.6148,0.602,0.5892,0.602,0.6017,0.5818,0.5888,0.5756,0.5554,0.555,0.5554,0.5439,0.5528,0.562,0.5688,0.5935,0.6064,0.6125,0.6224,0.6338,0.6338,0.6338,0.6338,0.6338,0.6338,0.6338,0.6305,0.6546,0.6658,0.6763,0.7058,0.7139,0.7153,0.7207,0.718,0.7139,0.7139,0.7217,0.7292,0.7302,0.7529,0.7709,0.7628,0.7841,0.8007,0.7909,0.7974,0.8038,0.8038,0.8038,0.8038,0.8038,0.8038,0.8038,0.8038,0.8038,0.8038,0.8038,0.8038,0.8038,0.8038,0.8038,0.8038,0.8038,0.8038,0.8065,0.8123,0.8069,0.8065,0.8123,0.8065,0.8038,0.8038,0.8038,0.8038]},{"header":{"parameterUnit":"m.s-1","parameterCategory":1,"la1":30.6,"la2":29.2853,"lo1":-89.7004,"lo2":-87.6739,"dy":0.0162,"dx":0.0183,"nx":112,"ny":82,"refTime":"2023-05-16T00:00:00:Z","depth":0,"parameterNumber":3,"parameterNumberName":"V-component_of_WINDS"},"data":[0.0,0.0,0.0,0.0,0.0,0.0,0.0,0.0,0.0,0.0,0.0,0.0,0.0,0.0,0.0,0.0,0.0,0.0,0.0,0.0,0.0,0.0,0.0,0.0,0.0,0.0,0.0,0.0,0.0,0.0,0.0,0.0,0.0,0.0,0.0,0.0,0.0,0.0,0.0,0.0,0.0,0.0,0.0,0.0,0.0,0.0,0.0,0.0,0.0,0.0,0.0,0.0,0.0,0.0,0.0,0.0,0.0,0.0,0.0,0.0,0.0,0.0,0.0,0.0,0.0,0.0,0.0,0.0,0.0,0.0,0.0,0.0,0.0,0.0,0.0,0.0,0.0,0.0,0.0,0.0,0.0,0.0,0.0,0.0,0.0,0.0,0.0,0.0,0.0,0.0,0.2424,0.2898,0.2847,0.2764,0.2636,0.2389,0.1964,0.1339,0.0,0.0,0.0,0.0,0.0,0.0,0.0,0.0,0.0,0.0,0.0,0.0,0.0,0.0,0.0,0.0,0.0,0.0,0.0,0.0,0.0,0.0,0.0,0.0,0.0,0.0,0.0,0.0,0.0,0.0,0.0,0.0,0.0,0.0,0.0,0.0,0.0,0.0,0.0,0.0,0.0,0.0,0.0,0.0,0.0,0.0,0.0,0.0,0.0,0.0,0.0,0.0,0.0,0.0,0.0,0.0,0.0,0.0,0.0,0.0,0.0,0.0,0.0,0.0,0.0,0.0,0.0,0.0,0.0,0.0,0.0,0.0,0.0,0.0,0.0,0.0,0.0,0.0,0.0,0.0,0.0,0.0,0.0,0.0,0.0,0.0,0.0,0.0,0.0,0.0,0.0,0.0,0.0,0.0,0.0,0.0,0.0,0.0,0.0,0.0,0.0,0.0,0.0,0.0,0.2707,0.3088,0.2658,0.2291,0.2279,0.2055,0.1616,0.0931,0.0,0.0,0.0,0.0,0.0,0.0,0.0,0.0,0.0,0.0,0.0,0.0,0.0,0.0,0.0,0.0,0.0,0.0,0.0,0.0,0.0,0.0,0.0,0.0,0.0,0.0,0.0,0.0,0.0,0.0,0.0,0.0,0.0,0.0,0.0,0.0,0.0,0.0,0.0,0.0,0.0,0.0,0.0,0.0,0.0,0.0,0.0,0.0,0.0,0.0,0.0,0.0,0.0,0.0,0.0,0.0,0.0,0.0,0.0,0.0,0.0,0.0,0.0,0.0,0.0,0.0,0.0,0.0,0.0,0.0,0.0,0.0,0.0,0.0,0.0,0.0,0.0,0.0,0.0,0.0,0.0,0.0,0.0,0.0,0.0,0.0,0.0,0.0,0.0,0.0,0.0,0.0,0.0,0.0,0.0,0.0,0.0,0.0,0.0,0.0,0.0,0.0,0.0,0.2082,0.2343,0.2185,0.1986,0.1833,0.1803,0.1584,0.1136,0.0393,0.0609,0.0,0.0,0.0,0.0,0.0,0.0,0.0,0.0,0.0,0.0,0.0,0.0,0.0,0.0,0.0,0.0,0.0,0.0,0.0,0.0,0.0,0.0,0.0,0.0,0.0,0.0,0.0,0.0,0.0,0.0,0.0,0.0,0.0,0.0,0.0,0.0,0.0,0.0,0.0,0.0,0.0,0.0,0.0,0.0,0.0,0.0,0.0,0.0,0.0,0.0,0.0,0.0,0.0,0.0,0.0,0.0,0.0,0.0,0.0,0.0,0.0,0.0,0.0,0.0,0.0,0.0,0.0,0.0,0.0,0.0,0.0,0.0,0.0,0.0,0.0,0.0,0.0,0.0,0.0,0.0,0.0,0.0,0.0,0.0,0.0,0.0,0.0,0.0,0.0,0.0,0.0,0.0,0.0,0.0,0.0,0.0,0.0,0.0,0.0,0.0,0.0,0.0,0.1434,0.1414,0.1194,0.1216,0.1239,0.1302,0.1125,0.0726,0.0042,-0.0115,0.0,0.0,0.0,0.0,0.0,0.0,0.0,0.0,0.0,0.0,0.0,0.0,0.0,0.0,0.0,0.0,0.0,0.0,0.0,0.0,0.0,0.0,0.0,0.0,0.0,0.0,0.0,0.0,0.0,0.0,0.0,0.0,0.0,0.0,0.0,0.0,0.0,0.0,0.0,0.0,0.0,0.0,0.0,0.0,0.0,0.0,0.0,0.0,0.0,0.0,0.0,0.0,0.0,0.0,0.0,0.0,0.0,0.0,0.0,0.0,0.0,0.0,0.0,0.0,0.0,0.0,0.0,0.0,0.0,0.0,0.0,0.0,0.0,0.0,0.0,0.0,0.0,0.0,0.0,0.0,0.0,0.0,0.0,0.0,0.0,0.0,0.0,0.0,0.0,0.0,0.0,0.0,0.0,0.0,0.0,0.0,0.0,0.0,0.0,0.0,0.0,0.0,0.0251,-0.0177,0.0645,0.0404,0.035,0.0722,0.0786,0.0565,0.004,-0.0564,0.0,0.0,0.0,0.0,0.0,0.0,0.0,0.0,0.0,0.0,0.0,0.0,0.0,0.0,0.0,0.0,0.0,0.0,0.0,0.0,0.0,0.0,0.0,0.0,0.0,0.0,0.0,0.0,0.0,0.0,0.0,0.0,0.0,0.0,0.0,0.0,0.0,0.0,0.0,0.0,0.0,0.0,0.0,0.0,0.0,0.0,0.0,0.0,0.0,0.0,0.0,0.0,0.0,0.0,0.0,0.0,0.0,0.0,0.0,0.0,0.0,0.0,0.0,0.0,0.0,0.0,0.0,0.0,0.0,0.0,0.0,0.0,0.0,0.0,0.0,0.0,0.0,0.0,0.0,0.0,0.0,0.0,0.0,0.0,0.0,0.0,0.0,0.0,0.0,0.0,0.0,0.0,0.0,0.0,0.0,0.0,0.0,0.0,0.0,0.0,0.0,0.0,-0.0041,-0.0436,-0.0577,-0.0389,-0.0144,0.0138,0.0215,0.0161,-0.0038,0.0,0.0,0.0,0.0,0.0,0.0,0.0,0.0,0.0,0.0,0.0,0.0,0.0,0.0,0.0,0.0,0.0,0.0,0.0,0.0,0.0,0.0,0.0,0.0,0.0,0.0,0.0,0.0,0.0,0.0,0.0,0.0,0.0,0.0,0.0,0.0,0.0,0.0,0.0,0.0,0.0,0.0,0.0,0.0,0.0,0.0,0.0,0.0,0.0,0.0,0.0,0.0,0.0,0.0,0.0,0.0,0.0,0.0,0.0,0.0,0.0,0.0,0.0,0.0,0.0,0.0,0.0,0.0,0.0,0.0,0.0,0.0,0.0,0.0,0.0,0.0,0.0,0.0,0.0,0.0,0.0,0.0,0.0,0.0,0.0,0.0,0.0,0.0,0.0,0.0,0.0,0.0,0.0,0.0,0.0,0.0,0.0,0.0,0.0,0.0,0.0,0.0,-0.0155,-0.057,-0.103,-0.1549,-0.1099,-0.0716,-0.0549,-0.0403,-0.0305,-0.0357,0.0,0.0,0.0,0.0,0.0,0.0,0.0,0.0,0.0,0.0,0.0,0.0,0.0,0.0,0.0,0.0,0.0,0.0,0.0,0.0,0.0,0.0,0.0,0.0,0.0,0.0,0.0,0.0,0.0,0.0,0.0,0.0,0.0,0.0,0.0,0.0,0.0,0.0,0.0,0.0,0.0,0.0,0.0,0.0,0.0,0.0,0.0,0.0,0.0,0.0,0.0,0.0,0.0,0.0,0.0,0.0,0.0,0.0,0.0,0.0,0.0,0.0,0.0,0.0,0.0,0.0,0.0,0.0,0.0,0.0,0.0,0.0,0.0,0.0,0.0,0.0,0.0,0.0,0.0,0.0,0.0,0.0,0.0,0.0,0.0,0.0,0.0,0.0,0.0,0.0,0.0,0.0,0.0,0.0,0.0,0.0,0.0,0.0,0.0,0.0,0.0,0.0,-0.0699,-0.1592,-0.2145,-0.2019,-0.1596,-0.1294,-0.1319,-0.095,-0.0788,0.0,0.0,0.0,0.0,0.0,0.0,0.0,0.0,0.0,0.0,0.0,0.0,0.0,0.0,0.0,0.0,0.0,0.0,0.0,0.0,0.0,0.0,0.0,0.0,0.0,0.0,0.0,0.0,0.0,0.0,0.0,0.0,0.0,0.0,0.0,0.0,0.0,0.0,0.0,0.0,0.0,0.0,0.0,0.0,0.0,0.0,0.0,0.0,0.0,0.0,0.0,0.0,0.0,0.0,0.0,0.0,0.0,0.0,0.0,0.0,0.0,0.0,0.0,0.0,0.0,0.0,0.0,0.0,0.0,0.0,0.0,0.0,0.0,0.0,0.0,0.0,0.0,0.0,0.0,0.0,0.0,0.0,0.0,0.0,0.0,0.0,0.0,0.0,0.0,0.0,0.0,0.0,0.0,0.0,0.0,0.0,0.0,0.0,0.0,0.0,0.0,0.0,0.0,-0.1635,-0.1921,-0.2086,-0.2151,-0.1928,-0.1805,-0.1811,-0.1787,-0.1616,-0.1289,0.0,0.0,0.0,0.0,0.0,0.0,0.0,0.0,0.0,0.0,0.0,0.0,0.0,0.0,0.0,0.0,0.0,0.0,0.0,0.0,0.0,0.0,0.0,0.0,0.0,0.0,0.0,0.0,0.0,0.0,0.0,0.0,0.0,0.0,0.0,0.0,0.0,0.0,0.0,0.0,0.0,0.0,0.0,0.0,0.0,0.0,0.0,0.0,0.0,0.0,0.0,0.0,0.0,0.0,0.0,0.0,0.0,0.0,0.0,0.0,0.0,0.0,0.0,0.0,0.0,0.0,0.0,0.0,0.0,0.0,0.0,0.0,0.0,0.0,0.0,0.0,0.0,0.0,0.0,0.0,0.0,0.0,0.0,0.0,0.0,0.0,0.0,0.0,0.0,0.0,0.0,0.0,0.0,0.0,0.0,0.0,0.0,0.0,0.0,0.0,0.0,0.0,-0.1835,-0.2034,-0.208,-0.2099,-0.205,-0.2024,-0.2087,-0.2193,-0.2146,-0.1837,0.0,0.0,0.0,0.0,0.0,0.0,0.0,0.0,0.0,0.0,0.0,0.0,0.0,0.0,0.0,0.0,0.0,0.0,0.0,0.0,0.0,0.0,0.0,0.0,0.0,0.0,0.0,0.0,0.0,0.0,0.0,0.0,0.0,0.0,0.0,0.0,0.0,0.0,0.0,0.0,0.0,0.0,0.0,0.0,0.0,0.0,0.0,0.0,0.0,0.0,0.0,0.0,0.0,0.0,0.0,0.0,0.0,0.0,0.0,0.0,0.0,0.0,0.0,0.0,0.0,0.0,0.0,0.0,0.0,0.0,0.0,0.0,0.0,0.0,0.0,0.0,0.0,0.0,0.0,0.0,0.0,0.0,0.0,0.0,0.0,0.0,0.0,0.0,0.0,0.0,0.0,0.0,0.0,0.0,0.0,0.0,0.0,0.0,0.0,0.0,0.0,0.0,-0.1644,-0.204,-0.2255,-0.2082,-0.2071,-0.2119,-0.2181,-0.2343,-0.2393,-0.2392,0.0,0.0,0.0,0.0,0.0,0.0,0.0,0.0,0.0,0.0,0.0,0.0,0.0,0.0,0.0,0.0,0.0,0.0,0.0,0.0,0.0,0.0,0.0,0.0,0.0,0.0,0.0,0.0,0.0,0.0,0.0,0.0,0.0,0.0,0.0,0.0,0.0,0.0,0.0,0.0,0.0,0.0,0.0,0.0,0.0,0.0,0.0,0.0,0.0,0.0,0.0,0.0,0.0,0.0,0.0,0.0,0.0,0.0,0.0,0.0,-0.1539,-0.1451,0.0,0.0,0.0,0.0,0.0,0.0,0.0,0.0,0.0,0.0,0.0,0.0,0.0,0.0,0.0,0.0,0.0,0.0,0.0,0.0,0.0,0.0,0.0,0.0,0.0,0.0,0.0,0.0,0.0,0.0,0.0,0.0,0.0,0.0,0.0,0.0,0.0,0.0,0.0,0.0,-0.2158,-0.2631,-0.2896,-0.2566,-0.2561,-0.2473,-0.2282,-0.2411,-0.2475,-0.2397,-0.2674,0.0,0.0,0.0,0.0,0.0,0.0,0.0,0.0,0.0,0.0,0.0,0.0,0.0,0.0,0.0,0.0,0.0,0.0,0.0,0.0,0.0,0.0,0.0,0.0,0.0,0.0,0.0,0.0,0.0,0.0,0.0,0.0,0.0,0.0,0.0,0.0,0.0,0.0,0.0,0.0,0.0,0.0,0.0,0.0,0.0,0.0,0.0,0.0,0.0,0.0,0.0,0.0,0.0,0.0,0.0,0.0,0.0,0.0,0.0,-0.2017,-0.1905,0.0,0.0,0.0,0.0,0.0,0.0,0.0,0.0,0.0,0.0,0.0,0.0,0.0,0.0,0.0,0.0,0.0,0.0,0.0,0.0,0.0,0.0,0.0,0.0,0.0,0.0,0.0,0.0,0.0,0.0,0.0,0.0,0.0,0.0,0.0,0.0,0.0,0.0,0.0,0.0,-0.1942,-0.2492,-0.2907,-0.2732,-0.2771,-0.2832,-0.2896,-0.304,-0.315,-0.3337,-0.3544,0.0,0.0,0.0,0.0,0.0,0.0,0.0,0.0,0.0,0.0,0.0,0.0,0.0,0.0,0.0,0.0,0.0,0.0,0.0,0.0,0.0,0.0,0.0,0.0,0.0,0.0,0.0,0.0,0.0,0.0,0.0,0.0,0.0,0.0,0.0,0.0,0.0,0.0,0.0,0.0,0.0,0.0,0.0,0.0,0.0,0.0,0.0,0.0,0.0,0.0,0.0,0.0,0.0,-0.2689,-0.2695,-0.27,-0.2362,-0.2496,-0.2918,-0.255,-0.2469,-0.2647,-0.2418,0.0,0.0,0.0,0.0,0.0,0.0,0.0,0.0,0.0,0.0,0.0,0.0,0.0,0.0,0.0,0.0,0.0,0.0,0.0,0.0,0.0,0.0,-0.213,-0.1868,-0.1927,-0.1864,-0.1116,0.0,0.0,0.0,0.0,0.0,0.0,0.0,0.0,0.0,0.0,0.0,-0.1795,-0.244,-0.2951,-0.2862,-0.2993,-0.3208,-0.3561,-0.3653,-0.3913,-0.4391,-0.4459,-0.4656,0.0,0.0,0.0,0.0,0.0,0.0,0.0,0.0,0.0,0.0,0.0,0.0,0.0,0.0,0.0,0.0,0.0,0.0,0.0,0.0,0.0,0.0,0.0,0.0,0.0,0.0,0.0,0.0,0.0,0.0,0.0,0.0,-0.4561,-0.4748,0.0,0.0,0.0,0.0,0.0,0.0,0.0,0.0,0.0,0.0,0.0,0.0,0.0,-0.3173,-0.3106,-0.3217,-0.3231,-0.3099,-0.3099,-0.3107,-0.3123,-0.3087,-0.3095,-0.3142,-0.3096,0.0,-0.2952,-0.2827,0.0,0.0,0.0,0.0,0.0,0.0,0.0,0.0,0.0,0.0,0.0,0.0,0.0,0.0,0.0,0.0,0.0,0.0,0.0,0.0,0.0,0.0,-0.2754,-0.2413,-0.2333,-0.2267,-0.1967,-0.1646,-0.1594,-0.2292,-0.1958,-0.1544,0.0,0.0,0.0,0.0,0.0,0.0,-0.2927,-0.3605,-0.3965,-0.3612,-0.37,-0.3744,-0.3609,-0.3653,-0.3913,-0.4391,-0.4626,-0.5043,-0.5652,-0.5896,0.0,0.0,0.0,0.0,0.0,0.0,0.0,0.0,0.0,0.0,0.0,0.0,0.0,0.0,0.0,0.0,0.0,0.0,0.0,0.0,0.0,0.0,0.0,0.0,0.0,0.0,0.0,0.0,0.0,-0.5241,-0.5235,-0.5033,-0.5261,-0.5398,0.0,0.0,0.0,0.0,0.0,0.0,0.0,0.0,0.0,-0.3455,-0.3509,-0.342,-0.3188,-0.3312,-0.3373,-0.3322,-0.3392,-0.3422,-0.3422,-0.3369,-0.3316,-0.3316,-0.3316,-0.3201,-0.2988,-0.296,-0.2697,-0.2319,0.0,0.0,0.0,0.0,-0.2062,-0.2185,-0.2333,-0.2504,-0.2685,-0.2535,0.0,0.0,0.0,0.0,0.0,0.0,0.0,-0.2834,-0.2672,-0.2706,-0.2732,-0.2534,-0.2374,-0.2298,-0.2342,-0.205,-0.1889,-0.2321,-0.2276,-0.2055,-0.1834,-0.1987,0.0,0.0,0.0,-0.3065,-0.304,-0.3575,-0.3958,-0.3869,-0.3976,-0.4049,-0.4132,-0.4316,-0.4626,-0.5101,-0.5265,-0.5799,-0.6737,-0.678,-0.6975,0.0,0.0,0.0,0.0,0.0,0.0,0.0,0.0,0.0,0.0,0.0,0.0,0.0,0.0,0.0,0.0,0.0,0.0,0.0,0.0,0.0,0.0,0.0,0.0,0.0,0.0,0.0,0.0,-0.5596,-0.5433,-0.5099,-0.5366,-0.5512,0.0,0.0,0.0,0.0,0.0,0.0,-0.4281,-0.4195,-0.4068,-0.3894,-0.3863,-0.3736,-0.3462,-0.3484,-0.349,-0.3493,-0.353,-0.3629,-0.3626,-0.3426,-0.3357,-0.3413,-0.3357,-0.3202,-0.2955,-0.3024,-0.2778,-0.2438,-0.2364,-0.2199,-0.2029,-0.2121,-0.2301,-0.2467,-0.252,-0.2723,-0.2866,-0.2663,-0.2626,-0.2616,-0.2581,0.0,0.0,0.0,0.0,-0.275,-0.2716,-0.2752,-0.2733,-0.2622,-0.242,-0.228,-0.2601,-0.2355,-0.2179,-0.2497,-0.2565,-0.2539,-0.2401,-0.2562,0.0,-0.2158,-0.2859,-0.3378,-0.3289,-0.3701,-0.4046,-0.4171,-0.4307,-0.4496,-0.4726,-0.5046,-0.5455,-0.5857,-0.6024,-0.6624,-0.7675,-0.7643,-0.7882,-0.8542,0.0,0.0,0.0,0.0,0.0,0.0,0.0,0.0,0.0,0.0,0.0,0.0,0.0,0.0,0.0,0.0,0.0,0.0,0.0,0.0,0.0,0.0,0.0,0.0,0.0,0.0,0.0,0.0,0.0,-0.4642,-0.5039,0.0,0.0,0.0,0.0,-0.6169,-0.5651,-0.5344,-0.5304,-0.478,-0.4511,-0.4617,-0.4278,-0.4084,-0.4155,-0.3903,-0.3793,-0.3796,-0.3571,-0.3632,-0.3798,-0.3344,-0.3244,-0.3413,-0.3188,-0.3019,-0.2901,-0.3113,-0.2689,-0.195,-0.1947,-0.1446,-0.0799,-0.1498,-0.1654,-0.1659,-0.2215,-0.252,-0.2636,-0.2617,-0.2635,-0.2707,-0.27,-0.2779,0.0,0.0,-0.3155,-0.3229,-0.3086,-0.3066,-0.2994,-0.2773,-0.2462,-0.235,-0.2956,-0.272,-0.2603,-0.3392,-0.3286,-0.3199,-0.3544,0.0,-0.3248,-0.321,-0.3488,-0.3822,-0.4281,-0.4587,-0.473,-0.4738,-0.4988,-0.5135,-0.5189,-0.5659,-0.609,-0.6331,-0.6769,-0.7412,-0.8333,-0.8552,-0.8658,-0.8785,-0.8785,0.0,0.0,0.0,0.0,0.0,0.0,0.0,0.0,0.0,0.0,0.0,0.0,0.0,0.0,0.0,0.0,0.0,0.0,0.0,0.0,0.0,0.0,0.0,0.0,0.0,0.0,0.0,0.0,-0.5465,-0.5612,0.0,-0.5566,-0.5641,-0.5656,-0.5513,-0.5251,-0.503,-0.4974,-0.477,-0.4745,-0.502,-0.4863,-0.4883,-0.5034,-0.5015,-0.4934,-0.4687,-0.4608,-0.4552,-0.4482,-0.3786,-0.3574,-0.3697,-0.3304,-0.3064,-0.2834,-0.3024,-0.2802,-0.2401,-0.2453,-0.2243,-0.1981,-0.2191,-0.2309,-0.2338,-0.2559,-0.2632,-0.2724,-0.2636,-0.2639,-0.2598,-0.2537,-0.2589,-0.2715,-0.2762,-0.3044,-0.3369,-0.3426,-0.3623,-0.388,-0.3896,-0.3685,-0.3426,-0.3532,-0.3256,-0.3205,-0.3736,-0.3657,-0.3542,-0.3676,-0.3786,-0.3795,-0.3593,-0.3886,-0.4284,-0.4649,-0.4777,-0.4898,-0.5077,-0.5186,-0.5215,-0.5309,-0.5736,-0.6121,-0.6369,-0.6906,-0.7692,-0.8855,-0.8841,-0.9098,-0.9809,-0.957,-0.8987,0.0,0.0,0.0,0.0,0.0,0.0,0.0,0.0,0.0,0.0,0.0,0.0,0.0,0.0,0.0,0.0,0.0,0.0,0.0,0.0,0.0,0.0,0.0,0.0,0.0,-0.7328,-0.6906,-0.6567,-0.6444,-0.6297,-0.6021,-0.5903,-0.5715,-0.5515,-0.5514,-0.5508,-0.5395,-0.5395,-0.551,-0.5756,-0.5588,-0.5581,-0.5751,-0.5744,-0.5593,-0.5378,-0.5243,-0.5182,-0.5031,-0.4324,-0.4027,-0.4109,-0.3719,-0.347,-0.3287,-0.3307,-0.3367,-0.3294,-0.2898,-0.2763,-0.2709,-0.2655,-0.2697,-0.2823,-0.2791,-0.2819,-0.2846,-0.2695,-0.2646,-0.263,-0.2538,-0.2574,-0.2701,-0.2863,-0.3215,-0.36,-0.3851,-0.4166,-0.4427,-0.4581,-0.4296,-0.4027,-0.4068,-0.3811,-0.3786,-0.4279,-0.4091,-0.3865,-0.402,-0.4213,-0.4282,-0.3973,-0.4307,-0.4633,-0.4848,-0.5023,-0.5139,-0.5373,-0.5436,-0.5608,-0.595,-0.6082,-0.6464,-0.7151,-0.7327,-0.8029,-0.9455,-0.904,-0.9248,-1.0221,-0.9735,-0.9541,-0.9634,0.0,0.0,0.0,0.0,0.0,0.0,0.0,0.0,0.0,0.0,0.0,0.0,0.0,0.0,0.0,0.0,0.0,0.0,0.0,0.0,0.0,0.0,0.0,-0.9158,-0.8477,-0.8018,-0.7873,-0.7443,-0.6951,-0.6504,-0.6533,-0.6469,-0.6265,-0.6629,-0.6801,-0.6796,-0.6791,-0.6796,-0.6805,-0.6435,-0.6255,-0.6259,-0.588,-0.5773,-0.5702,-0.5385,-0.5318,-0.5427,-0.4856,-0.4597,-0.4526,-0.4351,-0.429,-0.4278,-0.4094,-0.425,-0.4457,-0.322,-0.2753,-0.2755,-0.2755,-0.2754,-0.2842,-0.2928,-0.3018,-0.3001,-0.2858,-0.2832,-0.2815,-0.2782,-0.2817,-0.2947,-0.3465,-0.3722,-0.3933,-0.4494,-0.462,-0.462,-0.4626,-0.4256,-0.4008,-0.4616,-0.4369,-0.4305,-0.5093,-0.4612,-0.42,-0.4654,-0.4733,-0.4625,-0.4453,-0.4715,0.0,-0.4923,-0.5346,-0.5618,-0.5614,-0.5828,-0.6312,-0.7047,-0.6744,-0.7178,-0.8705,-0.8204,-0.8572,-1.0151,-0.9314,-0.916,-1.0051,-0.9364,-0.9956,-1.1872,0.0,0.0,0.0,0.0,0.0,0.0,0.0,0.0,0.0,0.0,0.0,0.0,0.0,0.0,0.0,0.0,0.0,0.0,0.0,0.0,0.0,-1.1059,-1.0637,-0.9668,-0.9393,-0.9236,-0.9013,-0.8528,-0.8161,-0.8023,-0.7833,-0.7675,-0.7454,-0.7471,-0.7379,-0.7215,-0.6971,-0.6862,-0.7069,-0.7011,-0.7015,-0.7158,-0.6897,-0.6728,-0.6593,-0.6215,-0.6079,-0.6014,-0.5417,-0.5237,-0.5261,-0.4861,-0.4662,-0.4572,-0.4538,-0.4568,-0.4527,-0.4057,-0.3698,-0.3478,-0.3478,-0.3258,-0.2932,-0.3022,-0.3072,-0.3011,-0.2986,-0.3222,-0.3517,-0.3488,-0.38,-0.4128,-0.4306,-0.4575,-0.4836,-0.4785,-0.4968,-0.5322,-0.5435,-0.5329,-0.5335,-0.5687,-0.5696,-0.56,-0.5666,-0.5505,-0.5327,-0.5103,-0.5076,-0.502,-0.4904,-0.4969,-0.5108,-0.5379,-0.5534,-0.5675,-0.58,-0.5891,-0.6248,-0.7017,-0.7218,-0.7795,-0.9006,-0.9261,-0.9906,-1.1007,-1.0646,-1.0656,-1.1154,-1.0898,-1.115,0.0,0.0,0.0,0.0,0.0,0.0,0.0,0.0,0.0,0.0,0.0,0.0,0.0,0.0,0.0,0.0,0.0,0.0,0.0,0.0,0.0,0.0,-1.2464,-1.2362,-1.1664,-1.1054,-1.0622,-1.0566,-0.9918,-0.9484,-0.9484,-0.9095,-0.881,-0.8669,-0.8471,-0.8299,-0.822,-0.7788,-0.7544,-0.7541,-0.7541,-0.7535,-0.7521,-0.7396,-0.727,-0.7158,-0.6839,-0.6654,-0.6554,-0.6149,-0.5898,-0.5832,-0.5539,-0.5338,-0.5318,-0.5255,-0.5251,-0.5266,0.0,0.0,0.0,0.0,-0.4009,-0.3713,-0.3756,-0.3816,-0.3756,-0.371,-0.3944,-0.4185,-0.4133,-0.4402,-0.4631,-0.4631,-0.4859,-0.5004,-0.4841,-0.5259,-0.5656,-0.5681,-0.5874,-0.606,-0.6189,-0.6129,-0.6037,-0.6065,-0.6045,0.0,-0.5687,-0.5479,-0.53,-0.5112,-0.535,-0.5642,-0.5828,-0.6157,-0.6484,-0.6623,-0.6765,-0.7125,-0.7902,-0.7898,0.0,0.0,0.0,-1.0158,-1.1051,-1.1175,0.0,0.0,0.0,-1.208,-1.2816,-1.2493,0.0,0.0,-1.2832,-1.2596,0.0,0.0,0.0,0.0,0.0,0.0,0.0,0.0,0.0,0.0,0.0,0.0,0.0,0.0,0.0,0.0,-1.4164,-1.455,-1.4514,-1.3279,-1.2373,-1.2333,-1.1511,-1.0939,-1.0911,-1.0279,-0.9903,-0.9778,-0.9643,-0.9496,-0.9466,-0.9009,0.0,0.0,0.0,-0.8083,-0.7751,-0.7727,-0.7712,-0.7712,-0.7545,-0.7353,-0.7138,-0.7025,-0.6794,-0.6489,-0.6426,-0.6366,-0.6354,-0.6133,-0.6258,-0.6384,-0.5189,-0.4713,-0.4729,-0.4731,-0.4711,-0.473,-0.4776,0.0,0.0,-0.4748,-0.4775,-0.4817,-0.4755,-0.4803,-0.4906,-0.4926,-0.4947,-0.4979,-0.5011,-0.5456,-0.5869,-0.5709,-0.5984,-0.6317,-0.6254,-0.6086,-0.602,-0.6214,-0.6214,-0.6225,-0.624,-0.5944,-0.5551,-0.5194,-0.572,-0.6199,-0.6228,-0.6961,-0.7515,-0.7735,-0.7929,0.0,-0.9155,-0.8687,-0.9055,-1.0846,-1.021,-1.0083,-1.0771,-1.1298,-1.1715,-1.207,-1.2117,-1.2769,-1.4082,-1.391,-1.411,-1.4627,-1.2579,-1.2203,0.0,0.0,0.0,0.0,0.0,0.0,0.0,0.0,0.0,0.0,0.0,0.0,0.0,0.0,0.0,-1.5067,-1.5525,-1.5998,-1.6308,-1.6141,-1.5417,-1.3991,-1.2956,-1.2277,-1.2034,-1.1503,-1.1002,-1.0376,-1.0588,-1.0588,-1.0281,-1.0514,-1.0479,-1.0276,-1.0013,-0.9778,-0.9507,-0.9162,-0.8924,-0.893,-0.9002,0.0,-0.8613,-0.8678,-0.8635,-0.8409,-0.7584,-0.733,-0.7385,-0.7223,-0.7261,-0.719,-0.5875,-0.5397,-0.5332,-0.4966,-0.4779,-0.4782,-0.4806,-0.4815,-0.4809,-0.4788,-0.5042,-0.5436,-0.5404,-0.5748,0.0,-0.6277,-0.6339,-0.6287,-0.6046,-0.6134,-0.6193,-0.5965,-0.6026,-0.6109,-0.6352,-0.635,-0.6288,-0.635,-0.635,-0.6359,-0.6375,-0.6216,-0.5981,-0.5563,-0.5781,-0.6125,-0.647,-0.6824,-0.7253,-0.7852,-0.8012,-0.8366,-0.9191,-0.9182,-0.9684,-1.115,-1.1548,-1.1809,-1.1957,-1.226,-1.2503,-1.2551,-1.2811,-1.3127,-1.3409,-1.3934,-1.4268,-1.4345,-1.3763,-1.3894,0.0,0.0,0.0,0.0,0.0,0.0,0.0,0.0,0.0,0.0,0.0,-1.5118,-1.5548,0.0,-1.6337,-1.6624,-1.7338,-1.7802,-1.7711,-1.789,-1.732,-1.5376,-1.4546,-1.3894,-1.3274,-1.2838,-1.2465,-1.2063,-1.2007,-1.1852,-1.1689,-1.1646,-1.1471,-1.1198,-1.1066,-1.0721,-1.023,-0.9968,-0.9709,-0.9576,-0.9515,-0.9379,-0.9186,-0.925,-0.9173,-0.8988,-0.835,-0.8161,-0.8156,-0.8037,-0.7972,-0.7907,-0.6929,-0.6342,-0.5951,-0.5683,-0.5617,-0.5617,-0.5617,-0.5617,-0.5617,-0.5617,-0.5749,-0.6032,-0.6119,-0.6289,-0.6406,-0.6464,-0.641,-0.6263,-0.593,-0.6117,-0.6264,-0.6029,-0.6317,-0.6565,-0.656,-0.6613,-0.6683,-0.6683,-0.6755,-0.6826,-0.6707,-0.7006,-0.7085,-0.6575,-0.6762,-0.7178,-0.7732,-0.8177,-0.8543,-0.8861,-0.8966,-0.9228,-0.9748,-1.01,-1.0573,-1.1259,-1.1877,-1.2224,-1.2274,-1.2431,-1.2578,-1.2783,-1.3253,-1.3501,-1.3648,-1.4317,-1.4604,-1.4543,-1.4468,-1.4639,0.0,0.0,0.0,0.0,0.0,0.0,0.0,-1.4739,-1.5164,-1.5602,-1.6047,-1.6503,-1.7158,-1.7359,-1.7621,-1.8132,-1.8895,-1.933,-1.8844,-1.9026,-1.8557,-1.6673,-1.6023,-1.547,-1.4591,-1.4312,-1.4082,-1.3942,-1.3651,-1.3423,-1.3361,-1.3014,-1.268,-1.2336,-1.215,-1.1716,-1.1122,-1.0949,-1.0679,-1.0387,-1.0193,-1.0026,-0.9835,-0.9771,-0.9676,-0.95,-0.9186,-0.8994,-0.8865,-0.8613,-0.8619,-0.8619,-0.7972,-0.7353,-0.6858,-0.6494,-0.644,-0.6469,-0.6432,-0.642,-0.642,-0.642,-0.642,-0.6444,-0.6595,-0.6538,-0.6418,-0.6312,-0.6165,-0.6033,-0.5766,-0.6134,-0.6548,-0.625,-0.6726,-0.7261,-0.6924,-0.6989,-0.7047,-0.7012,-0.7126,-0.7238,-0.7175,-0.7831,-0.8154,-0.7517,-0.7876,-0.8451,-0.9065,-0.9576,-0.9921,-0.9986,-1.0105,-1.0231,-1.0324,-1.0871,-1.1276,-1.1368,-1.1819,-1.2224,-1.2421,-1.2461,-1.2618,-1.2881,-1.3343,-1.3701,-1.3952,-1.4614,-1.4986,-1.5068,-1.5055,-1.5001,-1.4641,-1.45,-1.4699,-1.5169,-1.5313,-1.558,0.0,-1.6352,-1.6317,-1.6732,-1.721,-1.7579,-1.7821,-1.855,-1.916,-1.9198,-1.9566,-1.9802,-1.9726,-1.9647,-1.9183,-1.8104,-1.7239,-1.6583,-1.6075,-1.5993,-1.5751,-1.5175,-1.5577,-1.5755,-1.5486,-1.5402,-1.5275,-1.5056,-1.4134,-1.3485,-1.3254,-1.2961,-1.2662,-1.2483,-1.2416,-1.2196,-1.1718,-1.1588,-1.1439,-1.1233,-1.0465,-0.9958,-0.9646,-0.893,-0.8935,-0.9326,-0.8619,-0.8482,-0.8441,-0.6933,-0.6522,-0.6639,-0.6477,-0.642,-0.642,-0.642,-0.642,-0.6424,-0.6444,-0.6436,-0.6461,-0.6595,-0.664,-0.6664,-0.6766,-0.7082,-0.7314,-0.7179,-0.7415,-0.7715,-0.7509,-0.7535,-0.7482,-0.73,-0.7282,-0.7436,-0.7947,-0.8215,-0.82,-0.7731,-0.8389,-0.911,-0.9621,-0.9885,-1.0182,-1.0624,-1.0724,-1.0653,-1.0494,-1.0769,-1.1175,-1.1628,-1.1968,-1.2393,-1.2919,-1.3025,-1.2987,-1.2725,-1.3085,-1.3293,-1.3404,-1.424,-1.5088,-1.5933,-1.5854,-1.5552,-1.4879,-1.5478,-1.6241,-1.63,-1.6919,-1.7528,-1.7699,-1.7875,-1.8029,-1.839,-1.8933,-1.949,-1.9846,-2.0053,-2.0129,-2.0249,-2.0597,-2.0649,-2.0085,-2.0115,-1.9818,-1.8874,-1.811,-1.7409,-1.6705,-1.6674,-1.6536,-1.627,-1.648,-1.66,-1.6444,-1.6414,-1.6376,-1.6306,-1.587,-1.5472,-1.518,-1.495,-1.463,-1.4222,-1.4222,-1.4016,-1.3599,-1.3388,-1.3147,-1.2885,-1.229,-1.1932,-1.1851,-1.1077,-1.0833,-1.0873,-0.9983,-0.9638,-0.9485,-0.8103,-0.7522,-0.7337,-0.7136,-0.6741,-0.642,-0.642,-0.642,-0.6436,-0.6546,-0.6574,-0.6607,-0.6929,-0.6913,-0.6933,-0.722,-0.7292,-0.7326,-0.7397,-0.7579,-0.7758,-0.7753,-0.7806,-0.7953,-0.8215,-0.8343,-0.8523,-0.9133,-0.979,-1.0202,-1.0014,-0.9987,-1.0245,-1.0898,-1.0852,-1.0821,-1.1066,-1.1344,-1.1464,-1.1358,-1.1791,-1.2154,-1.2304,-1.2638,-1.288,-1.3112,-1.316,-1.317,-1.3094,-1.3841,-1.4399,-1.4687,-1.5626,-1.6362,-1.6885,-1.6802,-1.6623,-1.5589,-1.6617,-1.763,-1.7871,-1.885,-1.9673,-1.9581,-1.9935,-2.03,-2.0358,-2.0643,-2.0972,-2.1202,-2.0826,-2.053,-2.0664,-2.1094,-2.1072,-2.0172,-2.0369,-2.0314,-1.9443,-1.8819,-1.8187,-1.7695,-1.7504,-1.7426,-1.755,-1.755,-1.756,-1.7482,-1.7345,-1.7207,-1.7207,-1.7001,-1.6784,-1.648,-1.6337,-1.6133,-1.5644,-1.5429,-1.5254,-1.509,-1.4751,-1.4521,-1.4251,-1.374,-1.3546,-1.3529,-1.279,-1.2386,-1.2168,-1.14,-1.1001,-1.075,-0.9799,-0.8931,-0.823,-0.7945,-0.7541,-0.7083,-0.7083,-0.695,-0.6856,-0.7121,-0.7069,-0.6919,-0.7249,-0.7195,-0.7174,-0.7442,-0.7451,-0.7371,-0.7522,-0.773,-0.7943,-0.8221,-0.8406,-0.8714,-0.9237,-0.9565,-0.9874,-1.0187,-1.1155,-1.1915,-1.2006,-1.1769,-1.1678,-1.2059,-1.1753,-1.1506,-1.1605,-1.1945,-1.2214,-1.2307,-1.2718,-1.2985,-1.3116,-1.3182,-1.3364,-1.3641,-1.369,-1.38,-1.3875,-1.4696,-1.53,-1.5782,-1.6526,-1.7148,-1.76,-1.7435,-1.7479,-1.7247,-1.7894,-1.8616,-2.0206,-2.1169,-2.1848,-2.2369,-2.2817,-2.3065,-2.2686,-2.2097,-2.1524,-2.1197,-2.054,-2.0107,-2.0096,-2.0551,-2.068,-1.9998,-2.0387,-2.0427,-1.9749,-1.9254,-1.9144,-1.9592,-1.8966,-1.8729,-1.9177,-1.9208,-1.9142,-1.9065,-1.8452,-1.8104,-1.7969,-1.7276,-1.6862,-1.6913,-1.6844,-1.6766,-1.6522,-1.5764,-1.5537,-1.5753,-1.5417,-1.5239,-1.5212,-1.463,-1.4275,-1.4132,-1.3473,-1.3086,-1.2964,-1.2911,-1.275,-1.2364,-1.2009,-1.0738,-0.9157,-0.891,-0.8829,-0.8824,-0.8824,-0.8425,-0.8001,-0.8359,-0.7933,-0.734,-0.7544,-0.746,-0.7353,-0.7548,-0.7664,-0.7801,-0.7801,-0.7943,-0.8287,-0.9195,-0.9592,-0.9893,-1.0196,-1.0805,-1.1272,-1.098,-1.1861,-1.2661,-1.3043,-1.334,-1.3309,-1.2832,-1.2326,-1.2078,-1.2422,-1.2603,-1.2813,-1.315,-1.3137,-1.3295,-1.3811,-1.3557,-1.3807,-1.4806,-1.4974,-1.5092,-1.5122,-1.5319,-1.5553,-1.5912,-1.6063,-1.6797,-1.8038,-1.7479,-1.782,-1.8268,-1.974,-2.1256,-2.1918,-2.3053,-2.3965,-2.4122,-2.4006,-2.3644,-2.3046,-2.2374,-2.1608,-2.0711,-2.009,-1.9909,-2.0379,-2.08,-2.1135,-2.1302,-2.1525,-2.1449,-2.0864,-2.0382,-2.0335,-2.0781,-1.9986,-1.9467,-1.9507,-1.9911,-1.9966,-1.9473,-1.9264,-1.9131,-1.9054,-1.8721,-1.8519,-1.8519,-1.8375,-1.824,-1.8027,-1.7402,-1.684,-1.6475,-1.6205,-1.6239,-1.6534,-1.5756,-1.5645,-1.5999,-1.4878,-1.4408,-1.4197,-1.3865,-1.3556,-1.3283,-1.3284,-1.2733,-1.1767,-1.0179,-0.9314,-0.9017,-0.9247,-0.917,-0.9085,-0.9397,-0.9379,-0.9211,-0.9276,-0.9308,-0.9276,-0.9502,-0.9475,-0.9502,-0.9882,-1.0064,-1.0254,-1.0779,-1.1034,-1.1209,-1.1742,-1.197,-1.2305,-1.2953,-1.3438,-1.3935,-1.4418,-1.4065,-1.3522,-1.2905,-1.3113,-1.3353,-1.3331,-1.3947,-1.4459,-1.4625,-1.4774,-1.4862,-1.4683,-1.49,-1.501,-1.5007,-1.5372,-1.5701,-1.5946,-1.6277,-1.6677,-1.719,-1.7573,-1.8105,-1.8709,-1.8483,-1.8602,-2.0401,-2.2041,-2.362,-2.439,-2.5101,-2.564,-2.564,-2.5145,-2.4406,-2.3271,-2.2531,-2.1621,-2.0372,-1.9789,-1.9562,-1.9727,-2.0067,-2.0488,-2.1081,-2.1397,-2.1724,-2.1955,-2.1621,-2.151,-2.1955,-2.1463,-2.0881,-2.0473,-2.0794,-2.0858,-2.0366,-2.0366,-2.0366,-2.0302,-2.0172,-2.0107,-2.0107,-2.0031,-1.9814,-1.9576,-1.9319,-1.8762,-1.7841,-1.7892,-1.793,-1.7964,-1.7196,-1.7078,-1.7459,-1.6198,-1.5749,-1.5722,-1.5023,-1.4559,-1.4355,-1.4279,-1.3979,-1.3385,-1.1777,-1.0857,-1.0457,-1.0638,-1.051,-1.0311,-1.0719,-1.0706,-1.0527,-1.0663,-1.0694,-1.0671,-1.0895,-1.0796,-1.0765,-1.1087,-1.1127,-1.1237,-1.1774,-1.2044,-1.2319,-1.2855,-1.3216,-1.3536,-1.401,-1.4443,-1.4765,-1.5149,-1.4921,-1.4429,-1.3719,-1.3863,-1.4098,-1.443,-1.5067,-1.5524,-1.5807,-1.5951,-1.5924,-1.56,-1.5749,-1.5771,-1.578,-1.6078,-1.6476,-1.6956,-1.7221,-1.7592,-1.8066,-1.8448,-1.8721,-1.8987,-1.8987,-1.8987,-2.3547,-2.4648,-2.5695,-2.7278,-2.725,-2.6764,-2.6712,-2.6164,-2.5236,-2.3485,-2.2473,-2.1482,-2.0232,-1.9585,-1.9103,-1.8509,-1.8696,-1.914,-1.9732,-2.0444,-2.1523,-2.3043,-2.2854,-2.274,-2.3185,-2.3283,-2.2982,-2.2209,-2.2061,-2.1913,-2.1651,-2.1874,-2.1898,-2.1698,-2.1698,-2.1698,-2.1698,-2.1663,-2.1381,-2.09,-2.1334,-2.0979,-1.9843,-2.0271,-2.0128,-1.9513,-1.885,-1.8578,-1.8509,-1.7418,-1.7209,-1.7445,-1.6465,-1.597,-1.5702,-1.5241,-1.4675,-1.4081,-1.376,-1.3324,-1.2989,-1.296,-1.2448,-1.1846,-1.2284,-1.188,-1.1344,-1.1752,-1.1708,-1.1572,-1.1758,-1.1702,-1.1508,-1.1585,-1.1434,-1.1505,-1.2269,-1.2727,-1.3137,-1.3561,-1.4561,-1.5064,-1.4447,-1.4913,-1.5386,-1.5386,-1.5938,-1.6143,-1.5274,-1.4629,-1.4613,-1.5731,-1.591,-1.6134,-1.6581,-1.6601,-1.6546,-1.6514,-1.6131,-1.6254,-1.6938,-1.7047,-1.7379,-1.8127,-1.8139,-1.8302,-1.8614,-1.8614,-1.8774,-1.8987,-1.8987,-1.8987,-2.5506,-2.6827,-2.774,-2.7667,-2.7863,-2.7715,-2.6356,-2.5262,-2.406,-2.2403,-2.1265,-2.0089,-1.8725,-1.8882,-1.9355,-1.9716,-2.0348,-2.1466,-2.3301,-2.3768,-2.4184,-2.5003,-2.4991,-2.4965,-2.5107,-2.5231,-2.5279,-2.5032,-2.4078,-2.3231,-2.2651,-2.3075,-2.328,-2.3215,-2.3149,-2.3096,-2.3096,-2.2486,-2.1773,-2.09,-2.103,-2.0747,-2.0111,-2.0252,-2.0393,-2.0497,-1.996,-1.9901,-2.0109,-1.9424,-1.9182,-1.9179,-1.8739,-1.823,-1.7725,-1.7488,-1.7022,-1.6439,-1.636,-1.5359,-1.4136,-1.4254,-1.4082,-1.3886,-1.3735,-1.3484,-1.336,-1.344,-1.3476,-1.3432,-1.344,-1.3476,-1.3417,-1.3569,-1.3573,-1.3648,-1.3939,-1.408,-1.419,-1.4316,-1.5519,-1.6696,-1.7005,-1.7525,-1.7854,-1.7854,-1.7821,-1.7081,-1.5446,-1.5933,-1.6421,-1.6346,-1.6794,-1.7074,-1.7132,-1.7102,-1.6929,-1.6535,-1.697,-1.7165,-1.7025,-1.7534,-1.8012,-1.8452,-1.8452,-1.8614,-1.8881,-1.8881,-1.8934,-1.8987,-1.8987,-1.9052,-2.7691,-2.8715,-2.9304,-2.8622,-2.8132,-2.7309,-2.5775,-2.4302,-2.2898,-2.1491,-2.0543,-1.9696,-1.8446,-1.8783,-1.9255,-1.9246,-1.9852,-2.1067,-2.3141,-2.3725,-2.4531,-2.6007,-2.6317,-2.638,-2.619,-2.6618,-2.6808,-2.6526,-2.5595,-2.4869,-2.4482,-2.476,-2.4912,-2.4912,-2.4796,-2.4732,-2.468,-2.4279,-2.3629,-2.2687,-2.2747,-2.2337,-2.1453,-2.1453,-2.1445,-2.1378,-2.1129,-2.1121,-2.1204,-2.0716,-2.0555,-2.0629,-2.003,-1.9675,-1.9376,-1.8791,-1.8291,-1.7904,-1.7801,-1.7123,-1.6218,-1.5779,-1.5505,-1.5402,-1.5255,-1.5171,-1.5242,-1.5321,-1.5321,-1.5321,-1.5321,-1.5321,-1.533,-1.5471,-1.5471,-1.5542,-1.5675,-1.5865,-1.6036,-1.6344,-1.7084,-1.7895,-1.8452,-1.8825,-1.8984,-1.906,-1.9155,-1.8686,-1.7116,-1.7379,-1.7601,-1.7287,-1.7459,-1.7571,-1.7311,-1.7278,-1.7158,-1.6874,-1.739,-1.7632,-1.7512,-1.8043,-1.8452,-1.8774,-1.8774,-1.8827,-1.8987,-1.8987,-1.8987,-1.8987,-1.9291,-1.9356,-2.9879,-3.0386,-3.051,-2.9875,-2.8396,-2.6744,-2.5283,-2.3603,-2.1994,-2.0684,-2.0229,-1.9778,-1.8831,-1.9047,-1.914,-1.8399,-1.8839,-1.9903,-2.1655,-2.255,-2.4023,-2.6538,-2.7227,-2.733,-2.7152,-2.7759,-2.7974,-2.7469,-2.7047,-2.6789,-2.6708,-2.6653,-2.6644,-2.6534,-2.6534,-2.6432,-2.6228,-2.6272,-2.594,-2.5189,-2.523,-2.4588,-2.3428,-2.3328,-2.3011,-2.2431,-2.2389,-2.2334,-2.2266,-2.1725,-2.1716,-2.1972,-2.1027,-2.0783,-2.0838,-1.9832,-1.9313,-1.9077,-1.8881,-1.8786,-1.8518,-1.7346,-1.6773,-1.6507,-1.6645,-1.6636,-1.6706,-1.6862,-1.6932,-1.6932,-1.6932,-1.6932,-1.6932,-1.6932,-1.7001,-1.701,-1.7176,-1.7582,-1.8128,-1.8695,-1.881,-1.8972,-1.9429,-1.9544,-1.9658,-1.981,-2.0347,-2.0406,-1.9525,-1.8881,-1.838,-1.8205,-1.804,-1.7752,-1.7322,-1.7379,-1.7379,-1.7278,-1.7601,-1.792,-1.8182,-1.8452,-1.8774,-1.9146,-1.9093,-1.9093,-1.9146,-1.9146,-1.9198,-1.9251,-1.9798,-1.985,-3.1298,-3.1687,-3.1552,-3.0925,-2.9638,-2.8059,-2.583,-2.39,-2.2098,-2.0443,-1.9944,-1.9707,-1.9199,-1.944,-1.9849,-2.0291,-2.0841,-2.1871,-2.3721,-2.4848,-2.6058,-2.7536,-2.8247,-2.885,-2.9226,-2.9582,-2.9768,-2.9654,-2.9743,-2.9454,-2.8675,-2.8532,-2.8284,-2.7773,-2.7773,-2.7533,-2.7013,-2.6534,-2.623,-2.6079,-2.5572,-2.5439,-2.564,-2.5177,-2.4914,-2.4819,-2.4343,-2.4072,-2.3874,-2.367,-2.3573,-2.3475,-2.3124,-2.2695,-2.2262,-2.2043,-2.158,-2.1109,-2.1077,-2.0658,-1.9943,-1.8312,-1.7765,-1.7619,-1.7001,-1.6862,-1.6862,-1.6862,-1.6932,-1.6932,-1.7042,-1.7042,-1.7111,-1.7267,-1.7335,-1.743,-1.782,-1.829,-1.8831,-1.9561,-2.0025,-2.0454,-2.1146,-2.1563,-2.1814,-2.1889,-2.1975,-2.1723,-2.0807,-2.0281,-1.9547,-1.8473,-1.8319,-1.804,-1.7355,-1.7689,-1.7788,-1.7334,-1.7952,-1.8417,-1.8566,-1.8602,-1.9028,-1.9978,-1.9668,-1.9668,-1.9965,-1.9965,-2.0118,-2.0308,-2.0459,-2.0597,-3.182,-3.2038,-3.1777,-3.0745,-2.923,-2.7506,-2.5385,-2.3435,-2.178,-2.063,-2.0284,-2.005,-1.9732,-1.9922,-2.0244,-2.0497,-2.1107,-2.2267,-2.4246,-2.5506,-2.6792,-2.8302,-2.9275,-2.9827,-2.9889,-3.0421,-3.0719,-3.069,-3.1145,-3.091,-2.9867,-2.9779,-2.9642,-2.9373,-2.9373,-2.9143,-2.8761,-2.8605,-2.8264,-2.7838,-2.7669,-2.7582,-2.7458,-2.6854,-2.6603,-2.6534,-2.584,-2.5702,-2.5882,-2.5412,-2.5396,-2.562,-2.5156,-2.478,-2.4387,-2.4053,-2.3667,-2.3225,-2.2907,-2.232,-2.169,-2.0828,-1.9777,-1.8787,-1.8442,-1.8307,-1.8307,-1.8307,-1.8476,-1.8645,-1.8773,-1.8933,-1.9163,-1.9253,-1.9332,-1.9524,-2.0022,-2.037,-2.0752,-2.1062,-2.1313,-2.1627,-2.1929,-2.2196,-2.2507,-2.2968,-2.3276,-2.3301,-2.2784,-2.2514,-2.1544,-1.9499,-1.9404,-1.9182,-1.8642,-1.8826,-1.8764,-1.8205,-1.8762,-1.9109,-1.9162,-1.9331,-1.9656,-2.0182,-2.0029,-2.0029,-2.0182,-2.0182,-2.0321,-2.061,-2.0957,-2.1153,-3.1848,-3.2028,-3.1814,-3.0586,-2.8755,-2.6811,-2.5093,-2.3085,-2.1476,-2.0964,-2.0728,-2.0561,-2.0308,-2.039,-2.0423,-2.0406,-2.0991,-2.212,-2.4096,-2.5532,-2.7064,-2.8828,-3.0045,-3.0629,-3.0495,-3.1102,-3.1507,-3.1477,-3.2048,-3.1894,-3.0807,-3.0807,-3.0748,-3.0569,-3.0569,-3.048,-3.0332,-3.035,-3.0134,-2.9637,-2.965,-2.9496,-2.9129,-2.8518,-2.8174,-2.8145,-2.7365,-2.7316,-2.7726,-2.7089,-2.7157,-2.7591,-2.7028,-2.6695,-2.6438,-2.5893,-2.5519,-2.523,-2.4618,-2.3998,-2.3438,-2.3438,-2.1882,-2.0118,-2.0227,-2.0129,-1.9963,-2.0126,-2.0304,-2.0466,-2.0466,-2.0802,-2.1069,-2.1129,-2.1496,-2.1963,-2.2121,-2.244,-2.2756,-2.2889,-2.2889,-2.2878,-2.301,-2.2921,-2.3153,-2.394,-2.4327,-2.4519,-2.4462,-2.428,-2.3417,-2.1299,-2.0848,-2.0582,-2.014,-2.0068,-1.9836,-1.9274,-1.9562,-1.9759,-1.9759,-1.9965,-2.022,-2.0422,-2.0372,-2.0372,-2.0523,-2.0523,-2.0709,-2.1042,-2.1554,-2.1732,-3.1289,-3.1936,-3.2173,-3.1443,-2.9311,-2.7057,-2.5858,-2.3608,-2.1642,-2.1149,-2.1103,-2.1071,-2.0861,-2.0545,-2.047,-2.0956,-2.1133,-2.1892,-2.3758,-2.5542,-2.7315,-2.9085,-3.0547,-3.1537,-3.1951,-3.2287,-3.2468,-3.2468,-3.2718,-3.2484,-3.1622,-3.1721,-3.1462,-3.0867,-3.0867,-3.0867,-3.0867,-3.0293,-3.0253,-3.0764,-3.0228,-3.0188,-3.0572,-3.0051,-2.9811,-2.9743,-2.9188,-2.8971,-2.903,-2.8741,-2.8715,-2.8703,-2.8536,-2.8197,-2.781,-2.7738,-2.7239,-2.6648,-2.6573,-2.5919,-2.5192,-2.5192,-2.3541,-2.1702,-2.2261,-2.1843,-2.123,-2.1812,-2.1498,-2.0994,-2.1167,-2.1269,-2.1301,-2.1511,-2.2648,-2.3595,-2.2973,-2.3428,-2.4192,-2.466,-2.4732,-2.4933,-2.5402,-2.5046,-2.4901,-2.553,-2.5176,-2.4902,-2.5013,-2.4534,-2.4149,-2.4124,-2.273,-2.1535,-2.102,-2.0999,-2.0749,-2.0126,-2.0141,-2.0194,-2.0321,-2.0016,-2.0308,-2.1277,-2.0908,-2.1055,-2.165,-2.165,-2.1935,-2.2417,-2.2463,-2.2601,-3.0926,-3.1874,-3.2044,-3.0566,-2.883,-2.6977,-2.5105,-2.3228,-2.1752,-2.1359,-2.123,-2.1183,-2.1103,-2.0925,-2.0873,-2.1108,-2.1072,0.0,-2.3717,-2.4872,-2.6504,-2.9291,-3.047,-3.1467,-3.2532,-3.2718,-3.2773,-3.2773,-3.2951,-3.2881,-3.2578,-3.2523,-3.2398,-3.2104,-3.2089,-3.2201,-3.2351,-3.209,-3.2222,-3.2699,-3.2483,-3.251,-3.278,-3.2133,-3.1876,-3.1795,-3.1087,-3.0916,-3.1114,-3.0556,-3.0473,-3.0683,-3.0201,-2.9914,-2.974,-2.974,-2.9521,-2.9226,-2.8969,-2.8293,-2.7441,-2.7188,-2.5994,-2.454,-2.3924,-2.347,-2.3191,-2.3285,-2.3288,-2.3317,-2.3397,-2.3711,-2.4015,-2.4084,-2.4587,-2.5021,-2.4742,-2.492,-2.5217,-2.5405,-2.5487,-2.5545,-2.5755,-2.5276,-2.5173,-2.6002,-2.5954,-2.5993,-2.6629,-2.6634,-2.6485,-2.6156,-2.4196,-2.2827,-2.2661,-2.2335,-2.1864,-2.1263,-2.0974,-2.0822,-2.0871,-2.0822,-2.1068,-2.1616,-2.1506,-2.1589,-2.2044,-2.2044,-2.2231,-2.2615,-2.2987,-2.3267,-2.98,-3.1124,-3.1374,-2.9354,-2.7767,-2.619,-2.4198,-2.2534,-2.1407,-2.142,-2.1356,-2.131,-2.1262,-2.1247,-2.1263,0.0,0.0,-2.1917,-2.3533,-2.4381,-2.5764,-2.8403,-2.942,-3.0464,-3.1888,-3.2591,-3.3005,-3.3096,-3.3203,-3.3293,-3.3398,-3.3309,-3.3203,-3.3005,-3.3112,-3.3203,-3.3414,-3.3503,-3.371,-3.3949,-3.3949,-3.4,-3.4084,-3.3632,-3.3405,-3.3372,-3.2741,-3.2659,-3.286,-3.2352,-3.232,-3.2485,-3.1998,-3.1758,-3.1645,-3.1645,-3.1474,-3.1245,-3.0881,-3.0235,-2.9549,-2.9128,-2.8377,-2.7482,-2.6456,-2.5576,-2.4931,-2.4909,-2.5019,-2.5098,-2.5098,-2.5598,-2.6102,-2.5824,-2.6032,-2.6239,-2.6032,-2.6102,-2.6171,-2.6377,-2.6445,-2.6569,-2.6773,-2.6289,-2.6242,-2.722,-2.7105,-2.7269,-2.8387,-2.8533,-2.8418,-2.806,-2.6178,-2.4781,-2.4366,-2.3784,-2.3256,-2.2823,-2.2165,-2.1779,-2.1779,-2.165,-2.1794,-2.2166,-2.2033,-2.2127,-2.2593,-2.2409,-2.2463,-2.2721,-2.3166,-2.3609,-2.7655,-2.9279,-3.0138,-2.803,-2.6146,-2.4524,-2.3378,-2.16,-2.0451,-2.124,-2.1495,-2.1559,-2.1417,-2.1511,-2.1542,-2.1417,-2.194,0.0,-2.3125,-2.4233,-2.5274,-2.6068,-2.7127,-2.8388,-2.9894,-3.1872,-3.3256,-3.3658,-3.3694,-3.3797,-3.4101,-3.4101,-3.3848,-3.3293,-3.3555,-3.3694,-3.371,-3.3949,-3.4101,-3.4101,-3.4101,-3.4101,-3.4101,-3.4084,-3.4084,-3.4084,-3.4084,-3.4084,-3.4084,-3.4084,-3.4084,-3.4101,-3.405,-3.3799,-3.3375,-3.3375,-3.287,-3.2173,-3.187,-3.1573,-3.12,-3.0954,-3.0585,-3.0254,-3.024,-2.8296,-2.6191,-2.6755,-2.6364,-2.5812,-2.5812,-2.6364,-2.6718,-2.5963,-2.6676,-2.731,-2.6582,-2.6744,-2.7175,-2.7643,-2.8039,-2.8417,-2.8958,-2.8602,-2.8457,-2.9456,-2.8775,-2.8703,-3.0061,-2.9781,-2.9552,-2.9952,-2.8788,-2.7467,-2.599,-2.5317,-2.4966,-2.4952,-2.3786,-2.3083,-2.3083,-2.2507,-2.2465,-2.3069,-2.2493,-2.2621,-2.3483,-2.2869,-2.2706,-2.2888,-2.3037,-2.3478,-2.5141,-2.6522,-2.7099,-2.5053,-2.4196,-2.3497,-2.2231,-2.1142,-2.0626,-2.1439,-2.1603,-2.1603,-2.1587,-2.1634,-2.1751,-2.2117,-2.2458,-2.2981,-2.3887,-2.5141,-2.6631,-2.8426,-3.0698,-3.2288,-3.2737,-3.3411,-3.3848,-3.3949,-3.3949,-3.4,-3.4101,-3.4101,-3.4,-3.3848,-3.3949,-3.405,-3.425,-3.4349,-3.4448,-3.4643,-3.4739,-3.4787,-3.4804,-3.4899,-3.4899,-3.4899,-3.4899,-3.4804,-3.4643,-3.4643,-3.4497,-3.425,-3.425,-3.4084,-3.3866,-3.3866,-3.3748,-3.3459,-3.3045,-3.264,-3.2353,-3.1896,-3.1558,-3.12,-3.1056,-2.9825,-2.8493,-2.8529,-2.8363,-2.8168,-2.8168,-2.8454,-2.8675,-2.8454,-2.8675,-2.8881,-2.8661,-2.8675,-2.8817,-2.9022,-2.9359,-2.9845,-3.0486,-3.0384,-3.0408,-3.1122,-3.0671,-3.0308,-3.0675,-3.0719,-3.0656,-3.038,-2.987,-2.9034,-2.755,-2.6447,-2.5835,-2.5835,-2.4901,-2.4293,-2.4195,-2.3926,-2.3877,-2.4175,-2.3669,-2.3548,-2.3891,-2.3374,-2.3551,-2.4461,-2.4978,-2.56,0.0,-2.4713,-2.5212,-2.3393,-2.3144,-2.3013,-2.1906,-2.1201,-2.096,-2.1691,-2.1797,-2.1768,-2.1768,-2.1797,-2.19,-2.224,-2.2783,-2.3342,-2.3779,-2.5405,-2.7276,-2.9264,-3.1554,-3.3096,-3.3275,-3.3777,-3.4151,-3.425,-3.43,-3.4349,-3.4448,-3.4546,-3.4546,-3.4546,-3.4399,-3.4448,-3.4643,-3.4739,-3.4899,-3.5041,-3.5152,-3.5198,-3.5198,-3.5245,-3.5291,-3.5291,-3.5291,-3.5198,0.0,-3.5041,-3.4899,-3.4691,-3.4691,-3.4643,-3.4546,-3.4546,-3.4497,-3.4431,-3.4052,-3.3716,-3.3427,-3.3029,-3.2678,-3.2268,-3.1952,-3.1028,-3.004,-2.995,-2.9875,-2.9875,-2.9875,-3.0025,-3.0101,-3.0101,-3.0101,-3.0101,-3.0101,-3.0101,-3.0101,-3.0101,-3.0638,-3.1276,-3.1687,-3.1708,-3.1901,-3.2646,-3.1901,-3.1379,-3.188,-3.197,-3.1946,-3.1751,-3.1254,-3.0557,-2.9638,-2.8069,-2.7116,-2.7018,-2.6354,-2.5931,-2.5836,-2.5503,-2.5423,-2.5545,-2.4973,-2.4781,-2.4905,-2.4351,-2.4471,-2.5269,-2.5933,-2.6515,0.0,-2.3701,-2.4147,-2.2735,-2.2734,-2.2899,-2.2209,0.0,0.0,0.0,-2.2084,-2.1998,-2.1957,-2.1998,-2.2015,-2.1995,-2.304,-2.3638,-2.3139,-2.5343,-2.762,-2.9058,-3.0555,-3.1622,-3.2085,-3.3356,-3.43,-3.4594,-3.4691,-3.4851,-3.5088,-3.5245,-3.5291,-3.5291,-3.4947,-3.4787,-3.4947,-3.5198,-3.5291,-3.5291,-3.5291,-3.5291,-3.5291,-3.5337,-3.5337,-3.5337,-3.5337,-3.5337,-3.5337,-3.5337,-3.5291,-3.5291,-3.5291,-3.5291,-3.5291,-3.5291,-3.5198,-3.5088,-3.4851,-3.4643,-3.4497,-3.425,-3.3901,-3.3427,-3.3008,-3.1982,-3.1028,-3.1028,-3.1028,-3.1028,-3.1028,-3.1028,-3.1028,-3.1028,-3.1028,-3.1028,-3.1028,-3.1028,-3.1028,-3.1028,-3.187,-3.2658,-3.2719,-3.2808,-3.3167,-3.4012,-3.2773,-3.2224,-3.3572,-3.3372,-3.3251,-3.363,-3.2757,-3.2091,-3.1931,-3.0005,-2.8685,-2.8432,-2.8061,-2.7839,-2.7823,-2.7212,-2.6958,-2.7162,-2.652,-2.6196,-2.6268,-2.5768,-2.5533,-2.5612,-2.627,-2.6681,-2.203,0.0,-2.2102,-2.1259,-2.1558,-2.1979,0.0,0.0,0.0,0.0,0.0,0.0,0.0,-2.2332,-2.2491,-2.2755,-2.3608,-2.4246,-2.4397,-2.7432,-3.0112,-3.1385,-3.2998,-3.3798,-3.3203,-3.4218,-3.5055,-3.5554,-3.5333,-3.5198,-3.5245,-3.5291,-3.5354,-3.5446,-3.5354,-3.5291,-3.5198,-3.5245,-3.5291,-3.5291,-3.5383,-3.5446,-3.5446,-3.5503,-3.5532,-3.5532,-3.5532,-3.5532,-3.5532,-3.5532,-3.5503,-3.5446,-3.5446,-3.54,-3.5291,-3.5291,-3.5291,-3.5245,-3.5198,-3.5152,-3.5088,-3.5041,-3.4787,-3.4529,-3.4301,-3.3323,-3.2275,-3.2275,-3.2275,-3.2275,-3.2275,-3.2275,-3.2275,-3.2275,-3.2275,-3.2275,-3.2275,-3.2275,-3.2275,-3.2275,-3.3232,-3.4235,-3.4785,-3.5601,-3.6047,-3.5735,-3.5329,-3.4856,-3.4253,-3.4081,-3.3858,-3.3518,-3.3414,-3.285,-3.1491,-3.0251,-2.9572,-2.9589,-2.9323,-2.9166,-2.915,-2.8901,-2.8751,-2.8667,-2.8034,-2.7498,-2.7135,-2.7353,-2.7525,-2.7687,-2.8261,-2.859,-2.2457,-2.1836,-2.1079,-2.0703,-2.1214,-2.1812,0.0,0.0,0.0,0.0,0.0,0.0,0.0,0.0,-2.3285,-2.3413,-2.435,-2.5473,-2.6654,-2.8486,-3.0563,-3.285,-3.3859,-3.4489,-3.4833,-3.5378,-3.5803,-3.589,-3.5766,-3.5577,-3.5383,-3.5412,-3.5458,-3.5566,-3.5566,-3.5503,-3.5458,-3.5458,-3.5458,-3.5458,-3.5503,-3.5566,-3.5566,-3.5577,-3.5622,-3.5622,-3.5622,-3.5622,-3.5622,-3.5622,-3.5594,-3.5566,-3.5566,-3.5503,-3.5458,-3.5458,-3.5429,-3.54,-3.54,-3.5337,-3.5291,-3.5291,-3.5198,-3.5041,-3.4947,-3.4399,-3.3802,-3.3459,-3.3355,-3.3355,-3.3355,-3.3355,-3.3355,-3.3355,-3.3355,-3.3355,-3.3355,-3.3355,-3.3355,-3.3355,-3.4101,-3.4867,-3.5284,-3.5884,-3.6287,-3.6275,-3.576,-3.5175,-3.4821,-3.4644,-3.4526,-3.43,-3.411,-3.3684,-3.2904,-3.1586,-3.0645,-3.0248,-3.0215,-3.0199,-3.0182,-3.014,-2.9951,-2.9613,-2.9066,-2.8594,-2.834,-2.855,-2.8742,-2.8874,-2.917,-2.9345,-2.3217,-2.2002,-2.0758,-2.079,-2.1418,-2.1996,0.0,0.0,0.0,0.0,0.0,0.0,0.0,-2.3458,0.0,-2.4071,-2.5385,-2.7235,-2.9572,-2.9731,-3.0762,-3.3786,-3.4145,-3.4714,-3.6138,-3.6452,-3.6405,-3.6062,-3.6097,-3.5958,-3.5537,-3.5594,-3.5622,-3.5622,-3.5622,-3.5622,-3.5622,-3.5622,-3.5622,-3.5622,-3.5622,-3.5622,-3.5622,-3.5622,-3.5622,-3.5622,-3.5667,-3.5667,-3.5622,-3.5667,-3.5622,-3.5622,-3.5622,-3.5622,-3.5622,-3.5622,-3.5549,-3.5537,-3.5537,-3.5429,-3.5337,-3.5337,-3.5337,-3.5337,-3.5198,-3.5245,-3.5182,-3.4497,-3.425,-3.425,-3.425,-3.4201,-3.4201,-3.4201,-3.4201,-3.4201,-3.4201,-3.4201,-3.425,-3.425,-3.4769,-3.5256,-3.5307,-3.5405,-3.5701,-3.6397,-3.5481,-3.4906,-3.5449,-3.5309,-3.5249,-3.5379,-3.4928,-3.4669,-3.4775,-3.3342,-3.1999,-3.1022,-3.0945,-3.0952,-3.0992,-3.0992,-3.0757,-3.0293,-2.9892,-2.9673,-2.9673,-2.9673,-2.9673,-2.9673,-2.9673,-2.9717,-2.3217,-2.2099,-2.11,-2.165,-2.189,-2.1996,0.0,0.0,0.0,0.0,0.0,0.0,0.0,-2.3552,-2.364,-2.5095,-2.7034,-2.9575,-3.303,-3.348,-3.3654,-3.4199,-3.534,-3.588,-3.5421,-3.6186,-3.6706,-3.6724,-3.6433,-3.6088,-3.5622,-3.5577,-3.5622,-3.5622,-3.5622,-3.5622,-3.5622,-3.5622,-3.5622,-3.5622,-3.5622,-3.5622,-3.5622,-3.5728,-3.5773,-3.5773,-3.5888,-3.5844,-3.5773,-3.5888,-3.58,-3.5622,-3.5711,-3.5711,-3.5622,-3.5622,-3.5577,-3.5577,-3.5577,-3.5577,-3.5532,-3.5532,-3.5532,-3.5549,-3.5475,-3.5446,-3.5446,-3.5198,-3.5041,-3.4899,-3.4804,-3.4804,-3.4804,-3.4804,-3.4804,-3.4804,-3.4804,-3.4804,-3.4787,-3.4947,-3.5544,-3.6058,-3.6204,-3.672,-3.7084,-3.6924,-3.6729,-3.657,-3.6506,-3.6433,-3.6261,-3.5754,-3.6217,-3.6064,-3.4806,-3.4438,-3.3965,-3.3159,-3.1867,-3.123,-3.1402,-3.1291,-3.1179,-3.1123,-3.0998,-3.0918,-3.0918,-3.0797,-3.0797,-3.0918,-3.0797,-3.0838,-2.3265,-2.2458,-2.1662,-2.197,-2.1786,-2.1511,0.0,0.0,0.0,0.0,0.0,0.0,0.0,0.0,-2.615,-2.8639,-3.0196,-3.1675,-3.3348,-3.3476,-3.3811,-3.4958,-3.5563,-3.6096,-3.6766,-3.7238,-3.7432,-3.7246,-3.686,-3.6451,-3.6002,-3.5739,-3.5622,-3.5728,-3.5728,-3.5756,-3.58,-3.58,-3.58,-3.5728,-3.58,-3.58,-3.58,-3.5888,-3.5905,-3.5905,-3.5975,-3.5975,-3.5888,-3.5975,-3.5932,-3.5844,-3.5888,-3.5844,-3.58,-3.58,-3.5756,-3.5728,-3.5728,-3.5667,-3.5622,-3.5622,-3.5622,-3.5577,-3.5537,-3.552,-3.5503,-3.5337,-3.5245,-3.5198,-3.5135,-3.5105,-3.5105,-3.5105,-3.5105,-3.5105,-3.5105,-3.5105,-3.5135,-3.5198,-3.5465,-3.5699,-3.581,-3.6295,-3.6593,-3.6549,-3.6724,-3.6821,-3.6701,-3.6746,-3.6742,-3.662,-3.6847,-3.6832,-3.6363,-3.5757,-3.4623,-3.2809,-3.2031,-3.1579,-3.1517,-3.1462,-3.1406,-3.1406,-3.1385,-3.1346,-3.1346,-3.1308,-3.1308,-3.1346,-3.1308,-3.1308,-2.336,-2.2787,-2.222,-2.2407,0.0,0.0,0.0,0.0,0.0,0.0,0.0,0.0,0.0,-2.6566,-2.8771,-3.1353,-3.2853,-3.3831,-3.4186,-3.4067,-3.4551,-3.6186,-3.6131,-3.6582,-3.8099,-3.8225,-3.802,-3.7596,-3.7246,-3.686,-3.6451,-3.5942,-3.5797,-3.6071,-3.59,-3.5882,-3.5966,-3.618,-3.6199,-3.5975,-3.6088,-3.6216,-3.6284,-3.6308,-3.6224,-3.6156,-3.6284,-3.6284,-3.6156,-3.6326,-3.6326,-3.6284,-3.6199,-3.6156,-3.6174,-3.6241,-3.6199,-3.6114,-3.6071,-3.6028,-3.5941,-3.5898,-3.5898,-3.5898,-3.5844,-3.5871,-3.5854,-3.5739,-3.565,-3.5622,-3.5383,-3.5291,-3.5291,-3.5291,-3.5367,-3.5458,-3.5458,-3.5532,-3.5605,-3.5605,-3.5605,-3.565,-3.565,-3.5924,-3.619,-3.6416,-3.6666,-3.6943,-3.7058,-3.7152,-3.7321,-3.7506,-3.7396,-3.7416,-3.7575,-3.6808,-3.5296,-3.2915,-3.2406,-3.2074,-3.1802,-3.1783,-3.1783,-3.1783,-3.1671,-3.1596,-3.1596,-3.1555,-3.1517,-3.1517,-3.1517,-3.1517,-2.3517,-2.2928,-2.2565,-2.3386,-2.2785,0.0,0.0,0.0,0.0,-2.5805,0.0,0.0,0.0,-2.8037,-3.0023,-3.0921,-3.3738,-3.6279,-3.7711,-3.7911,-3.7932,-3.8011,-3.8011,-3.808,-3.8256,-3.8259,-3.8072,-3.7703,-3.7559,-3.7266,-3.686,-3.6197,-3.611,-3.6886,-3.6259,-3.5909,-3.5909,-3.6783,-3.6981,-3.6539,-3.6539,-3.6764,-3.7114,-3.7155,-3.7002,-3.6666,-3.719,-3.7114,-3.6706,-3.719,-3.7266,-3.7058,-3.6786,-3.6603,-3.658,-3.696,-3.7114,-3.7058,-3.6943,-3.6904,-3.6904,-3.6821,-3.6821,-3.6821,-3.6781,-3.6781,-3.6821,-3.6781,-3.6781,-3.6539,-3.5577,-3.5291,-3.5291,-3.5291,-3.5605,-3.5864,-3.5864,-3.6172,-3.6429,-3.6586,-3.6586,-3.6626,-3.6781,-3.6821,-3.6978,-3.734,-3.7414,-3.7614,-3.8104,-3.8189,-3.8223,-3.8223,-3.8252,-3.8008,-3.7298,-3.7215,-3.6667,-3.5389,-3.3695,-3.2731,-3.2699,-3.2651,-3.2603,-3.2603,-3.2179,-3.1967,-3.1967,-3.1634,-3.1517,-3.1517,-3.1517,-3.1517,-2.3562,-2.371,-2.3867,-2.3739,0.0,0.0,0.0,0.0,-2.6268,-2.6263,-2.7296,0.0,0.0,-2.986,-3.1816,-3.2593,-3.5031,-3.7186,-3.8269,-3.8354,-3.8307,-3.8322,-3.8307,-3.8307,-3.8336,-3.8336,-3.8271,-3.8135,-3.7879,-3.7596,-3.7451,-3.6448,-3.6037,-3.6447,-3.6146,-3.6077,-3.6131,-3.6506,-3.672,-3.6791,-3.7035,-3.7228,-3.7377,-3.7414,-3.7323,-3.7228,-3.7414,-3.7377,-3.721,-3.7432,-3.7469,-3.7377,-3.7266,-3.719,-3.719,-3.734,-3.7323,-3.7248,-3.7173,-3.7058,-3.6981,-3.6921,-3.69,-3.69,-3.69,-3.69,-3.69,-3.69,-3.69,-3.6821,-3.6374,-3.6291,-3.6291,-3.6291,-3.6416,-3.6522,-3.6522,-3.6643,-3.6746,-3.6803,-3.6803,-3.6843,-3.69,-3.7132,-3.7303,-3.7469,-3.7756,-3.8002,-3.8274,-3.8307,-3.834,-3.8336,-3.8415,-3.8368,-3.8156,-3.7692,-3.7241,-3.6821,-3.4932,-3.375,-3.3559,-3.303,-3.2781,-3.2781,-3.2601,-3.2401,-3.2197,-3.2073,-3.1893,-3.1688,-3.1688,-3.1688,-2.3674,-2.4069,-2.4365,0.0,0.0,0.0,0.0,0.0,-2.7652,-2.7903,-2.8633,-2.9247,-2.9539,-3.1228,-3.2837,-3.368,-3.6014,-3.7937,-3.8436,-3.8433,-3.8368,-3.8382,-3.8368,-3.8354,-3.8415,-3.8196,-3.805,-3.8031,-3.7551,-3.7241,-3.7241,-3.6195,-3.5719,-3.609,-3.5856,-3.5816,-3.5885,-3.617,-3.6302,-3.6321,-3.6862,-3.7248,-3.75,-3.75,-3.7557,-3.7685,-3.7844,-3.7809,-3.7685,-3.7844,-3.7791,-3.7685,-3.7844,-3.7809,-3.7685,-3.7844,-3.7826,-3.7738,-3.7649,-3.7542,-3.747,-3.7414,-3.7377,-3.7377,-3.7377,-3.7377,-3.7377,-3.7377,-3.7377,-3.7377,-3.7377,-3.7132,-3.69,-3.69,-3.7017,-3.7094,-3.7094,-3.7226,-3.7301,-3.7301,-3.7301,-3.7301,-3.7339,-3.7559,-3.7774,-3.7791,-3.8052,-3.8307,-3.8354,-3.8354,-3.8368,-3.8415,-3.8478,-3.8541,-3.8609,-3.8175,-3.7863,-3.7863,-3.6364,-3.5102,-3.4362,-3.379,-3.3484,-3.3484,-3.344,-3.3283,-3.3024,-3.2924,-3.2563,-3.1984,-3.1948,-3.1965,-2.3807,-2.3804,-2.3847,0.0,0.0,0.0,0.0,0.0,-3.0338,-3.1256,-3.0686,-3.0282,-3.1162,-3.1997,-3.2811,-3.3671,-3.6567,-3.864,-3.851,-3.851,-3.8478,-3.8415,-3.8382,-3.8415,-3.8491,-3.7716,-3.7228,-3.729,-3.6498,-3.6,-3.6,-3.5305,-3.529,-3.6058,-3.5384,-3.499,-3.499,-3.5862,-3.5862,-3.5009,-3.5881,-3.6688,-3.7477,-3.7477,-3.7698,-3.8117,-3.8496,-3.8465,-3.8135,-3.8546,-3.8483,-3.8153,-3.8546,-3.8451,-3.8135,-3.8546,-3.8707,-3.8658,-3.8559,-3.851,-3.851,-3.8415,-3.8382,-3.8382,-3.8382,-3.8382,-3.8382,-3.8382,-3.8382,-3.8382,-3.8382,-3.765,-3.69,-3.69,-3.7208,-3.7505,-3.7505,-3.788,-3.8192,-3.8192,-3.8192,-3.8207,-3.8307,-3.8307,-3.8322,-3.8382,-3.8382,-3.8415,-3.851,-3.851,-3.851,-3.851,-3.851,-3.851,-3.851,-3.8609,-3.8707,-3.8707,-3.7936,-3.6762,-3.5082,-3.5009,-3.5009,-3.5009,-3.4809,-3.4684,-3.46,-3.4258,-3.3512,-3.2419,-3.2352,-3.2318,-2.3177,-2.385,0.0,-2.4832,0.0,0.0,0.0,-2.9599,0.0,0.0,-3.3266,-3.2745,-3.302,-3.3734,-3.4358,-3.4586,-3.6457,-3.8046,-3.8566,-3.8559,-3.851,-3.8578,-3.8528,-3.829,-3.7851,-3.7546,-3.7179,-3.6659,-3.6355,-3.6197,-3.6197,-3.542,-3.5072,-3.531,-3.5119,-3.499,-3.499,-3.5247,-3.5247,-3.499,-3.4688,-3.5275,-3.6652,-3.6652,-3.6703,-3.6869,-3.7558,-3.7796,-3.7741,-3.8438,-3.8627,-3.8515,-3.8658,-3.8627,-3.8546,-3.8676,-3.8707,-3.8658,-3.8559,-3.851,-3.851,-3.8415,-3.8382,-3.8382,-3.8382,-3.8382,-3.8382,-3.8382,-3.8382,-3.8382,-3.8382,-3.8168,-3.7948,-3.7948,-3.805,-3.8117,-3.8117,-3.8252,-3.8336,-3.8336,-3.8336,-3.8336,-3.8368,-3.8368,-3.8368,-3.8382,-3.8382,-3.8415,-3.851,-3.859,-3.8658,-3.8658,-3.8658,-3.8658,-3.8658,-3.8658,-3.8707,-3.8707,-3.8511,-3.7904,-3.6798,-3.6211,-3.5917,-3.5917,-3.586,-3.5659,-3.5356,-3.472,-3.4105,-3.3517,-3.2933,-3.2651,-2.3349,-2.3935,0.0,-2.5189,-2.6164,-2.7563,-2.9512,0.0,0.0,0.0,-3.5092,-3.4486,-3.5155,-3.5394,-3.5504,-3.5512,-3.6633,-3.7551,-3.7716,-3.7686,-3.7656,-3.7753,-3.7686,-3.7454,-3.7055,-3.6707,-3.6303,-3.5826,-3.5495,-3.5312,-3.5312,-3.4816,-3.4523,-3.4523,-3.4523,-3.4523,-3.4523,-3.4523,-3.4523,-3.4523,-3.4027,-3.4321,-3.5312,-3.5642,-3.5973,-3.6321,-3.6798,-3.7,-3.7055,-3.7551,-3.7753,-3.7771,-3.8102,-3.8212,-3.8267,-3.8579,-3.8707,-3.8707,-3.8609,-3.859,-3.8559,-3.8528,-3.8515,-3.8515,-3.8515,-3.8515,-3.8515,-3.8515,-3.8515,-3.8515,-3.8515,-3.8515,-3.8496,-3.8415,-3.8382,-3.8382,-3.8382,-3.8382,-3.8382,-3.8382,-3.8382,-3.8415,-3.8446,-3.8446,-3.8556,-3.8935,-3.9004,-3.8894,-3.8614,-3.8658,-3.8707,-3.8707,-3.9001,-3.9184,-3.9184,-3.9478,-3.9533,-3.9215,-3.924,-3.8902,-3.8111,-3.7243,-3.6791,-3.678,-3.6791,-3.6696,-3.6444,-3.5969,-3.5369,-3.4713,-3.4195,-3.3786,-2.3886,0.0,0.0,-2.5271,-2.6716,0.0,-3.087,-3.2577,-3.4312,-3.667,-3.6083,-3.5587,-3.7092,-3.678,-3.6303,-3.6303,-3.689,-3.7129,-3.6395,-3.6303,-3.6303,-3.6303,-3.6303,-3.6266,-3.6193,-3.5477,-3.4954,-3.4899,-3.4211,-3.3807,-3.3807,-3.3807,-3.3807,-3.3807,-3.3807,-3.3807,-3.3807,-3.3807,-3.3807,-3.3807,-3.3807,-3.3807,-3.3825,-3.4578,-3.5367,-3.6174,-3.6174,-3.6229,-3.6303,-3.6303,-3.6303,-3.6376,-3.7184,-3.7507,-3.7588,-3.8395,-3.8707,-3.8689,-3.8615,-3.8634,-3.8689,-3.8615,-3.8652,-3.8707,-3.8707,-3.8707,-3.8707,-3.8707,-3.8707,-3.8707,-3.8707,-3.8707,-3.8658,-3.8465,-3.8433,-3.8433,-3.8433,-3.8433,-3.8433,-3.8433,-3.8433,-3.8465,-3.851,-3.8564,-3.8907,-3.9772,-3.99,-3.9638,-3.883,-3.8707,-3.8756,-3.8872,-3.9504,-3.9982,-4.0055,-4.0703,-4.0809,-4.0031,-4.0007,-3.9669,-3.8899,-3.8151,-3.7676,-3.7617,-3.7676,-3.7706,-3.7706,-3.7632,-3.7026,-3.5951,-3.5836,-3.5387,-2.2984,-2.3994,0.0,0.0,-2.7807,-2.9826,-3.1027,-3.2025,-3.3049,-3.4275,-3.532,-3.6091,-3.6344,-3.6366,-3.6303,-3.6303,-3.645,-3.6486,-3.6321,-3.6303,-3.6303,-3.6303,-3.6303,-3.6028,-3.5367,-3.51,-3.4734,-3.4119,-3.3899,-3.3807,-3.3807,-3.3807,-3.3807,-3.3807,-3.3807,-3.3807,-3.3807,-3.3807,-3.3807,-3.3807,-3.3807,-3.3807,-3.3807,-3.3972,-3.4504,-3.5265,-3.5265,-3.5679,-3.6303,-3.6303,-3.6303,-3.6376,-3.7184,-3.7507,-3.7588,-3.8395,-3.8707,-3.8615,-3.7973,-3.8175,-3.8597,-3.7955,-3.8193,-3.8707,-3.8707,-3.8707,-3.8707,-3.8707,-3.8707,-3.8707,-3.8707,-3.8707,-3.8707,-3.8658,-3.8627,-3.8627,-3.8627,-3.8627,-3.8627,-3.8627,-3.8627,-3.8627,-3.8658,-3.9171,-3.968,-3.9863,-3.99,-3.9682,-3.9071,-3.8822,-3.9121,-4.0157,-4.0235,-4.0463,-4.1093,-4.1297,-4.1003,-3.9968,-3.9976,-3.9639,-3.884,-3.8685,-3.8623,-3.8593,-3.8564,-3.8534,-3.8534,-3.7849,-3.7386,-3.7106,-3.6454,-3.6117,0.0,0.0,0.0,-2.7128,0.0,-2.9746,-3.0958,-3.1561,-3.1954,-3.2374,-3.4128,-3.5674,-3.601,-3.6102,-3.6051,-3.5677,-3.565,-3.5522,-3.5147,-3.5092,-3.5092,-3.5092,-3.5092,-3.4926,-3.4486,-3.4431,-3.4266,-3.3825,-3.3807,-3.3807,-3.3807,-3.3807,-3.3807,-3.3807,-3.3807,-3.3807,-3.3807,-3.3807,-3.3807,-3.3807,-3.3807,-3.3807,-3.3807,-3.3807,-3.4027,-3.4431,-3.4431,-3.4688,-3.5092,-3.5092,-3.5092,-3.522,-3.645,-3.6927,-3.7055,-3.8267,-3.8707,-3.8652,-3.8212,-3.834,-3.8634,-3.8212,-3.8358,-3.8707,-3.8707,-3.8707,-3.8707,-3.8707,-3.8707,-3.8707,-3.8707,-3.8707,-3.8707,-3.8707,-3.8707,-3.8707,-3.8707,-3.8707,-3.8707,-3.8707,-3.8707,-3.8707,-3.8707,-3.9698,-4.0533,-4.0634,-4.0979,-4.1063,-4.0541,-4.0365,-4.0561,-4.1248,-4.1536,-4.1866,-4.2296,-4.2688,-4.2333,-4.0998,-4.0844,-4.0296,-3.9129,-3.9007,-3.8921,-3.891,-3.8881,-3.8851,-3.8851,-3.8398,-3.8166,-3.8147,-3.7713,-3.7308,0.0,0.0,-2.5849,-2.7875,-2.8458,0.0,-3.0432,-3.0761,-3.0808,-3.1038,-3.282,-3.4572,-3.5246,-3.5374,-3.5184,-3.4576,-3.4357,-3.4055,-3.3476,-3.3385,-3.3385,-3.3385,-3.3513,-3.3587,-3.3587,-3.3715,-3.3807,-3.3807,-3.3807,-3.3807,-3.3807,-3.3807,-3.3807,-3.3807,-3.3807,-3.3807,-3.3807,-3.3807,-3.3807,-3.3807,-3.3807,-3.3807,-3.3807,-3.3807,-3.3807,-3.3807,-3.3807,-3.3807,-3.3807,-3.3807,-3.388,-3.4156,-3.5697,-3.6376,-3.6688,-3.8157,-3.8707,-3.8689,-3.8542,-3.8579,-3.8689,-3.8542,-3.8597,-3.8707,-3.8707,-3.8707,-3.8707,-3.8707,-3.8707,-3.8707,-3.8707,-3.8707,-3.8707,-3.8707,-3.8707,-3.8707,-3.8707,-3.8707,-3.8744,-3.8891,-3.9081,-3.9222,-3.9369,-4.0522,-4.1545,-4.176,-4.2377,-4.2594,-4.2133,-4.2039,-4.2096,-4.2304,-4.29,-4.3326,-4.3476,-4.4097,-4.3834,-4.2309,-4.2069,-4.1276,-3.9758,-3.9415,-3.9194,-3.9007,-3.895,-3.8939,-3.8939,-3.891,-3.891,-3.891,-3.8833,-3.8472,0.0,0.0,-2.6177,0.0,-2.7172,-2.7846,0.0,0.0,-2.9344,-3.074,-3.192,-3.2748,-3.2774,-3.2848,-3.2867,-3.283,-3.2235,-3.1766,-3.1733,-3.1715,-3.1715,-3.1715,-3.2339,-3.2761,-3.2761,-3.3385,-3.3807,-3.3807,-3.3807,-3.3807,-3.3807,-3.3807,-3.3807,-3.3807,-3.3807,-3.3807,-3.3807,-3.3807,-3.3807,-3.3807,-3.3807,-3.3807,-3.3807,-3.3807,-3.3807,-3.3807,-3.3807,-3.3807,-3.3807,-3.3807,-3.4211,-3.4945,-3.5917,-3.6725,-3.7441,-3.8358,-3.8707,-3.8597,-3.79,-3.812,-3.8597,-3.7881,-3.812,-3.8707,-3.8707,-3.8707,-3.8707,-3.8707,-3.8707,-3.8707,-3.8707,-3.8707,-3.8707,-3.8707,-3.8707,-3.8707,-3.8707,-3.8707,-3.8909,-3.9588,-4.048,-4.1356,-4.2062,-4.2565,-4.2931,-4.2986,-4.3061,-4.2934,-4.2399,-4.214,-4.2448,-4.3624,-4.3605,-4.3853,-4.4597,-4.4768,-4.434,-4.3209,-4.3102,-4.2391,-4.0858,-4.0541,-4.0094,-3.9427,-3.9129,-3.8997,-3.8997,-3.8939,-3.891,-3.891,-3.891,-3.8865,-2.2854,-2.4067,-2.5103,0.0,-2.6522,-2.6838,-2.7229,-2.7641,-2.8141,-2.8848,-2.9678,-3.0539,-3.1402,-3.1592,-3.1647,-3.1754,-3.1488,-3.1276,-3.1403,-3.1384,-3.1384,-3.1384,-3.2118,-3.2614,-3.2614,-3.333,-3.3807,-3.3807,-3.3807,-3.3807,-3.3807,-3.3807,-3.3807,-3.3807,-3.3807,-3.3807,-3.3807,-3.3807,-3.3807,-3.3807,-3.3807,-3.3807,-3.3807,-3.3807,-3.3807,-3.3807,-3.3807,-3.3807,-3.3807,-3.3807,-3.4009,-3.4468,-3.5771,-3.6505,-3.6964,-3.8248,-3.8707,-3.8652,-3.8303,-3.8395,-3.8652,-3.8285,-3.8414,-3.8707,-3.8707,-3.8707,-3.8707,-3.8707,-3.8707,-3.8719,-3.8881,-3.8921,-3.895,-3.9129,-3.9156,-3.9156,-3.9156,-3.9398,-3.9885,-4.0886,-4.1456,-4.2043,-4.2847,-4.3108,-4.3412,-4.3995,-4.4096,-4.4064,-4.4018,-4.3916,-4.4068,-4.4664,-4.462,-4.4731,-4.5137,-4.5175,-4.4791,-4.3852,-4.3669,-4.3073,-4.1939,-4.1203,-4.064,-4.024,-3.9461,-3.9064,-3.9064,-3.9036,-3.8989,-3.8989,-3.8979,-3.8979,0.0,0.0,-2.4339,-2.5335,-2.5896,-2.6204,0.0,-2.6819,-2.7471,-2.7671,-2.8171,-2.8974,-3.017,-3.055,-3.073,-3.0854,-3.0698,-3.0622,-3.0729,-3.0754,-3.0754,-3.0754,-3.1678,-3.2302,-3.2302,-3.322,-3.3807,-3.3807,-3.3807,-3.3807,-3.3807,-3.3807,-3.3807,-3.3807,-3.3807,-3.3807,-3.3807,-3.3807,-3.3807,-3.3807,-3.3807,-3.3807,-3.3807,-3.3807,-3.3807,-3.3807,-3.3807,-3.3807,-3.3825,-3.4027,-3.41,-3.4284,-3.5954,-3.6597,-3.678,-3.8175,-3.8707,-3.8707,-3.8707,-3.8707,-3.8707,-3.8707,-3.8707,-3.8707,-3.8707,-3.875,-3.8792,-3.8792,-3.8851,-3.895,-3.9156,-3.9192,-3.9245,-3.9433,-3.9652,-3.9783,-3.9783,-4.0267,-4.1008,-4.2111,-4.2509,-4.29,-4.3502,-4.3667,-4.402,-4.4815,-4.4934,-4.5023,-4.5256,-4.5297,-4.5297,-4.5297,-4.5317,-4.5338,-4.5399,-4.5419,-4.517,-4.4594,-4.4384,-4.3903,-4.3063,-4.2001,-4.1294,-4.0967,-3.9846,-3.9227,-3.9101,-3.9101,-3.9101,-3.9101,-3.9064,-3.9036,0.0,-2.4357,0.0,-2.4085,-2.5063,-2.6204,-2.6204,-2.6819,-2.7634,-2.837,-2.8569,-2.8623,-2.8696,-2.9355,-2.9888,-2.9966,-2.933,-2.8846,-2.8937,-2.8985,-2.9015,-2.9015,-3.0479,-3.1458,-3.1458,-3.2871,-3.3807,-3.3807,-3.3807,-3.3807,-3.3807,-3.3807,-3.3807,-3.3807,-3.3807,-3.3807,-3.3807,-3.3807,-3.3807,-3.3807,-3.3807,-3.3807,-3.3807,-3.3807,-3.3807,-3.3807,-3.3807,-3.3807,-3.3862,-3.4633,-3.4935,-3.5082,-3.678,-3.7452,-3.7533,-3.8395,-3.8707,-3.8707,-3.8707,-3.8707,-3.8707,-3.8707,-3.8707,-3.8707,-3.8707,-3.8881,-3.9073,-3.9073,-3.9272,-3.9458,-3.9477,-3.9477,-3.9483,-3.9502,-4.0065,-4.0654,-4.0654,-4.1267,-4.2093,-4.2983,-4.3964,-4.4662,-4.4719,-4.4988,-4.5218,-4.5256,-4.5256,-4.5297,-4.5297,-4.5297,-4.5297,-4.5297,-4.5359,-4.5399,-4.54,-4.5457,-4.5494,-4.5528,-4.5509,-4.5107,-4.4241,-4.3178,-4.222,-4.138,-4.03,-3.9524,-3.9101,-3.9101,-3.9101,-3.9101,-3.9101,-3.9101,0.0,0.0,0.0,-2.3948,-2.4693,-2.5361,-2.4773,-2.5679,-2.6711,-2.7001,-2.7489,-2.7997,-2.8496,-2.8848,-2.9054,-2.9105,-2.8894,-2.8743,-2.8858,-2.8881,-2.9112,-2.9667,-3.0723,-3.1586,-3.2118,-3.3164,-3.3807,-3.3807,-3.3807,-3.3807,-3.3807,-3.3807,-3.3807,-3.3807,-3.3807,-3.355,-3.3036,-3.2522,-3.2522,-3.3036,-3.2504,-3.2882,-3.403,-3.3512,-3.3647,-3.4237,-3.4237,-3.4087,-3.3852,-3.4427,-3.4903,-3.5388,-3.649,-3.7267,-3.784,-3.8456,-3.9153,-3.9663,-3.9135,-3.9407,-3.989,-3.9386,-3.9219,-3.9219,-3.9219,-3.9272,-3.935,-3.935,-3.9427,-3.9551,-3.9717,-3.9762,-3.9785,-3.9975,-4.0644,-4.1366,-4.1936,-4.2677,-4.3513,-4.4368,-4.4855,-4.5109,-4.5109,-4.5235,-4.5297,-4.5297,-4.5297,-4.5297,-4.5297,-4.5297,-4.5317,-4.5359,-4.5398,-4.5419,-4.5457,-4.5495,-4.5513,-4.5605,-4.5586,-4.5201,-4.4335,-4.3438,-4.2468,-4.1418,-4.052,-3.988,-3.9548,-3.9548,-3.9548,-3.9566,-3.9433,-3.935,-2.2262,0.0,0.0,0.0,-2.4496,-2.4947,-2.4381,-2.5266,-2.6227,-2.6227,-2.6879,-2.7604,-2.813,-2.8214,-2.8304,-2.8608,-2.8687,-2.8712,-2.8834,-2.8815,-2.9064,-2.9685,-3.0479,-3.1286,-3.2118,-3.2926,-3.3513,-3.377,-3.3807,-3.3678,-3.3421,-3.3403,-3.3275,-3.2999,-3.2981,-3.2742,-3.221,-3.1659,-3.1659,-3.2192,-3.1659,-3.2232,-3.377,-3.3231,-3.3556,-3.4508,-3.4612,-3.4398,-3.408,-3.4656,-3.4982,-3.5235,-3.6609,-3.7336,-3.7702,-3.8628,-3.9435,-3.9954,-3.9432,-3.9687,-4.0221,-3.9652,-3.9502,-3.9502,-3.9502,-3.9556,-3.9628,-3.9628,-3.9693,-3.9804,-3.9996,-4.0038,-4.021,-4.096,-4.1552,-4.224,-4.3386,-4.3825,-4.4265,-4.5125,-4.5297,-4.5297,-4.5297,-4.5297,-4.5297,-4.5297,-4.5297,-4.5317,-4.5338,-4.5338,-4.5359,-4.5399,-4.5419,-4.5438,-4.5495,-4.5513,-4.555,-4.5586,-4.5586,-4.5336,-4.4759,-4.3932,-4.315,-4.2392,-4.1587,-4.1074,-4.0901,-4.0452,-4.0233,-4.0233,-4.0094,-4.0042,0.0,0.0,0.0,-2.3896,-2.4478,-2.5078,-2.5078,-2.5695,-2.6277,-2.6277,-2.6908,-2.7471,-2.7471,-2.7405,-2.7634,-2.8413,-2.8533,-2.8601,-2.8676,-2.8694,-2.8761,-2.8923,-2.9643,-3.0455,-3.1311,-3.2137,-3.2926,-3.3715,-3.377,-3.344,-3.2687,-3.2614,-3.2228,-3.1421,-3.1391,-3.1372,-3.1347,-3.1329,-3.1329,-3.1347,-3.1354,-3.1924,-3.2976,-3.2957,-3.3504,-3.4454,-3.4755,-3.4735,-3.4548,-3.5334,-3.524,-3.4789,-3.7211,-3.7699,-3.7253,-3.8882,-3.9526,-3.9545,-3.9526,-3.9526,-3.957,-3.9526,-3.9526,-3.9526,-3.9526,-3.9717,-3.9914,-3.9914,-4.0098,-4.031,-4.0329,-4.0368,-4.0788,-4.2412,-4.2813,-4.3291,-4.4914,-4.4609,-4.4284,-4.5144,-4.5297,-4.5297,-4.5297,-4.5297,-4.5297,-4.5297,-4.5297,-4.5317,-4.5398,-4.5398,-4.5399,-4.54,-4.5457,-4.5495,-4.5495,-4.5568,-4.5586,-4.5586,-4.5586,-4.5586,-4.5547,-4.4739,-4.4297,-4.4259,-4.3508,-4.3104,-4.3104,-4.1798,-4.1146,-4.1146,-4.1146,-4.1146,-2.31,0.0,0.0,0.0,0.0,0.0,-2.4304,-2.4941,-2.5485,-2.5485,-2.614,-2.6704,-2.6704,-2.6681,-2.6731,-2.6926,-2.7387,-2.7767,-2.7887,-2.8421,-2.9053,-2.9758,-3.0039,-3.0497,-3.1311,-3.2137,-3.2706,-3.2926,-3.3061,-3.3234,-3.3458,-3.3068,-3.2367,-3.1446,-3.0983,-3.0669,-3.0522,-2.9953,-2.9971,-3.0522,-3.0101,-3.0745,-3.2341,-3.1901,-3.2258,-3.3232,-3.3946,-3.4213,-3.42,-3.5018,-3.5458,-3.5795,-3.706,-3.7818,-3.8334,-3.9194,-4.0037,-4.0713,-4.0087,-4.0401,-4.0978,-4.0368,-4.0158,-4.0158,-4.0158,-4.0196,-4.0252,-4.0252,-4.0308,-4.0516,-4.1147,-4.1741,-4.2296,-4.2756,-4.335,-4.3944,-4.4403,-4.4767,-4.5073,-4.526,-4.5297,-4.5297,-4.5297,-4.5297,-4.5297,-4.5297,-4.5297,-4.5317,-4.5398,-4.5398,-4.5419,-4.5476,-4.5495,-4.5513,-4.5568,-4.5586,-4.5586,-4.5586,-4.5586,-4.5316,-4.4682,-4.4432,-4.4028,-4.3431,-4.3201,-4.3104,-4.3104,-4.2733,-4.2563,-4.2525,-4.2354,-4.2172,-2.3122,-2.3801,-2.4094,-2.4094,0.0,0.0,-2.4094,-2.4419,-2.4728,-2.4728,-2.5385,-2.595,-2.595,-2.5929,-2.5889,-2.5845,-2.6204,-2.6622,-2.7041,-2.7765,-2.8505,-2.9122,-2.947,-2.9984,-3.0815,-3.1385,-3.1863,-3.2213,-3.2409,-3.2534,-3.2543,-3.1901,-3.1229,-3.054,-3.0172,-2.9953,-2.9839,-2.9355,-2.9403,-2.9953,-2.9599,-3.0245,-3.1713,-3.1367,-3.1749,-3.2749,-3.3624,-3.3987,-3.4063,-3.4866,-3.541,-3.5855,-3.7034,-3.7852,-3.8461,-3.9483,-4.0326,-4.0864,-4.0349,-4.0595,-4.1067,-4.0569,-4.0398,-4.0398,-4.0398,-4.0398,-4.0398,-4.0398,-4.0665,-4.0991,-4.1125,-4.2026,-4.2889,-4.2889,-4.356,-4.4288,-4.4633,-4.5074,-4.5381,-4.5341,-4.5339,-4.5338,-4.5338,-4.5317,-4.5297,-4.5297,-4.5317,-4.5359,-4.54,-4.5419,-4.5458,-4.5531,-4.5531,-4.5568,-4.5586,-4.5586,-4.5586,-4.5586,-4.5586,-4.5355,-4.4855,-4.4836,-4.4624,-4.4143,-4.4143,-4.4143,-4.4143,-4.3778,-4.3605,-4.3605,-4.3807,-4.3637,-2.2921,-2.3507,-2.4132,-2.419,-2.417,0.0,-2.419,-2.4152,-2.4113,-2.4113,-2.4681,-2.5173,-2.5193,-2.5152,-2.5093,-2.5113,-2.5093,-2.5366,-2.6169,-2.6927,-2.7497,-2.7765,-2.8384,-2.9112,-2.9989,-3.0305,-3.0772,-3.1518,-3.1846,-3.1614,-3.0753,-3.0114,-2.9626,-2.9334,-2.9355,-2.9355,-2.9334,-2.9334,-2.9435,-2.9608,-2.9626,-3.013,-3.1059,-3.1075,-3.1575,-3.2462,-3.3337,-3.3757,-3.3926,-3.4732,-3.5114,-3.5362,-3.7018,-3.7647,-3.7893,-3.9632,-4.0262,-4.0281,-4.0377,-4.0396,-4.0396,-4.03,-4.0339,-4.0377,-4.0185,-4.0262,-4.0396,-4.0396,-4.1046,-4.1526,-4.0778,-4.1737,-4.2945,-4.3022,-4.3655,-4.4441,-4.5247,-4.5419,-4.5419,-4.5419,-4.5419,-4.5399,-4.5399,-4.5359,-4.5298,-4.5298,-4.5359,-4.54,-4.54,-4.5457,-4.5532,-4.5586,-4.5586,-4.5586,-4.5586,-4.5586,-4.5586,-4.5586,-4.5586,-4.5586,-4.5586,-4.5586,-4.5586,-4.5586,-4.5586,-4.5586,-4.5586,-4.4816,-4.4432,-4.4451,-4.524,-4.5182,-2.4036,-2.3966,-2.417,-2.4208,-2.419,0.0,-2.4266,-2.4284,-2.4247,-2.4173,-2.4301,-2.443,-2.4505,-2.4487,-2.4487,-2.4543,-2.4468,-2.4667,-2.5413,-2.6194,-2.6966,-2.7714,-2.7934,-2.8333,-2.914,-2.9871,-3.0388,-3.0698,-3.1528,-3.1429,-3.0124,-3.0538,-3.0413,-2.957,-2.9698,-2.9698,-2.9551,-2.9551,-2.957,-2.9608,-2.9751,-2.9967,-3.0151,-3.0312,-3.05,-3.072,-3.156,-3.234,-3.3092,-3.3915,-3.4645,-3.5372,-3.6364,-3.6814,-3.711,-3.8815,-3.9465,-3.9608,-4.0261,-4.0492,-4.0377,-3.9742,-3.9954,-4.0242,-3.8881,-3.94,-4.0492,-4.0492,-4.1111,-4.1745,-4.1572,-4.2283,-4.3222,-4.3876,-4.4165,-4.453,-4.5376,-4.5568,-4.5568,-4.5568,-4.5476,-4.54,-4.54,-4.5381,-4.5381,-4.5381,-4.5381,-4.5419,-4.5476,-4.5495,-4.5532,-4.5586,-4.5586,-4.5586,-4.5586,-4.5586,-4.5586,-4.5586,-4.5586,-4.5586,-4.5586,-4.5586,-4.5586,-4.5586,-4.5586,-4.5586,-4.5586,-4.5432,-4.5336,-4.5336,-4.5509,-4.5509,-2.4426,-2.4151,-2.4209,-2.4228,-2.4229,0.0,0.0,-2.4321,-2.4284,-2.4266,-2.4247,-2.4266,-2.4284,-2.4339,-2.4356,-2.4375,-2.4339,-2.445,-2.4894,-2.5496,-2.6219,-2.7108,-2.7548,-2.8117,-2.892,-2.9462,-2.9882,-3.0189,-3.0659,-3.0691,-3.0072,-3.0434,-3.0373,-2.977,-2.9855,-2.9855,-2.9751,-2.9751,-2.9786,-2.9905,-3.0003,-3.0049,-3.0049,-3.0157,-3.0204,-3.0242,-3.1078,-3.1718,-3.2225,-3.3063,-3.3921,-3.4836,-3.6102,-3.665,-3.6853,-3.8116,-3.8627,-3.87,-3.9104,-3.9238,-3.9181,-3.8777,-3.8911,-3.9104,-3.8257,-3.8892,-3.9892,-3.9892,-4.0816,-4.17,-4.1258,-4.2124,-4.3085,-4.3066,-4.3682,-4.4412,-4.4855,-4.5278,-4.5586,-4.5586,-4.555,-4.5495,-4.5476,-4.5419,-4.54,-4.54,-4.5419,-4.5457,-4.5495,-4.5531,-4.5568,-4.5605,-4.5586,-4.5586,-4.5586,-4.5586,-4.5586,-4.5586,-4.5586,-4.5586,-4.5586,-4.5586,-4.5586,-4.5586,-4.5586,-4.5586,-4.5586,-4.5586,-4.5586,-4.5586,-4.5586,-4.5586,-2.454,-2.4209,-2.4228,-2.4303,-2.4284,-2.4266,0.0,0.0,0.0,-2.4321,-2.4321,-2.4339,-2.4375,-2.4409,-2.4459,-2.4462,-2.4464,-2.4498,-2.4596,-2.493,-2.5498,-2.6348,-2.6967,-2.7662,-2.8493,-2.8746,-2.9139,-2.9784,-2.9753,-2.9848,-3.0185,-3.0204,-3.0128,-2.9953,-2.9972,-2.9972,-2.9972,-2.9972,-3.0034,-3.0204,-3.0204,-3.0204,-3.0204,-3.0204,-3.0204,-3.0242,-3.0934,-3.135,-3.1574,-3.2286,-3.3177,-3.4255,-3.5643,-3.6296,-3.6579,-3.7435,-3.7757,-3.7777,-3.795,-3.8007,-3.7969,-3.7796,-3.7642,-3.7603,-3.8104,-3.8623,-3.9123,-3.9431,-4.0508,-4.1393,-4.0681,-4.1527,-4.245,-4.1931,-4.2835,-4.3912,-4.422,-4.4855,-4.5393,-4.5566,-4.5586,-4.5586,-4.5513,-4.5457,-4.5438,-4.5438,-4.5495,-4.5513,-4.5513,-4.5568,-4.5586,-4.5586,-4.5586,-4.5586,-4.5586,-4.5586,-4.5586,-4.5586,-4.5586,-4.5586,-4.5586,-4.5586,-4.5586,-4.5586,-4.5586,-4.5586,-4.5586,-4.5586,-4.5586,-4.5586,-4.5586,-4.5586,-2.4652,-2.4192,-2.4229,-2.4358,-2.4394,-2.4412,-2.4465,0.0,-2.4465,-2.4412,0.0,-2.4513,-2.4547,0.0,0.0,-2.4734,-2.4689,-2.4676,-2.4692,-2.4671,-2.5011,-2.5883,-2.5801,-2.6033,-2.6968,-2.7233,-2.7975,-2.9513,-2.9251,-2.9355,-3.0166,-3.0204,-3.0185,-3.0157,-3.0157,-3.0157,-3.0157,-3.0157,-3.0171,-3.0204,-3.0204,-3.0204,-3.0204,-3.0204,-3.0204,-3.0204,-3.0289,-3.0808,-3.1596,-3.1693,-3.2712,-3.4199,-3.4332,-3.4889,-3.5724,-3.6565,-3.6853,-3.6969,-3.7738,-3.8007,-3.7873,-3.7103,-3.6372,-3.6219,-3.8469,-3.8681,-3.845,-3.995,-4.0489,-4.0623,-4.0527,-4.0642,-4.0969,-4.1643,-4.195,-4.2489,-4.397,-4.4374,-4.4682,-4.5451,-4.5586,-4.5586,-4.5586,-4.5586,-4.5568,-4.5568,-4.5586,-4.5586,-4.5586,-4.5605,-4.5586,-4.5586,-4.5586,-4.5586,-4.5586,-4.5586,-4.5586,-4.5586,-4.5586,-4.5586,-4.5586,-4.5586,-4.5586,-4.5586,-4.5586,-4.5586,-4.5586,-4.5586,-4.5586,-4.5586,-4.5586,-4.5586,-2.4542,-2.4579,-2.4874,-2.4487,-2.4746,-2.4986,-2.4594,-2.45,-2.45,-2.4515,0.0,0.0,0.0,0.0,0.0,0.0,-2.4783,-2.4798,-2.4861,-2.4757,-2.496,-2.5747,-2.5706,-2.5931,-2.6728,-2.6879,-2.7269,-2.8088,-2.8512,-2.8941,-2.9407,-2.9937,-3.0204,-3.0204,-3.0204,-3.0204,-3.0204,-3.0204,-3.0204,-3.0204,-3.0204,-3.0204,-3.0204,-3.0204,-3.0199,-3.0194,-3.0234,-3.0484,-3.0849,-3.0893,-3.1628,-3.2795,-3.3224,-3.4263,-3.5532,-3.5892,-3.6007,-3.6065,-3.643,-3.6546,-3.6488,-3.6122,-3.5795,-3.5795,-3.7334,-3.7892,-3.8257,-3.945,-4.0142,-4.0489,-4.0489,-4.0489,-4.0585,-4.095,-4.1431,-4.1989,-4.2701,-4.3605,-4.4412,-4.4759,-4.524,-4.5586,-4.5586,-4.5586,-4.5586,-4.5586,-4.5586,-4.5586,-4.5586,-4.5586,-4.5586,-4.5586,-4.5586,-4.5586,-4.5586,-4.5586,-4.5586,-4.5586,-4.5586,-4.5586,-4.5586,-4.5586,-4.5586,-4.5586,-4.5586,-4.5586,-4.5586,-4.5586,-4.5586,-4.5586,-4.5586,-4.5586,-2.5151,-2.5206,-2.5392,-2.4893,-2.5023,-2.5171,-2.4612,-2.45,-2.4517,-2.4582,-2.4596,0.0,0.0,0.0,-2.4842,-2.4846,0.0,-2.4898,-2.5004,-2.4903,-2.5009,-2.5543,-2.5574,-2.5811,-2.6488,-2.6394,-2.652,-2.7056,-2.768,-2.8251,-2.8817,-2.947,-2.9956,-3.0185,-3.0204,-3.0204,-3.0204,-3.0204,-3.0204,-3.0204,-3.0204,-3.0199,-3.0199,-3.0199,-3.0213,-3.0234,-3.0279,-3.0299,-3.0304,-3.0379,-3.1044,-3.2083,-3.2679,-3.3968,-3.5493,-3.5493,-3.5493,-3.5493,-3.5493,-3.5493,-3.5493,-3.5493,-3.5493,-3.5699,-3.6738,-3.7507,-3.8238,-3.9315,-4.0046,-4.0489,-4.0489,-4.0489,-4.0489,-4.0489,-4.0969,-4.1566,-4.2047,-4.3104,-4.4105,-4.4566,-4.5163,-4.5586,-4.5586,-4.5586,-4.5586,-4.5586,-4.5586,-4.5586,-4.5586,-4.5586,-4.5586,-4.5586,-4.5586,-4.5586,-4.5586,-4.5586,-4.5586,-4.5586,-4.5586,-4.5586,-4.5586,-4.5586,-4.5586,-4.5586,-4.5586,-4.5586,-4.5586,-4.5586,-4.5586,-4.5586,-4.5586,-4.5586,-2.6948,-2.6171,-2.5616,-2.5652,-2.5094,-2.4537,-2.4518,-2.45,-2.4517,-2.4582,-2.4645,-2.4723,-2.4779,-2.4903,-2.4991,-2.498,-2.4993,0.0,0.0,-2.5089,-2.5108,-2.5127,-2.4996,-2.5186,-2.5855,-2.5385,-2.5636,-2.6998,-2.6773,-2.7198,-2.8624,-2.8855,-2.9344,-3.0166,-3.0204,-3.0204,-3.0204,-3.0204,-3.0204,-3.0204,-3.0204,-3.0199,-3.0207,-3.0199,-3.0245,-3.0312,-3.0312,-3.0299,-3.0304,-3.0379,-3.1371,-3.2852,-3.2891,-3.3968,-3.5493,-3.5493,-3.5493,-3.5493,-3.5493,-3.5493,-3.5493,-3.5493,-3.5493,-3.5815,-3.7469,-3.7988,-3.8334,-3.9988,-4.0469,-4.0489,-4.0489,-4.0489,-4.0489,-4.0489,-4.0508,-4.0989,-4.2681,-4.3104,-4.3624,-4.524,-4.5566,-4.5586,-4.5586,-4.5586,-4.5586,-4.5586,-4.5586,-4.5586,-4.5586,-4.5586,-4.5586,-4.5586,-4.5586,-4.5586,-4.5586,-4.5586,-4.5586,-4.5586,-4.5586,-4.5586,-4.5586,-4.5586,-4.5586,-4.5586,-4.5586,-4.5586,-4.5586,-4.5586,-4.5586,-4.5586,-4.5586,-4.5586,-2.6874,-2.7023,-2.7006,-2.5968,-2.5912,-2.5819,-2.4741,-2.45,-2.4666,-2.5273,-2.5019,-2.4892,-2.5552,-2.5296,-2.4999,-2.4993,-2.5051,-2.5076,0.0,-2.5101,-2.5114,-2.5163,-2.5006,-2.4993,-2.5223,-2.4964,-2.5009,-2.5477,-2.5991,-2.6749,-2.7774,-2.8498,-2.9306,-3.0166,-3.0213,-3.0194,-3.0194,-3.0194,-3.0226,-3.0272,-3.0226,-3.0221,-3.0266,-3.0266,-3.0279,-3.0311,-3.0311,-3.0323,-3.0405,-3.1013,-3.1602,-3.2218,-3.3333,-3.4122,-3.4718,-3.5295,-3.5493,-3.5493,-3.5493,-3.5493,-3.5493,-3.5493,-3.5493,-3.5815,-3.7488,-3.8007,-3.8354,-4.0027,-4.0489,-4.0489,-4.0489,-4.0489,-4.0489,-4.0489,-4.0931,-4.1354,-4.1373,-4.2701,-4.372,-4.3181,-4.4451,-4.5413,-4.4836,-4.522,-4.5586,-4.5586,-4.5586,-4.5586,-4.5586,-4.5586,-4.5586,-4.5586,-4.5586,-4.5586,-4.5586,-4.5586,-4.5586,-4.5586,-4.5586,-4.5586,-4.5586,-4.5586,-4.5586,-4.5586,-4.5586,-4.5586,-4.5586,-4.5586,-4.5586,-4.5586,-4.5586,-4.5586,-2.7358,-2.7451,-2.7359,-2.6024,-2.6098,-2.621,-2.5169,-2.515,-2.5521,-2.6113,-2.5639,-2.5405,-2.6333,-2.5679,-2.5094,-2.5384,-2.5241,-2.5101,0.0,-2.5139,-2.5163,-2.518,-2.5057,-2.4961,-2.494,-2.4912,-2.4808,-2.4642,-2.5347,-2.6228,-2.7263,-2.8004,-2.8927,-3.0166,-3.0194,-3.0188,-3.0188,-3.0221,-3.0266,-3.0312,-3.0266,-3.0247,-3.0286,-3.0292,-3.0318,-3.0336,-3.0316,-3.0336,-3.0456,-3.1352,-3.1872,-3.2256,-3.366,-3.4391,-3.4737,-3.5295,-3.5493,-3.5493,-3.5493,-3.5493,-3.5493,-3.5493,-3.5493,-3.5757,-3.7123,-3.7757,-3.8354,-4.0027,-4.0489,-4.0566,-4.0873,-4.0719,-4.0489,-4.0489,-4.0931,-4.1354,-4.1412,-4.2701,-4.372,-4.3258,-4.447,-4.5413,-4.4855,-4.522,-4.5586,-4.5586,-4.5586,-4.5586,-4.5586,-4.5586,-4.5586,-4.5586,-4.5586,-4.5586,-4.5586,-4.5586,-4.5586,-4.5586,-4.5586,-4.5586,-4.5586,-4.5586,-4.574,-4.6067,-4.5759,-4.574,-4.6067,-4.574,-4.5586,-4.5586,-4.5586,-4.5586]}]]